<?xml version="1.0" encoding="UTF-8" standalone="no" ?>
<gpx xmlns="http://www.topografix.com/GPX/1/1" xmlns:xsi="http://www.w3.org/2001/XMLSchema-instance" xsi:schemaLocation="http://www.topografix.com/GPX/1/1 http://www.topografix.com/GPX/1/1/gpx.xsd" version="1.1" creator="VisuGPX - https://www.visugpx.com">
  <metadata>
    <name>Cathédrale de lumière</name>
    <desc><![CDATA[Démarrage et arrivée au parking de la Cathédrale de Lumière]]></desc>
  </metadata>
  <trk>
    <name><![CDATA[Cathédrale de lumière_1]]></name>
    <trkseg>
      <trkpt lat="43.41053" lon="5.66195">
        <ele>416</ele>
        <time>2014-01-25T09:20:09Z</time>
      </trkpt>
      <trkpt lat="43.41045" lon="5.66158">
        <ele>415</ele>
        <time>2014-01-25T09:20:33Z</time>
      </trkpt>
      <trkpt lat="43.41043" lon="5.66143">
        <ele>415</ele>
        <time>2014-01-25T09:20:42Z</time>
      </trkpt>
      <trkpt lat="43.41043" lon="5.66127">
        <ele>415</ele>
        <time>2014-01-25T09:20:51Z</time>
      </trkpt>
      <trkpt lat="43.41042" lon="5.66113">
        <ele>415</ele>
        <time>2014-01-25T09:21:00Z</time>
      </trkpt>
      <trkpt lat="43.41039" lon="5.66099">
        <ele>415</ele>
        <time>2014-01-25T09:21:09Z</time>
      </trkpt>
      <trkpt lat="43.41035" lon="5.66093">
        <ele>415</ele>
        <time>2014-01-25T09:21:18Z</time>
      </trkpt>
      <trkpt lat="43.41027" lon="5.66082">
        <ele>415</ele>
        <time>2014-01-25T09:21:28Z</time>
      </trkpt>
      <trkpt lat="43.41021" lon="5.6607">
        <ele>415</ele>
        <time>2014-01-25T09:21:37Z</time>
      </trkpt>
      <trkpt lat="43.41015" lon="5.66059">
        <ele>415</ele>
        <time>2014-01-25T09:21:46Z</time>
      </trkpt>
      <trkpt lat="43.4101" lon="5.66049">
        <ele>415</ele>
        <time>2014-01-25T09:21:56Z</time>
      </trkpt>
      <trkpt lat="43.41005" lon="5.66036">
        <ele>416</ele>
        <time>2014-01-25T09:22:06Z</time>
      </trkpt>
      <trkpt lat="43.40999" lon="5.66024">
        <ele>416</ele>
        <time>2014-01-25T09:22:15Z</time>
      </trkpt>
      <trkpt lat="43.40993" lon="5.66013">
        <ele>417</ele>
        <time>2014-01-25T09:22:24Z</time>
      </trkpt>
      <trkpt lat="43.40986" lon="5.66003">
        <ele>418</ele>
        <time>2014-01-25T09:22:34Z</time>
      </trkpt>
      <trkpt lat="43.40975" lon="5.65995">
        <ele>418</ele>
        <time>2014-01-25T09:22:44Z</time>
      </trkpt>
      <trkpt lat="43.40968" lon="5.65986">
        <ele>419</ele>
        <time>2014-01-25T09:22:54Z</time>
      </trkpt>
      <trkpt lat="43.40963" lon="5.65972">
        <ele>419</ele>
        <time>2014-01-25T09:23:03Z</time>
      </trkpt>
      <trkpt lat="43.4096" lon="5.65957">
        <ele>419</ele>
        <time>2014-01-25T09:23:12Z</time>
      </trkpt>
      <trkpt lat="43.40958" lon="5.65941">
        <ele>419</ele>
        <time>2014-01-25T09:23:22Z</time>
      </trkpt>
      <trkpt lat="43.40957" lon="5.65928">
        <ele>420</ele>
        <time>2014-01-25T09:23:31Z</time>
      </trkpt>
      <trkpt lat="43.40957" lon="5.6591">
        <ele>421</ele>
        <time>2014-01-25T09:23:42Z</time>
      </trkpt>
      <trkpt lat="43.40959" lon="5.65894">
        <ele>423</ele>
        <time>2014-01-25T09:23:52Z</time>
      </trkpt>
      <trkpt lat="43.40959" lon="5.6588">
        <ele>427</ele>
        <time>2014-01-25T09:24:01Z</time>
      </trkpt>
      <trkpt lat="43.4096" lon="5.65864">
        <ele>428</ele>
        <time>2014-01-25T09:24:10Z</time>
      </trkpt>
      <trkpt lat="43.40963" lon="5.65847">
        <ele>429</ele>
        <time>2014-01-25T09:24:20Z</time>
      </trkpt>
      <trkpt lat="43.40962" lon="5.65831">
        <ele>429</ele>
        <time>2014-01-25T09:24:30Z</time>
      </trkpt>
      <trkpt lat="43.4096" lon="5.65816">
        <ele>430</ele>
        <time>2014-01-25T09:24:40Z</time>
      </trkpt>
      <trkpt lat="43.40959" lon="5.65802">
        <ele>431</ele>
        <time>2014-01-25T09:24:49Z</time>
      </trkpt>
      <trkpt lat="43.40954" lon="5.65785">
        <ele>436</ele>
        <time>2014-01-25T09:24:58Z</time>
      </trkpt>
      <trkpt lat="43.40952" lon="5.65769">
        <ele>439</ele>
        <time>2014-01-25T09:25:09Z</time>
      </trkpt>
      <trkpt lat="43.40949" lon="5.65753">
        <ele>439</ele>
        <time>2014-01-25T09:25:19Z</time>
      </trkpt>
      <trkpt lat="43.40946" lon="5.6574">
        <ele>442</ele>
        <time>2014-01-25T09:25:28Z</time>
      </trkpt>
      <trkpt lat="43.40945" lon="5.65729">
        <ele>442</ele>
        <time>2014-01-25T09:25:37Z</time>
      </trkpt>
      <trkpt lat="43.40945" lon="5.65717">
        <ele>441</ele>
        <time>2014-01-25T09:25:46Z</time>
      </trkpt>
      <trkpt lat="43.40942" lon="5.65702">
        <ele>440</ele>
        <time>2014-01-25T09:25:56Z</time>
      </trkpt>
      <trkpt lat="43.40937" lon="5.65689">
        <ele>440</ele>
        <time>2014-01-25T09:26:05Z</time>
      </trkpt>
      <trkpt lat="43.40931" lon="5.65677">
        <ele>440</ele>
        <time>2014-01-25T09:26:14Z</time>
      </trkpt>
      <trkpt lat="43.40924" lon="5.65667">
        <ele>440</ele>
        <time>2014-01-25T09:26:24Z</time>
      </trkpt>
      <trkpt lat="43.40916" lon="5.65658">
        <ele>440</ele>
        <time>2014-01-25T09:26:33Z</time>
      </trkpt>
      <trkpt lat="43.40905" lon="5.65649">
        <ele>440</ele>
        <time>2014-01-25T09:26:44Z</time>
      </trkpt>
      <trkpt lat="43.40896" lon="5.65639">
        <ele>440</ele>
        <time>2014-01-25T09:26:54Z</time>
      </trkpt>
      <trkpt lat="43.40887" lon="5.65633">
        <ele>440</ele>
        <time>2014-01-25T09:27:03Z</time>
      </trkpt>
      <trkpt lat="43.40876" lon="5.65622">
        <ele>441</ele>
        <time>2014-01-25T09:27:13Z</time>
      </trkpt>
      <trkpt lat="43.40868" lon="5.65612">
        <ele>441</ele>
        <time>2014-01-25T09:27:23Z</time>
      </trkpt>
      <trkpt lat="43.40863" lon="5.65599">
        <ele>444</ele>
        <time>2014-01-25T09:27:33Z</time>
      </trkpt>
      <trkpt lat="43.40863" lon="5.65584">
        <ele>444</ele>
        <time>2014-01-25T09:27:42Z</time>
      </trkpt>
      <trkpt lat="43.40862" lon="5.6557">
        <ele>445</ele>
        <time>2014-01-25T09:27:51Z</time>
      </trkpt>
      <trkpt lat="43.40859" lon="5.65557">
        <ele>445</ele>
        <time>2014-01-25T09:28:01Z</time>
      </trkpt>
      <trkpt lat="43.40854" lon="5.65543">
        <ele>448</ele>
        <time>2014-01-25T09:28:11Z</time>
      </trkpt>
      <trkpt lat="43.40847" lon="5.65531">
        <ele>452</ele>
        <time>2014-01-25T09:28:20Z</time>
      </trkpt>
      <trkpt lat="43.4084" lon="5.65521">
        <ele>452</ele>
        <time>2014-01-25T09:28:30Z</time>
      </trkpt>
      <trkpt lat="43.40832" lon="5.65514">
        <ele>452</ele>
        <time>2014-01-25T09:28:39Z</time>
      </trkpt>
      <trkpt lat="43.40823" lon="5.65507">
        <ele>451</ele>
        <time>2014-01-25T09:28:48Z</time>
      </trkpt>
      <trkpt lat="43.40814" lon="5.65499">
        <ele>451</ele>
        <time>2014-01-25T09:28:57Z</time>
      </trkpt>
      <trkpt lat="43.40804" lon="5.65492">
        <ele>451</ele>
        <time>2014-01-25T09:29:07Z</time>
      </trkpt>
      <trkpt lat="43.40794" lon="5.6549">
        <ele>451</ele>
        <time>2014-01-25T09:29:16Z</time>
      </trkpt>
      <trkpt lat="43.40783" lon="5.65491">
        <ele>451</ele>
        <time>2014-01-25T09:29:26Z</time>
      </trkpt>
      <trkpt lat="43.40773" lon="5.6549">
        <ele>451</ele>
        <time>2014-01-25T09:29:35Z</time>
      </trkpt>
      <trkpt lat="43.40763" lon="5.65491">
        <ele>451</ele>
        <time>2014-01-25T09:29:45Z</time>
      </trkpt>
      <trkpt lat="43.40752" lon="5.65487">
        <ele>451</ele>
        <time>2014-01-25T09:29:54Z</time>
      </trkpt>
      <trkpt lat="43.40742" lon="5.65484">
        <ele>451</ele>
        <time>2014-01-25T09:30:03Z</time>
      </trkpt>
      <trkpt lat="43.40729" lon="5.65477">
        <ele>451</ele>
        <time>2014-01-25T09:30:14Z</time>
      </trkpt>
      <trkpt lat="43.4072" lon="5.65467">
        <ele>451</ele>
        <time>2014-01-25T09:30:24Z</time>
      </trkpt>
      <trkpt lat="43.40717" lon="5.65458">
        <ele>451</ele>
        <time>2014-01-25T09:30:33Z</time>
      </trkpt>
      <trkpt lat="43.40717" lon="5.65444">
        <ele>456</ele>
        <time>2014-01-25T09:30:42Z</time>
      </trkpt>
      <trkpt lat="43.40725" lon="5.65437">
        <ele>456</ele>
        <time>2014-01-25T09:30:51Z</time>
      </trkpt>
      <trkpt lat="43.40733" lon="5.6543">
        <ele>456</ele>
        <time>2014-01-25T09:31:00Z</time>
      </trkpt>
      <trkpt lat="43.40744" lon="5.65425">
        <ele>456</ele>
        <time>2014-01-25T09:31:09Z</time>
      </trkpt>
      <trkpt lat="43.40754" lon="5.65421">
        <ele>456</ele>
        <time>2014-01-25T09:31:19Z</time>
      </trkpt>
      <trkpt lat="43.40764" lon="5.65418">
        <ele>456</ele>
        <time>2014-01-25T09:31:28Z</time>
      </trkpt>
      <trkpt lat="43.40776" lon="5.65414">
        <ele>456</ele>
        <time>2014-01-25T09:31:38Z</time>
      </trkpt>
      <trkpt lat="43.40788" lon="5.65412">
        <ele>456</ele>
        <time>2014-01-25T09:31:47Z</time>
      </trkpt>
      <trkpt lat="43.40798" lon="5.65411">
        <ele>456</ele>
        <time>2014-01-25T09:31:56Z</time>
      </trkpt>
      <trkpt lat="43.4081" lon="5.65411">
        <ele>456</ele>
        <time>2014-01-25T09:32:05Z</time>
      </trkpt>
      <trkpt lat="43.40821" lon="5.65413">
        <ele>455</ele>
        <time>2014-01-25T09:32:14Z</time>
      </trkpt>
      <trkpt lat="43.40833" lon="5.65415">
        <ele>455</ele>
        <time>2014-01-25T09:32:23Z</time>
      </trkpt>
      <trkpt lat="43.40844" lon="5.65419">
        <ele>455</ele>
        <time>2014-01-25T09:32:32Z</time>
      </trkpt>
      <trkpt lat="43.40855" lon="5.65421">
        <ele>455</ele>
        <time>2014-01-25T09:32:41Z</time>
      </trkpt>
      <trkpt lat="43.40861" lon="5.65422">
        <ele>455</ele>
        <time>2014-01-25T09:32:56Z</time>
      </trkpt>
      <trkpt lat="43.40866" lon="5.65417">
        <ele>455</ele>
        <time>2014-01-25T09:33:05Z</time>
      </trkpt>
      <trkpt lat="43.40873" lon="5.65412">
        <ele>455</ele>
        <time>2014-01-25T09:33:15Z</time>
      </trkpt>
      <trkpt lat="43.40875" lon="5.65411">
        <ele>455</ele>
        <time>2014-01-25T09:33:28Z</time>
      </trkpt>
      <trkpt lat="43.40884" lon="5.65404">
        <ele>456</ele>
        <time>2014-01-25T09:33:38Z</time>
      </trkpt>
      <trkpt lat="43.4089" lon="5.65391">
        <ele>457</ele>
        <time>2014-01-25T09:33:47Z</time>
      </trkpt>
      <trkpt lat="43.40892" lon="5.65379">
        <ele>458</ele>
        <time>2014-01-25T09:33:56Z</time>
      </trkpt>
      <trkpt lat="43.40893" lon="5.65366">
        <ele>460</ele>
        <time>2014-01-25T09:34:05Z</time>
      </trkpt>
      <trkpt lat="43.40891" lon="5.65352">
        <ele>461</ele>
        <time>2014-01-25T09:34:14Z</time>
      </trkpt>
      <trkpt lat="43.40889" lon="5.65339">
        <ele>462</ele>
        <time>2014-01-25T09:34:23Z</time>
      </trkpt>
      <trkpt lat="43.40886" lon="5.65326">
        <ele>463</ele>
        <time>2014-01-25T09:34:32Z</time>
      </trkpt>
      <trkpt lat="43.40881" lon="5.65314">
        <ele>464</ele>
        <time>2014-01-25T09:34:41Z</time>
      </trkpt>
      <trkpt lat="43.40877" lon="5.65302">
        <ele>465</ele>
        <time>2014-01-25T09:34:50Z</time>
      </trkpt>
      <trkpt lat="43.40873" lon="5.6529">
        <ele>466</ele>
        <time>2014-01-25T09:35:00Z</time>
      </trkpt>
      <trkpt lat="43.40868" lon="5.65278">
        <ele>467</ele>
        <time>2014-01-25T09:35:09Z</time>
      </trkpt>
      <trkpt lat="43.40862" lon="5.65266">
        <ele>469</ele>
        <time>2014-01-25T09:35:19Z</time>
      </trkpt>
      <trkpt lat="43.40855" lon="5.65253">
        <ele>471</ele>
        <time>2014-01-25T09:35:29Z</time>
      </trkpt>
      <trkpt lat="43.40849" lon="5.65241">
        <ele>471</ele>
        <time>2014-01-25T09:35:39Z</time>
      </trkpt>
      <trkpt lat="43.40844" lon="5.65228">
        <ele>471</ele>
        <time>2014-01-25T09:35:49Z</time>
      </trkpt>
      <trkpt lat="43.40836" lon="5.65217">
        <ele>473</ele>
        <time>2014-01-25T09:35:58Z</time>
      </trkpt>
      <trkpt lat="43.40831" lon="5.65213">
        <ele>475</ele>
        <time>2014-01-25T09:36:10Z</time>
      </trkpt>
      <trkpt lat="43.40829" lon="5.65215">
        <ele>475</ele>
        <time>2014-01-25T09:36:20Z</time>
      </trkpt>
      <trkpt lat="43.40831" lon="5.65208">
        <ele>476</ele>
        <time>2014-01-25T09:36:29Z</time>
      </trkpt>
      <trkpt lat="43.40829" lon="5.65194">
        <ele>476</ele>
        <time>2014-01-25T09:36:38Z</time>
      </trkpt>
      <trkpt lat="43.40828" lon="5.65176">
        <ele>476</ele>
        <time>2014-01-25T09:36:47Z</time>
      </trkpt>
      <trkpt lat="43.40831" lon="5.6516">
        <ele>476</ele>
        <time>2014-01-25T09:36:56Z</time>
      </trkpt>
      <trkpt lat="43.40835" lon="5.65146">
        <ele>476</ele>
        <time>2014-01-25T09:37:05Z</time>
      </trkpt>
      <trkpt lat="43.40836" lon="5.65132">
        <ele>476</ele>
        <time>2014-01-25T09:37:14Z</time>
      </trkpt>
      <trkpt lat="43.40838" lon="5.65119">
        <ele>476</ele>
        <time>2014-01-25T09:37:23Z</time>
      </trkpt>
      <trkpt lat="43.4084" lon="5.65105">
        <ele>476</ele>
        <time>2014-01-25T09:37:32Z</time>
      </trkpt>
      <trkpt lat="43.4084" lon="5.65091">
        <ele>476</ele>
        <time>2014-01-25T09:37:41Z</time>
      </trkpt>
      <trkpt lat="43.40838" lon="5.65077">
        <ele>477</ele>
        <time>2014-01-25T09:37:50Z</time>
      </trkpt>
      <trkpt lat="43.40837" lon="5.65065">
        <ele>478</ele>
        <time>2014-01-25T09:37:59Z</time>
      </trkpt>
      <trkpt lat="43.40834" lon="5.6505">
        <ele>480</ele>
        <time>2014-01-25T09:38:09Z</time>
      </trkpt>
      <trkpt lat="43.40831" lon="5.65034">
        <ele>480</ele>
        <time>2014-01-25T09:38:19Z</time>
      </trkpt>
      <trkpt lat="43.40828" lon="5.6502">
        <ele>482</ele>
        <time>2014-01-25T09:38:28Z</time>
      </trkpt>
      <trkpt lat="43.40824" lon="5.65008">
        <ele>483</ele>
        <time>2014-01-25T09:38:37Z</time>
      </trkpt>
      <trkpt lat="43.40819" lon="5.64994">
        <ele>483</ele>
        <time>2014-01-25T09:38:47Z</time>
      </trkpt>
      <trkpt lat="43.40815" lon="5.64982">
        <ele>483</ele>
        <time>2014-01-25T09:38:56Z</time>
      </trkpt>
      <trkpt lat="43.4081" lon="5.6497">
        <ele>483</ele>
        <time>2014-01-25T09:39:05Z</time>
      </trkpt>
      <trkpt lat="43.40805" lon="5.64956">
        <ele>485</ele>
        <time>2014-01-25T09:39:15Z</time>
      </trkpt>
      <trkpt lat="43.40803" lon="5.64943">
        <ele>485</ele>
        <time>2014-01-25T09:39:24Z</time>
      </trkpt>
      <trkpt lat="43.408" lon="5.64931">
        <ele>487</ele>
        <time>2014-01-25T09:39:33Z</time>
      </trkpt>
      <trkpt lat="43.40796" lon="5.64917">
        <ele>488</ele>
        <time>2014-01-25T09:39:42Z</time>
      </trkpt>
      <trkpt lat="43.40793" lon="5.64902">
        <ele>488</ele>
        <time>2014-01-25T09:39:52Z</time>
      </trkpt>
      <trkpt lat="43.40791" lon="5.64888">
        <ele>488</ele>
        <time>2014-01-25T09:40:01Z</time>
      </trkpt>
      <trkpt lat="43.40788" lon="5.64874">
        <ele>490</ele>
        <time>2014-01-25T09:40:11Z</time>
      </trkpt>
      <trkpt lat="43.40785" lon="5.64861">
        <ele>491</ele>
        <time>2014-01-25T09:40:21Z</time>
      </trkpt>
      <trkpt lat="43.40783" lon="5.64848">
        <ele>491</ele>
        <time>2014-01-25T09:40:31Z</time>
      </trkpt>
      <trkpt lat="43.40779" lon="5.64836">
        <ele>491</ele>
        <time>2014-01-25T09:40:40Z</time>
      </trkpt>
      <trkpt lat="43.40776" lon="5.64823">
        <ele>492</ele>
        <time>2014-01-25T09:40:49Z</time>
      </trkpt>
      <trkpt lat="43.40771" lon="5.64808">
        <ele>494</ele>
        <time>2014-01-25T09:41:00Z</time>
      </trkpt>
      <trkpt lat="43.40769" lon="5.64796">
        <ele>495</ele>
        <time>2014-01-25T09:41:09Z</time>
      </trkpt>
      <trkpt lat="43.40766" lon="5.64782">
        <ele>496</ele>
        <time>2014-01-25T09:41:18Z</time>
      </trkpt>
      <trkpt lat="43.40763" lon="5.6477">
        <ele>496</ele>
        <time>2014-01-25T09:41:27Z</time>
      </trkpt>
      <trkpt lat="43.4076" lon="5.64756">
        <ele>497</ele>
        <time>2014-01-25T09:41:36Z</time>
      </trkpt>
      <trkpt lat="43.40757" lon="5.64743">
        <ele>497</ele>
        <time>2014-01-25T09:41:45Z</time>
      </trkpt>
      <trkpt lat="43.40755" lon="5.6473">
        <ele>498</ele>
        <time>2014-01-25T09:41:54Z</time>
      </trkpt>
      <trkpt lat="43.40752" lon="5.64715">
        <ele>498</ele>
        <time>2014-01-25T09:42:04Z</time>
      </trkpt>
      <trkpt lat="43.40748" lon="5.64701">
        <ele>498</ele>
        <time>2014-01-25T09:42:13Z</time>
      </trkpt>
      <trkpt lat="43.40745" lon="5.64687">
        <ele>499</ele>
        <time>2014-01-25T09:42:22Z</time>
      </trkpt>
      <trkpt lat="43.40741" lon="5.64673">
        <ele>499</ele>
        <time>2014-01-25T09:42:32Z</time>
      </trkpt>
      <trkpt lat="43.40736" lon="5.64656">
        <ele>500</ele>
        <time>2014-01-25T09:42:42Z</time>
      </trkpt>
      <trkpt lat="43.40733" lon="5.64642">
        <ele>501</ele>
        <time>2014-01-25T09:42:51Z</time>
      </trkpt>
      <trkpt lat="43.40728" lon="5.6463">
        <ele>501</ele>
        <time>2014-01-25T09:43:00Z</time>
      </trkpt>
      <trkpt lat="43.40723" lon="5.64618">
        <ele>501</ele>
        <time>2014-01-25T09:43:09Z</time>
      </trkpt>
      <trkpt lat="43.40715" lon="5.64609">
        <ele>501</ele>
        <time>2014-01-25T09:43:19Z</time>
      </trkpt>
      <trkpt lat="43.40707" lon="5.64607">
        <ele>501</ele>
        <time>2014-01-25T09:43:30Z</time>
      </trkpt>
      <trkpt lat="43.40701" lon="5.64599">
        <ele>501</ele>
        <time>2014-01-25T09:43:39Z</time>
      </trkpt>
      <trkpt lat="43.40693" lon="5.64592">
        <ele>501</ele>
        <time>2014-01-25T09:43:49Z</time>
      </trkpt>
      <trkpt lat="43.40683" lon="5.64586">
        <ele>500</ele>
        <time>2014-01-25T09:43:59Z</time>
      </trkpt>
      <trkpt lat="43.40674" lon="5.64581">
        <ele>500</ele>
        <time>2014-01-25T09:44:08Z</time>
      </trkpt>
      <trkpt lat="43.40664" lon="5.64577">
        <ele>499</ele>
        <time>2014-01-25T09:44:18Z</time>
      </trkpt>
      <trkpt lat="43.40654" lon="5.64575">
        <ele>498</ele>
        <time>2014-01-25T09:44:27Z</time>
      </trkpt>
      <trkpt lat="43.40644" lon="5.64573">
        <ele>496</ele>
        <time>2014-01-25T09:44:37Z</time>
      </trkpt>
      <trkpt lat="43.40633" lon="5.6458">
        <ele>496</ele>
        <time>2014-01-25T09:44:46Z</time>
      </trkpt>
      <trkpt lat="43.40626" lon="5.64591">
        <ele>496</ele>
        <time>2014-01-25T09:44:55Z</time>
      </trkpt>
      <trkpt lat="43.4062" lon="5.64602">
        <ele>496</ele>
        <time>2014-01-25T09:45:04Z</time>
      </trkpt>
      <trkpt lat="43.40616" lon="5.64611">
        <ele>496</ele>
        <time>2014-01-25T09:45:13Z</time>
      </trkpt>
      <trkpt lat="43.40611" lon="5.64622">
        <ele>495</ele>
        <time>2014-01-25T09:45:22Z</time>
      </trkpt>
      <trkpt lat="43.40604" lon="5.64633">
        <ele>494</ele>
        <time>2014-01-25T09:45:31Z</time>
      </trkpt>
      <trkpt lat="43.40599" lon="5.64625">
        <ele>493</ele>
        <time>2014-01-25T09:45:40Z</time>
      </trkpt>
      <trkpt lat="43.40599" lon="5.64609">
        <ele>492</ele>
        <time>2014-01-25T09:45:50Z</time>
      </trkpt>
      <trkpt lat="43.40595" lon="5.64598">
        <ele>491</ele>
        <time>2014-01-25T09:46:00Z</time>
      </trkpt>
      <trkpt lat="43.40584" lon="5.6459">
        <ele>491</ele>
        <time>2014-01-25T09:46:09Z</time>
      </trkpt>
      <trkpt lat="43.40574" lon="5.64579">
        <ele>491</ele>
        <time>2014-01-25T09:46:18Z</time>
      </trkpt>
      <trkpt lat="43.40575" lon="5.64567">
        <ele>490</ele>
        <time>2014-01-25T09:46:27Z</time>
      </trkpt>
      <trkpt lat="43.40579" lon="5.64554">
        <ele>489</ele>
        <time>2014-01-25T09:46:36Z</time>
      </trkpt>
      <trkpt lat="43.40583" lon="5.6454">
        <ele>488</ele>
        <time>2014-01-25T09:46:45Z</time>
      </trkpt>
      <trkpt lat="43.40587" lon="5.64528">
        <ele>488</ele>
        <time>2014-01-25T09:46:54Z</time>
      </trkpt>
      <trkpt lat="43.40588" lon="5.64513">
        <ele>488</ele>
        <time>2014-01-25T09:47:03Z</time>
      </trkpt>
      <trkpt lat="43.4059" lon="5.64497">
        <ele>488</ele>
        <time>2014-01-25T09:47:12Z</time>
      </trkpt>
      <trkpt lat="43.4059" lon="5.64482">
        <ele>487</ele>
        <time>2014-01-25T09:47:21Z</time>
      </trkpt>
      <trkpt lat="43.4059" lon="5.64469">
        <ele>487</ele>
        <time>2014-01-25T09:47:30Z</time>
      </trkpt>
      <trkpt lat="43.40583" lon="5.64454">
        <ele>487</ele>
        <time>2014-01-25T09:47:40Z</time>
      </trkpt>
      <trkpt lat="43.40578" lon="5.64444">
        <ele>487</ele>
        <time>2014-01-25T09:47:49Z</time>
      </trkpt>
      <trkpt lat="43.40572" lon="5.64433">
        <ele>487</ele>
        <time>2014-01-25T09:47:58Z</time>
      </trkpt>
      <trkpt lat="43.40567" lon="5.64425">
        <ele>487</ele>
        <time>2014-01-25T09:48:07Z</time>
      </trkpt>
      <trkpt lat="43.40559" lon="5.64417">
        <ele>487</ele>
        <time>2014-01-25T09:48:17Z</time>
      </trkpt>
      <trkpt lat="43.4055" lon="5.64408">
        <ele>487</ele>
        <time>2014-01-25T09:48:26Z</time>
      </trkpt>
      <trkpt lat="43.40539" lon="5.64403">
        <ele>487</ele>
        <time>2014-01-25T09:48:35Z</time>
      </trkpt>
      <trkpt lat="43.40529" lon="5.64407">
        <ele>487</ele>
        <time>2014-01-25T09:48:44Z</time>
      </trkpt>
      <trkpt lat="43.40519" lon="5.64411">
        <ele>487</ele>
        <time>2014-01-25T09:48:53Z</time>
      </trkpt>
      <trkpt lat="43.40509" lon="5.64411">
        <ele>488</ele>
        <time>2014-01-25T09:49:03Z</time>
      </trkpt>
      <trkpt lat="43.40501" lon="5.64402">
        <ele>489</ele>
        <time>2014-01-25T09:49:13Z</time>
      </trkpt>
      <trkpt lat="43.40501" lon="5.64388">
        <ele>490</ele>
        <time>2014-01-25T09:49:22Z</time>
      </trkpt>
      <trkpt lat="43.40499" lon="5.64373">
        <ele>490</ele>
        <time>2014-01-25T09:49:32Z</time>
      </trkpt>
      <trkpt lat="43.40496" lon="5.6436">
        <ele>490</ele>
        <time>2014-01-25T09:49:41Z</time>
      </trkpt>
      <trkpt lat="43.40495" lon="5.64345">
        <ele>490</ele>
        <time>2014-01-25T09:49:50Z</time>
      </trkpt>
      <trkpt lat="43.40493" lon="5.64331">
        <ele>491</ele>
        <time>2014-01-25T09:49:59Z</time>
      </trkpt>
      <trkpt lat="43.40491" lon="5.64317">
        <ele>491</ele>
        <time>2014-01-25T09:50:08Z</time>
      </trkpt>
      <trkpt lat="43.40489" lon="5.643">
        <ele>491</ele>
        <time>2014-01-25T09:50:18Z</time>
      </trkpt>
      <trkpt lat="43.40488" lon="5.64286">
        <ele>492</ele>
        <time>2014-01-25T09:50:27Z</time>
      </trkpt>
      <trkpt lat="43.40487" lon="5.6427">
        <ele>492</ele>
        <time>2014-01-25T09:50:36Z</time>
      </trkpt>
      <trkpt lat="43.40485" lon="5.64256">
        <ele>494</ele>
        <time>2014-01-25T09:50:45Z</time>
      </trkpt>
      <trkpt lat="43.40484" lon="5.64241">
        <ele>494</ele>
        <time>2014-01-25T09:50:54Z</time>
      </trkpt>
      <trkpt lat="43.40485" lon="5.64226">
        <ele>494</ele>
        <time>2014-01-25T09:51:03Z</time>
      </trkpt>
      <trkpt lat="43.40489" lon="5.64211">
        <ele>494</ele>
        <time>2014-01-25T09:51:12Z</time>
      </trkpt>
      <trkpt lat="43.40495" lon="5.64198">
        <ele>494</ele>
        <time>2014-01-25T09:51:21Z</time>
      </trkpt>
      <trkpt lat="43.405" lon="5.64183">
        <ele>493</ele>
        <time>2014-01-25T09:51:31Z</time>
      </trkpt>
      <trkpt lat="43.40502" lon="5.64167">
        <ele>492</ele>
        <time>2014-01-25T09:51:40Z</time>
      </trkpt>
      <trkpt lat="43.40503" lon="5.64151">
        <ele>492</ele>
        <time>2014-01-25T09:51:49Z</time>
      </trkpt>
      <trkpt lat="43.40506" lon="5.64136">
        <ele>490</ele>
        <time>2014-01-25T09:51:59Z</time>
      </trkpt>
      <trkpt lat="43.40507" lon="5.6412">
        <ele>490</ele>
        <time>2014-01-25T09:52:08Z</time>
      </trkpt>
      <trkpt lat="43.40508" lon="5.64106">
        <ele>490</ele>
        <time>2014-01-25T09:52:17Z</time>
      </trkpt>
      <trkpt lat="43.40507" lon="5.6409">
        <ele>490</ele>
        <time>2014-01-25T09:52:26Z</time>
      </trkpt>
      <trkpt lat="43.40505" lon="5.64075">
        <ele>490</ele>
        <time>2014-01-25T09:52:35Z</time>
      </trkpt>
      <trkpt lat="43.40501" lon="5.64059">
        <ele>490</ele>
        <time>2014-01-25T09:52:44Z</time>
      </trkpt>
      <trkpt lat="43.40499" lon="5.64044">
        <ele>490</ele>
        <time>2014-01-25T09:52:53Z</time>
      </trkpt>
      <trkpt lat="43.40496" lon="5.64031">
        <ele>490</ele>
        <time>2014-01-25T09:53:02Z</time>
      </trkpt>
      <trkpt lat="43.40492" lon="5.64014">
        <ele>490</ele>
        <time>2014-01-25T09:53:11Z</time>
      </trkpt>
      <trkpt lat="43.40489" lon="5.64001">
        <ele>490</ele>
        <time>2014-01-25T09:53:20Z</time>
      </trkpt>
      <trkpt lat="43.40485" lon="5.63989">
        <ele>490</ele>
        <time>2014-01-25T09:53:29Z</time>
      </trkpt>
      <trkpt lat="43.40478" lon="5.63978">
        <ele>490</ele>
        <time>2014-01-25T09:53:39Z</time>
      </trkpt>
      <trkpt lat="43.4047" lon="5.6397">
        <ele>490</ele>
        <time>2014-01-25T09:53:49Z</time>
      </trkpt>
      <trkpt lat="43.40461" lon="5.6396">
        <ele>490</ele>
        <time>2014-01-25T09:53:59Z</time>
      </trkpt>
      <trkpt lat="43.40451" lon="5.63956">
        <ele>490</ele>
        <time>2014-01-25T09:54:09Z</time>
      </trkpt>
      <trkpt lat="43.40448" lon="5.63955">
        <ele>490</ele>
        <time>2014-01-25T09:54:24Z</time>
      </trkpt>
      <trkpt lat="43.40447" lon="5.63955">
        <ele>490</ele>
        <time>2014-01-25T09:54:36Z</time>
      </trkpt>
      <trkpt lat="43.40446" lon="5.63949">
        <ele>490</ele>
        <time>2014-01-25T09:54:46Z</time>
      </trkpt>
      <trkpt lat="43.40439" lon="5.63939">
        <ele>491</ele>
        <time>2014-01-25T09:54:55Z</time>
      </trkpt>
      <trkpt lat="43.40432" lon="5.63931">
        <ele>491</ele>
        <time>2014-01-25T09:55:04Z</time>
      </trkpt>
      <trkpt lat="43.40424" lon="5.63924">
        <ele>493</ele>
        <time>2014-01-25T09:55:13Z</time>
      </trkpt>
      <trkpt lat="43.40414" lon="5.63922">
        <ele>493</ele>
        <time>2014-01-25T09:55:22Z</time>
      </trkpt>
      <trkpt lat="43.40403" lon="5.63926">
        <ele>494</ele>
        <time>2014-01-25T09:55:31Z</time>
      </trkpt>
      <trkpt lat="43.40394" lon="5.63936">
        <ele>496</ele>
        <time>2014-01-25T09:55:40Z</time>
      </trkpt>
      <trkpt lat="43.40388" lon="5.63946">
        <ele>496</ele>
        <time>2014-01-25T09:55:49Z</time>
      </trkpt>
      <trkpt lat="43.40381" lon="5.63956">
        <ele>497</ele>
        <time>2014-01-25T09:55:58Z</time>
      </trkpt>
      <trkpt lat="43.40373" lon="5.63968">
        <ele>499</ele>
        <time>2014-01-25T09:56:08Z</time>
      </trkpt>
      <trkpt lat="43.40365" lon="5.63979">
        <ele>501</ele>
        <time>2014-01-25T09:56:18Z</time>
      </trkpt>
      <trkpt lat="43.40358" lon="5.6399">
        <ele>502</ele>
        <time>2014-01-25T09:56:27Z</time>
      </trkpt>
      <trkpt lat="43.40349" lon="5.64003">
        <ele>503</ele>
        <time>2014-01-25T09:56:38Z</time>
      </trkpt>
      <trkpt lat="43.4034" lon="5.64014">
        <ele>505</ele>
        <time>2014-01-25T09:56:48Z</time>
      </trkpt>
      <trkpt lat="43.40331" lon="5.64029">
        <ele>505</ele>
        <time>2014-01-25T09:56:58Z</time>
      </trkpt>
      <trkpt lat="43.40323" lon="5.64039">
        <ele>505</ele>
        <time>2014-01-25T09:57:07Z</time>
      </trkpt>
      <trkpt lat="43.40314" lon="5.6405">
        <ele>505</ele>
        <time>2014-01-25T09:57:17Z</time>
      </trkpt>
      <trkpt lat="43.40307" lon="5.64061">
        <ele>505</ele>
        <time>2014-01-25T09:57:27Z</time>
      </trkpt>
      <trkpt lat="43.40299" lon="5.64073">
        <ele>505</ele>
        <time>2014-01-25T09:57:37Z</time>
      </trkpt>
      <trkpt lat="43.40292" lon="5.64087">
        <ele>505</ele>
        <time>2014-01-25T09:57:47Z</time>
      </trkpt>
      <trkpt lat="43.40291" lon="5.64089">
        <ele>505</ele>
        <time>2014-01-25T09:58:00Z</time>
      </trkpt>
      <trkpt lat="43.40285" lon="5.64095">
        <ele>505</ele>
        <time>2014-01-25T09:58:09Z</time>
      </trkpt>
      <trkpt lat="43.40277" lon="5.64103">
        <ele>505</ele>
        <time>2014-01-25T09:58:18Z</time>
      </trkpt>
      <trkpt lat="43.40268" lon="5.64113">
        <ele>505</ele>
        <time>2014-01-25T09:58:28Z</time>
      </trkpt>
      <trkpt lat="43.4026" lon="5.64125">
        <ele>505</ele>
        <time>2014-01-25T09:58:38Z</time>
      </trkpt>
      <trkpt lat="43.40252" lon="5.64135">
        <ele>505</ele>
        <time>2014-01-25T09:58:48Z</time>
      </trkpt>
      <trkpt lat="43.40244" lon="5.64145">
        <ele>505</ele>
        <time>2014-01-25T09:58:58Z</time>
      </trkpt>
      <trkpt lat="43.40237" lon="5.64155">
        <ele>506</ele>
        <time>2014-01-25T09:59:08Z</time>
      </trkpt>
      <trkpt lat="43.4023" lon="5.64164">
        <ele>506</ele>
        <time>2014-01-25T09:59:17Z</time>
      </trkpt>
      <trkpt lat="43.40222" lon="5.64175">
        <ele>506</ele>
        <time>2014-01-25T09:59:26Z</time>
      </trkpt>
      <trkpt lat="43.40215" lon="5.64186">
        <ele>507</ele>
        <time>2014-01-25T09:59:36Z</time>
      </trkpt>
      <trkpt lat="43.40207" lon="5.64198">
        <ele>508</ele>
        <time>2014-01-25T09:59:46Z</time>
      </trkpt>
      <trkpt lat="43.402" lon="5.64208">
        <ele>511</ele>
        <time>2014-01-25T09:59:56Z</time>
      </trkpt>
      <trkpt lat="43.40192" lon="5.64219">
        <ele>512</ele>
        <time>2014-01-25T10:00:05Z</time>
      </trkpt>
      <trkpt lat="43.40183" lon="5.6423">
        <ele>513</ele>
        <time>2014-01-25T10:00:15Z</time>
      </trkpt>
      <trkpt lat="43.40176" lon="5.6424">
        <ele>513</ele>
        <time>2014-01-25T10:00:25Z</time>
      </trkpt>
      <trkpt lat="43.40167" lon="5.64247">
        <ele>514</ele>
        <time>2014-01-25T10:00:35Z</time>
      </trkpt>
      <trkpt lat="43.40158" lon="5.64257">
        <ele>514</ele>
        <time>2014-01-25T10:00:45Z</time>
      </trkpt>
      <trkpt lat="43.40151" lon="5.64266">
        <ele>514</ele>
        <time>2014-01-25T10:00:55Z</time>
      </trkpt>
      <trkpt lat="43.40143" lon="5.64277">
        <ele>514</ele>
        <time>2014-01-25T10:01:05Z</time>
      </trkpt>
      <trkpt lat="43.40136" lon="5.64287">
        <ele>515</ele>
        <time>2014-01-25T10:01:15Z</time>
      </trkpt>
      <trkpt lat="43.40128" lon="5.64297">
        <ele>515</ele>
        <time>2014-01-25T10:01:25Z</time>
      </trkpt>
      <trkpt lat="43.40121" lon="5.64307">
        <ele>515</ele>
        <time>2014-01-25T10:01:35Z</time>
      </trkpt>
      <trkpt lat="43.40115" lon="5.64316">
        <ele>515</ele>
        <time>2014-01-25T10:01:44Z</time>
      </trkpt>
      <trkpt lat="43.40107" lon="5.64326">
        <ele>517</ele>
        <time>2014-01-25T10:01:54Z</time>
      </trkpt>
      <trkpt lat="43.40101" lon="5.64334">
        <ele>517</ele>
        <time>2014-01-25T10:02:03Z</time>
      </trkpt>
      <trkpt lat="43.40095" lon="5.64344">
        <ele>517</ele>
        <time>2014-01-25T10:02:13Z</time>
      </trkpt>
      <trkpt lat="43.40088" lon="5.64354">
        <ele>517</ele>
        <time>2014-01-25T10:02:22Z</time>
      </trkpt>
      <trkpt lat="43.4008" lon="5.64364">
        <ele>518</ele>
        <time>2014-01-25T10:02:32Z</time>
      </trkpt>
      <trkpt lat="43.40073" lon="5.64376">
        <ele>518</ele>
        <time>2014-01-25T10:02:42Z</time>
      </trkpt>
      <trkpt lat="43.40066" lon="5.64388">
        <ele>519</ele>
        <time>2014-01-25T10:02:52Z</time>
      </trkpt>
      <trkpt lat="43.40059" lon="5.644">
        <ele>519</ele>
        <time>2014-01-25T10:03:02Z</time>
      </trkpt>
      <trkpt lat="43.40055" lon="5.64412">
        <ele>520</ele>
        <time>2014-01-25T10:03:11Z</time>
      </trkpt>
      <trkpt lat="43.40053" lon="5.64425">
        <ele>520</ele>
        <time>2014-01-25T10:03:20Z</time>
      </trkpt>
      <trkpt lat="43.40054" lon="5.64435">
        <ele>520</ele>
        <time>2014-01-25T10:03:29Z</time>
      </trkpt>
      <trkpt lat="43.40055" lon="5.64448">
        <ele>521</ele>
        <time>2014-01-25T10:03:38Z</time>
      </trkpt>
      <trkpt lat="43.40056" lon="5.64463">
        <ele>521</ele>
        <time>2014-01-25T10:03:48Z</time>
      </trkpt>
      <trkpt lat="43.40057" lon="5.64476">
        <ele>521</ele>
        <time>2014-01-25T10:03:57Z</time>
      </trkpt>
      <trkpt lat="43.40056" lon="5.64488">
        <ele>522</ele>
        <time>2014-01-25T10:04:06Z</time>
      </trkpt>
      <trkpt lat="43.40055" lon="5.64503">
        <ele>522</ele>
        <time>2014-01-25T10:04:16Z</time>
      </trkpt>
      <trkpt lat="43.40055" lon="5.64515">
        <ele>523</ele>
        <time>2014-01-25T10:04:25Z</time>
      </trkpt>
      <trkpt lat="43.40054" lon="5.64528">
        <ele>524</ele>
        <time>2014-01-25T10:04:34Z</time>
      </trkpt>
      <trkpt lat="43.40054" lon="5.64542">
        <ele>525</ele>
        <time>2014-01-25T10:04:43Z</time>
      </trkpt>
      <trkpt lat="43.40054" lon="5.64556">
        <ele>525</ele>
        <time>2014-01-25T10:04:53Z</time>
      </trkpt>
      <trkpt lat="43.40055" lon="5.6457">
        <ele>526</ele>
        <time>2014-01-25T10:05:02Z</time>
      </trkpt>
      <trkpt lat="43.40056" lon="5.64584">
        <ele>526</ele>
        <time>2014-01-25T10:05:11Z</time>
      </trkpt>
      <trkpt lat="43.40056" lon="5.64598">
        <ele>526</ele>
        <time>2014-01-25T10:05:20Z</time>
      </trkpt>
      <trkpt lat="43.40057" lon="5.64612">
        <ele>526</ele>
        <time>2014-01-25T10:05:29Z</time>
      </trkpt>
      <trkpt lat="43.40057" lon="5.64627">
        <ele>527</ele>
        <time>2014-01-25T10:05:39Z</time>
      </trkpt>
      <trkpt lat="43.40059" lon="5.64639">
        <ele>528</ele>
        <time>2014-01-25T10:05:48Z</time>
      </trkpt>
      <trkpt lat="43.40061" lon="5.64653">
        <ele>528</ele>
        <time>2014-01-25T10:05:58Z</time>
      </trkpt>
      <trkpt lat="43.40062" lon="5.6467">
        <ele>531</ele>
        <time>2014-01-25T10:06:08Z</time>
      </trkpt>
      <trkpt lat="43.40064" lon="5.64684">
        <ele>532</ele>
        <time>2014-01-25T10:06:18Z</time>
      </trkpt>
      <trkpt lat="43.40063" lon="5.64698">
        <ele>533</ele>
        <time>2014-01-25T10:06:27Z</time>
      </trkpt>
      <trkpt lat="43.40062" lon="5.64712">
        <ele>533</ele>
        <time>2014-01-25T10:06:41Z</time>
      </trkpt>
      <trkpt lat="43.4006" lon="5.64725">
        <ele>533</ele>
        <time>2014-01-25T10:06:50Z</time>
      </trkpt>
      <trkpt lat="43.40055" lon="5.6474">
        <ele>535</ele>
        <time>2014-01-25T10:07:00Z</time>
      </trkpt>
      <trkpt lat="43.40054" lon="5.64747">
        <ele>536</ele>
        <time>2014-01-25T10:07:10Z</time>
      </trkpt>
      <trkpt lat="43.40051" lon="5.64757">
        <ele>537</ele>
        <time>2014-01-25T10:07:19Z</time>
      </trkpt>
      <trkpt lat="43.40048" lon="5.64771">
        <ele>538</ele>
        <time>2014-01-25T10:07:29Z</time>
      </trkpt>
      <trkpt lat="43.40044" lon="5.64785">
        <ele>539</ele>
        <time>2014-01-25T10:07:39Z</time>
      </trkpt>
      <trkpt lat="43.40042" lon="5.64797">
        <ele>540</ele>
        <time>2014-01-25T10:07:48Z</time>
      </trkpt>
      <trkpt lat="43.4004" lon="5.6481">
        <ele>540</ele>
        <time>2014-01-25T10:07:57Z</time>
      </trkpt>
      <trkpt lat="43.40038" lon="5.64823">
        <ele>542</ele>
        <time>2014-01-25T10:08:07Z</time>
      </trkpt>
      <trkpt lat="43.40035" lon="5.64835">
        <ele>543</ele>
        <time>2014-01-25T10:08:16Z</time>
      </trkpt>
      <trkpt lat="43.40033" lon="5.64848">
        <ele>543</ele>
        <time>2014-01-25T10:08:25Z</time>
      </trkpt>
      <trkpt lat="43.4003" lon="5.6486">
        <ele>544</ele>
        <time>2014-01-25T10:08:34Z</time>
      </trkpt>
      <trkpt lat="43.40027" lon="5.64871">
        <ele>544</ele>
        <time>2014-01-25T10:08:43Z</time>
      </trkpt>
      <trkpt lat="43.40026" lon="5.64885">
        <ele>544</ele>
        <time>2014-01-25T10:08:53Z</time>
      </trkpt>
      <trkpt lat="43.40025" lon="5.64898">
        <ele>544</ele>
        <time>2014-01-25T10:09:03Z</time>
      </trkpt>
      <trkpt lat="43.40027" lon="5.64911">
        <ele>544</ele>
        <time>2014-01-25T10:09:12Z</time>
      </trkpt>
      <trkpt lat="43.4003" lon="5.64924">
        <ele>545</ele>
        <time>2014-01-25T10:09:22Z</time>
      </trkpt>
      <trkpt lat="43.40029" lon="5.64937">
        <ele>545</ele>
        <time>2014-01-25T10:09:31Z</time>
      </trkpt>
      <trkpt lat="43.40026" lon="5.6495">
        <ele>547</ele>
        <time>2014-01-25T10:09:40Z</time>
      </trkpt>
      <trkpt lat="43.40025" lon="5.64964">
        <ele>547</ele>
        <time>2014-01-25T10:09:50Z</time>
      </trkpt>
      <trkpt lat="43.40028" lon="5.64978">
        <ele>547</ele>
        <time>2014-01-25T10:09:59Z</time>
      </trkpt>
      <trkpt lat="43.40031" lon="5.64992">
        <ele>547</ele>
        <time>2014-01-25T10:10:08Z</time>
      </trkpt>
      <trkpt lat="43.40036" lon="5.65008">
        <ele>548</ele>
        <time>2014-01-25T10:10:19Z</time>
      </trkpt>
      <trkpt lat="43.40039" lon="5.65022">
        <ele>549</ele>
        <time>2014-01-25T10:10:29Z</time>
      </trkpt>
      <trkpt lat="43.40039" lon="5.65032">
        <ele>550</ele>
        <time>2014-01-25T10:10:38Z</time>
      </trkpt>
      <trkpt lat="43.40034" lon="5.65038">
        <ele>550</ele>
        <time>2014-01-25T10:10:53Z</time>
      </trkpt>
      <trkpt lat="43.40038" lon="5.65035">
        <ele>550</ele>
        <time>2014-01-25T10:11:04Z</time>
      </trkpt>
      <trkpt lat="43.40039" lon="5.65036">
        <ele>550</ele>
        <time>2014-01-25T10:11:20Z</time>
      </trkpt>
      <trkpt lat="43.40041" lon="5.65037">
        <ele>550</ele>
        <time>2014-01-25T10:11:31Z</time>
      </trkpt>
      <trkpt lat="43.40048" lon="5.6504">
        <ele>550</ele>
        <time>2014-01-25T10:11:41Z</time>
      </trkpt>
      <trkpt lat="43.40054" lon="5.65045">
        <ele>550</ele>
        <time>2014-01-25T10:11:53Z</time>
      </trkpt>
      <trkpt lat="43.40058" lon="5.65061">
        <ele>550</ele>
        <time>2014-01-25T10:12:03Z</time>
      </trkpt>
      <trkpt lat="43.40062" lon="5.65074">
        <ele>550</ele>
        <time>2014-01-25T10:12:12Z</time>
      </trkpt>
      <trkpt lat="43.40067" lon="5.65082">
        <ele>550</ele>
        <time>2014-01-25T10:12:22Z</time>
      </trkpt>
      <trkpt lat="43.40067" lon="5.65094">
        <ele>550</ele>
        <time>2014-01-25T10:12:32Z</time>
      </trkpt>
      <trkpt lat="43.4007" lon="5.6511">
        <ele>550</ele>
        <time>2014-01-25T10:12:42Z</time>
      </trkpt>
      <trkpt lat="43.40072" lon="5.65123">
        <ele>550</ele>
        <time>2014-01-25T10:12:52Z</time>
      </trkpt>
      <trkpt lat="43.40075" lon="5.65137">
        <ele>550</ele>
        <time>2014-01-25T10:13:02Z</time>
      </trkpt>
      <trkpt lat="43.40077" lon="5.65152">
        <ele>550</ele>
        <time>2014-01-25T10:13:12Z</time>
      </trkpt>
      <trkpt lat="43.40079" lon="5.65166">
        <ele>550</ele>
        <time>2014-01-25T10:13:22Z</time>
      </trkpt>
      <trkpt lat="43.40082" lon="5.65182">
        <ele>550</ele>
        <time>2014-01-25T10:13:32Z</time>
      </trkpt>
      <trkpt lat="43.40084" lon="5.65197">
        <ele>550</ele>
        <time>2014-01-25T10:13:42Z</time>
      </trkpt>
      <trkpt lat="43.40087" lon="5.65212">
        <ele>550</ele>
        <time>2014-01-25T10:13:52Z</time>
      </trkpt>
      <trkpt lat="43.40089" lon="5.65224">
        <ele>550</ele>
        <time>2014-01-25T10:14:01Z</time>
      </trkpt>
      <trkpt lat="43.40091" lon="5.65236">
        <ele>550</ele>
        <time>2014-01-25T10:14:10Z</time>
      </trkpt>
      <trkpt lat="43.40093" lon="5.65251">
        <ele>550</ele>
        <time>2014-01-25T10:14:20Z</time>
      </trkpt>
      <trkpt lat="43.40095" lon="5.65266">
        <ele>550</ele>
        <time>2014-01-25T10:14:30Z</time>
      </trkpt>
      <trkpt lat="43.40097" lon="5.65282">
        <ele>550</ele>
        <time>2014-01-25T10:14:40Z</time>
      </trkpt>
      <trkpt lat="43.401" lon="5.653">
        <ele>551</ele>
        <time>2014-01-25T10:14:51Z</time>
      </trkpt>
      <trkpt lat="43.40101" lon="5.65314">
        <ele>551</ele>
        <time>2014-01-25T10:15:00Z</time>
      </trkpt>
      <trkpt lat="43.40105" lon="5.65327">
        <ele>551</ele>
        <time>2014-01-25T10:15:09Z</time>
      </trkpt>
      <trkpt lat="43.40106" lon="5.65341">
        <ele>551</ele>
        <time>2014-01-25T10:15:18Z</time>
      </trkpt>
      <trkpt lat="43.40106" lon="5.65354">
        <ele>551</ele>
        <time>2014-01-25T10:15:27Z</time>
      </trkpt>
      <trkpt lat="43.40107" lon="5.65369">
        <ele>551</ele>
        <time>2014-01-25T10:15:37Z</time>
      </trkpt>
      <trkpt lat="43.40108" lon="5.65384">
        <ele>551</ele>
        <time>2014-01-25T10:15:47Z</time>
      </trkpt>
      <trkpt lat="43.40109" lon="5.65401">
        <ele>551</ele>
        <time>2014-01-25T10:15:58Z</time>
      </trkpt>
      <trkpt lat="43.40105" lon="5.65416">
        <ele>551</ele>
        <time>2014-01-25T10:16:08Z</time>
      </trkpt>
      <trkpt lat="43.40104" lon="5.65428">
        <ele>551</ele>
        <time>2014-01-25T10:16:17Z</time>
      </trkpt>
      <trkpt lat="43.40103" lon="5.65442">
        <ele>551</ele>
        <time>2014-01-25T10:16:26Z</time>
      </trkpt>
      <trkpt lat="43.40104" lon="5.65457">
        <ele>551</ele>
        <time>2014-01-25T10:16:35Z</time>
      </trkpt>
      <trkpt lat="43.40104" lon="5.65474">
        <ele>551</ele>
        <time>2014-01-25T10:16:45Z</time>
      </trkpt>
      <trkpt lat="43.40103" lon="5.65489">
        <ele>551</ele>
        <time>2014-01-25T10:16:54Z</time>
      </trkpt>
      <trkpt lat="43.40101" lon="5.65503">
        <ele>551</ele>
        <time>2014-01-25T10:17:03Z</time>
      </trkpt>
      <trkpt lat="43.40099" lon="5.65516">
        <ele>551</ele>
        <time>2014-01-25T10:17:12Z</time>
      </trkpt>
      <trkpt lat="43.40095" lon="5.65531">
        <ele>551</ele>
        <time>2014-01-25T10:17:21Z</time>
      </trkpt>
      <trkpt lat="43.40092" lon="5.65546">
        <ele>552</ele>
        <time>2014-01-25T10:17:30Z</time>
      </trkpt>
      <trkpt lat="43.40089" lon="5.6556">
        <ele>552</ele>
        <time>2014-01-25T10:17:39Z</time>
      </trkpt>
      <trkpt lat="43.40087" lon="5.65574">
        <ele>552</ele>
        <time>2014-01-25T10:17:48Z</time>
      </trkpt>
      <trkpt lat="43.40084" lon="5.65589">
        <ele>553</ele>
        <time>2014-01-25T10:17:57Z</time>
      </trkpt>
      <trkpt lat="43.40082" lon="5.65603">
        <ele>554</ele>
        <time>2014-01-25T10:18:07Z</time>
      </trkpt>
      <trkpt lat="43.40083" lon="5.65615">
        <ele>554</ele>
        <time>2014-01-25T10:18:17Z</time>
      </trkpt>
      <trkpt lat="43.40081" lon="5.65627">
        <ele>554</ele>
        <time>2014-01-25T10:18:26Z</time>
      </trkpt>
      <trkpt lat="43.40079" lon="5.65641">
        <ele>555</ele>
        <time>2014-01-25T10:18:35Z</time>
      </trkpt>
      <trkpt lat="43.40076" lon="5.65655">
        <ele>555</ele>
        <time>2014-01-25T10:18:44Z</time>
      </trkpt>
      <trkpt lat="43.40073" lon="5.65668">
        <ele>555</ele>
        <time>2014-01-25T10:18:53Z</time>
      </trkpt>
      <trkpt lat="43.4007" lon="5.65681">
        <ele>555</ele>
        <time>2014-01-25T10:19:02Z</time>
      </trkpt>
      <trkpt lat="43.40067" lon="5.65696">
        <ele>556</ele>
        <time>2014-01-25T10:19:12Z</time>
      </trkpt>
      <trkpt lat="43.40069" lon="5.65713">
        <ele>556</ele>
        <time>2014-01-25T10:19:22Z</time>
      </trkpt>
      <trkpt lat="43.4007" lon="5.65727">
        <ele>556</ele>
        <time>2014-01-25T10:19:31Z</time>
      </trkpt>
      <trkpt lat="43.40072" lon="5.65741">
        <ele>556</ele>
        <time>2014-01-25T10:19:40Z</time>
      </trkpt>
      <trkpt lat="43.40073" lon="5.65756">
        <ele>556</ele>
        <time>2014-01-25T10:19:49Z</time>
      </trkpt>
      <trkpt lat="43.40073" lon="5.6577">
        <ele>556</ele>
        <time>2014-01-25T10:19:58Z</time>
      </trkpt>
      <trkpt lat="43.4007" lon="5.65783">
        <ele>556</ele>
        <time>2014-01-25T10:20:07Z</time>
      </trkpt>
      <trkpt lat="43.40068" lon="5.658">
        <ele>556</ele>
        <time>2014-01-25T10:20:16Z</time>
      </trkpt>
      <trkpt lat="43.40068" lon="5.65814">
        <ele>556</ele>
        <time>2014-01-25T10:20:25Z</time>
      </trkpt>
      <trkpt lat="43.40069" lon="5.65828">
        <ele>556</ele>
        <time>2014-01-25T10:20:34Z</time>
      </trkpt>
      <trkpt lat="43.40071" lon="5.65839">
        <ele>556</ele>
        <time>2014-01-25T10:20:43Z</time>
      </trkpt>
      <trkpt lat="43.40072" lon="5.65852">
        <ele>556</ele>
        <time>2014-01-25T10:20:52Z</time>
      </trkpt>
      <trkpt lat="43.40074" lon="5.65866">
        <ele>556</ele>
        <time>2014-01-25T10:21:01Z</time>
      </trkpt>
      <trkpt lat="43.4007" lon="5.65877">
        <ele>557</ele>
        <time>2014-01-25T10:21:10Z</time>
      </trkpt>
      <trkpt lat="43.40063" lon="5.65886">
        <ele>557</ele>
        <time>2014-01-25T10:21:19Z</time>
      </trkpt>
      <trkpt lat="43.4006" lon="5.65897">
        <ele>557</ele>
        <time>2014-01-25T10:21:28Z</time>
      </trkpt>
      <trkpt lat="43.40057" lon="5.65909">
        <ele>560</ele>
        <time>2014-01-25T10:21:38Z</time>
      </trkpt>
      <trkpt lat="43.40051" lon="5.65918">
        <ele>561</ele>
        <time>2014-01-25T10:21:47Z</time>
      </trkpt>
      <trkpt lat="43.40044" lon="5.65925">
        <ele>561</ele>
        <time>2014-01-25T10:21:57Z</time>
      </trkpt>
      <trkpt lat="43.40044" lon="5.65935">
        <ele>561</ele>
        <time>2014-01-25T10:22:06Z</time>
      </trkpt>
      <trkpt lat="43.40038" lon="5.65945">
        <ele>566</ele>
        <time>2014-01-25T10:22:15Z</time>
      </trkpt>
      <trkpt lat="43.40033" lon="5.65954">
        <ele>567</ele>
        <time>2014-01-25T10:22:25Z</time>
      </trkpt>
      <trkpt lat="43.40028" lon="5.65964">
        <ele>568</ele>
        <time>2014-01-25T10:22:35Z</time>
      </trkpt>
      <trkpt lat="43.40025" lon="5.65973">
        <ele>569</ele>
        <time>2014-01-25T10:22:45Z</time>
      </trkpt>
      <trkpt lat="43.40022" lon="5.65981">
        <ele>570</ele>
        <time>2014-01-25T10:22:55Z</time>
      </trkpt>
      <trkpt lat="43.40017" lon="5.6599">
        <ele>571</ele>
        <time>2014-01-25T10:23:05Z</time>
      </trkpt>
      <trkpt lat="43.4001" lon="5.65998">
        <ele>572</ele>
        <time>2014-01-25T10:23:14Z</time>
      </trkpt>
      <trkpt lat="43.40008" lon="5.66006">
        <ele>574</ele>
        <time>2014-01-25T10:23:24Z</time>
      </trkpt>
      <trkpt lat="43.40007" lon="5.66013">
        <ele>576</ele>
        <time>2014-01-25T10:23:34Z</time>
      </trkpt>
      <trkpt lat="43.40001" lon="5.66021">
        <ele>579</ele>
        <time>2014-01-25T10:23:44Z</time>
      </trkpt>
      <trkpt lat="43.4" lon="5.66032">
        <ele>580</ele>
        <time>2014-01-25T10:23:54Z</time>
      </trkpt>
      <trkpt lat="43.4" lon="5.66043">
        <ele>581</ele>
        <time>2014-01-25T10:24:04Z</time>
      </trkpt>
      <trkpt lat="43.40001" lon="5.66053">
        <ele>582</ele>
        <time>2014-01-25T10:24:14Z</time>
      </trkpt>
      <trkpt lat="43.39998" lon="5.66063">
        <ele>585</ele>
        <time>2014-01-25T10:24:24Z</time>
      </trkpt>
      <trkpt lat="43.3999" lon="5.66066">
        <ele>586</ele>
        <time>2014-01-25T10:24:36Z</time>
      </trkpt>
      <trkpt lat="43.39982" lon="5.66072">
        <ele>586</ele>
        <time>2014-01-25T10:24:46Z</time>
      </trkpt>
      <trkpt lat="43.39973" lon="5.66078">
        <ele>586</ele>
        <time>2014-01-25T10:24:55Z</time>
      </trkpt>
      <trkpt lat="43.39965" lon="5.66084">
        <ele>586</ele>
        <time>2014-01-25T10:25:05Z</time>
      </trkpt>
      <trkpt lat="43.39958" lon="5.66087">
        <ele>586</ele>
        <time>2014-01-25T10:25:15Z</time>
      </trkpt>
      <trkpt lat="43.39952" lon="5.66094">
        <ele>583</ele>
        <time>2014-01-25T10:25:24Z</time>
      </trkpt>
      <trkpt lat="43.39946" lon="5.66104">
        <ele>579</ele>
        <time>2014-01-25T10:25:33Z</time>
      </trkpt>
      <trkpt lat="43.3994" lon="5.66116">
        <ele>578</ele>
        <time>2014-01-25T10:25:43Z</time>
      </trkpt>
      <trkpt lat="43.39938" lon="5.66128">
        <ele>577</ele>
        <time>2014-01-25T10:25:52Z</time>
      </trkpt>
      <trkpt lat="43.39938" lon="5.66143">
        <ele>577</ele>
        <time>2014-01-25T10:26:02Z</time>
      </trkpt>
      <trkpt lat="43.39938" lon="5.66156">
        <ele>577</ele>
        <time>2014-01-25T10:26:11Z</time>
      </trkpt>
      <trkpt lat="43.39938" lon="5.66166">
        <ele>575</ele>
        <time>2014-01-25T10:26:20Z</time>
      </trkpt>
      <trkpt lat="43.39937" lon="5.6618">
        <ele>575</ele>
        <time>2014-01-25T10:26:29Z</time>
      </trkpt>
      <trkpt lat="43.39936" lon="5.66194">
        <ele>575</ele>
        <time>2014-01-25T10:26:39Z</time>
      </trkpt>
      <trkpt lat="43.39933" lon="5.66207">
        <ele>574</ele>
        <time>2014-01-25T10:26:48Z</time>
      </trkpt>
      <trkpt lat="43.39931" lon="5.6622">
        <ele>574</ele>
        <time>2014-01-25T10:26:57Z</time>
      </trkpt>
      <trkpt lat="43.39927" lon="5.66234">
        <ele>574</ele>
        <time>2014-01-25T10:27:06Z</time>
      </trkpt>
      <trkpt lat="43.3992" lon="5.66245">
        <ele>574</ele>
        <time>2014-01-25T10:27:15Z</time>
      </trkpt>
      <trkpt lat="43.39915" lon="5.66254">
        <ele>574</ele>
        <time>2014-01-25T10:27:25Z</time>
      </trkpt>
      <trkpt lat="43.39919" lon="5.66265">
        <ele>571</ele>
        <time>2014-01-25T10:27:35Z</time>
      </trkpt>
      <trkpt lat="43.39925" lon="5.66277">
        <ele>569</ele>
        <time>2014-01-25T10:27:45Z</time>
      </trkpt>
      <trkpt lat="43.39925" lon="5.6629">
        <ele>567</ele>
        <time>2014-01-25T10:27:55Z</time>
      </trkpt>
      <trkpt lat="43.3992" lon="5.663">
        <ele>566</ele>
        <time>2014-01-25T10:28:04Z</time>
      </trkpt>
      <trkpt lat="43.39917" lon="5.66313">
        <ele>566</ele>
        <time>2014-01-25T10:28:13Z</time>
      </trkpt>
      <trkpt lat="43.39915" lon="5.66327">
        <ele>565</ele>
        <time>2014-01-25T10:28:22Z</time>
      </trkpt>
      <trkpt lat="43.39914" lon="5.66341">
        <ele>565</ele>
        <time>2014-01-25T10:28:31Z</time>
      </trkpt>
      <trkpt lat="43.39907" lon="5.66356">
        <ele>565</ele>
        <time>2014-01-25T10:28:41Z</time>
      </trkpt>
      <trkpt lat="43.39904" lon="5.66364">
        <ele>565</ele>
        <time>2014-01-25T10:28:50Z</time>
      </trkpt>
      <trkpt lat="43.399" lon="5.66368">
        <ele>565</ele>
        <time>2014-01-25T10:28:59Z</time>
      </trkpt>
      <trkpt lat="43.39899" lon="5.66373">
        <ele>565</ele>
        <time>2014-01-25T10:29:09Z</time>
      </trkpt>
      <trkpt lat="43.39896" lon="5.66382">
        <ele>567</ele>
        <time>2014-01-25T10:29:18Z</time>
      </trkpt>
      <trkpt lat="43.39895" lon="5.66391">
        <ele>568</ele>
        <time>2014-01-25T10:29:28Z</time>
      </trkpt>
      <trkpt lat="43.39895" lon="5.66396">
        <ele>569</ele>
        <time>2014-01-25T10:29:38Z</time>
      </trkpt>
      <trkpt lat="43.39897" lon="5.66404">
        <ele>571</ele>
        <time>2014-01-25T10:29:47Z</time>
      </trkpt>
      <trkpt lat="43.39899" lon="5.66408">
        <ele>571</ele>
        <time>2014-01-25T10:29:56Z</time>
      </trkpt>
      <trkpt lat="43.39901" lon="5.66419">
        <ele>573</ele>
        <time>2014-01-25T10:30:05Z</time>
      </trkpt>
      <trkpt lat="43.39899" lon="5.6643">
        <ele>575</ele>
        <time>2014-01-25T10:30:14Z</time>
      </trkpt>
      <trkpt lat="43.39901" lon="5.66439">
        <ele>576</ele>
        <time>2014-01-25T10:30:24Z</time>
      </trkpt>
      <trkpt lat="43.39901" lon="5.66449">
        <ele>578</ele>
        <time>2014-01-25T10:30:34Z</time>
      </trkpt>
      <trkpt lat="43.39898" lon="5.66462">
        <ele>578</ele>
        <time>2014-01-25T10:30:43Z</time>
      </trkpt>
      <trkpt lat="43.39895" lon="5.6647">
        <ele>580</ele>
        <time>2014-01-25T10:30:52Z</time>
      </trkpt>
      <trkpt lat="43.39894" lon="5.66479">
        <ele>582</ele>
        <time>2014-01-25T10:31:01Z</time>
      </trkpt>
      <trkpt lat="43.39889" lon="5.6649">
        <ele>582</ele>
        <time>2014-01-25T10:31:11Z</time>
      </trkpt>
      <trkpt lat="43.39886" lon="5.66499">
        <ele>583</ele>
        <time>2014-01-25T10:31:21Z</time>
      </trkpt>
      <trkpt lat="43.39885" lon="5.66509">
        <ele>583</ele>
        <time>2014-01-25T10:31:31Z</time>
      </trkpt>
      <trkpt lat="43.39885" lon="5.66521">
        <ele>583</ele>
        <time>2014-01-25T10:31:40Z</time>
      </trkpt>
      <trkpt lat="43.39885" lon="5.66534">
        <ele>584</ele>
        <time>2014-01-25T10:31:49Z</time>
      </trkpt>
      <trkpt lat="43.39885" lon="5.66545">
        <ele>586</ele>
        <time>2014-01-25T10:31:58Z</time>
      </trkpt>
      <trkpt lat="43.39885" lon="5.66557">
        <ele>588</ele>
        <time>2014-01-25T10:32:07Z</time>
      </trkpt>
      <trkpt lat="43.39886" lon="5.66562">
        <ele>588</ele>
        <time>2014-01-25T10:32:22Z</time>
      </trkpt>
      <trkpt lat="43.39888" lon="5.66563">
        <ele>589</ele>
        <time>2014-01-25T10:32:38Z</time>
      </trkpt>
      <trkpt lat="43.39888" lon="5.66574">
        <ele>589</ele>
        <time>2014-01-25T10:32:48Z</time>
      </trkpt>
      <trkpt lat="43.3989" lon="5.66588">
        <ele>589</ele>
        <time>2014-01-25T10:32:58Z</time>
      </trkpt>
      <trkpt lat="43.39891" lon="5.66603">
        <ele>589</ele>
        <time>2014-01-25T10:33:07Z</time>
      </trkpt>
      <trkpt lat="43.39894" lon="5.66617">
        <ele>589</ele>
        <time>2014-01-25T10:33:17Z</time>
      </trkpt>
      <trkpt lat="43.39895" lon="5.66631">
        <ele>589</ele>
        <time>2014-01-25T10:33:27Z</time>
      </trkpt>
      <trkpt lat="43.39899" lon="5.66643">
        <ele>589</ele>
        <time>2014-01-25T10:33:36Z</time>
      </trkpt>
      <trkpt lat="43.399" lon="5.66657">
        <ele>589</ele>
        <time>2014-01-25T10:33:46Z</time>
      </trkpt>
      <trkpt lat="43.39902" lon="5.66671">
        <ele>596</ele>
        <time>2014-01-25T10:33:55Z</time>
      </trkpt>
      <trkpt lat="43.39904" lon="5.6668">
        <ele>599</ele>
        <time>2014-01-25T10:34:06Z</time>
      </trkpt>
      <trkpt lat="43.39907" lon="5.66688">
        <ele>600</ele>
        <time>2014-01-25T10:34:15Z</time>
      </trkpt>
      <trkpt lat="43.39911" lon="5.66695">
        <ele>600</ele>
        <time>2014-01-25T10:34:24Z</time>
      </trkpt>
      <trkpt lat="43.39912" lon="5.66705">
        <ele>601</ele>
        <time>2014-01-25T10:34:34Z</time>
      </trkpt>
      <trkpt lat="43.39915" lon="5.66712">
        <ele>601</ele>
        <time>2014-01-25T10:34:43Z</time>
      </trkpt>
      <trkpt lat="43.39915" lon="5.66717">
        <ele>601</ele>
        <time>2014-01-25T10:34:52Z</time>
      </trkpt>
      <trkpt lat="43.39918" lon="5.66721">
        <ele>603</ele>
        <time>2014-01-25T10:35:03Z</time>
      </trkpt>
      <trkpt lat="43.39921" lon="5.66724">
        <ele>608</ele>
        <time>2014-01-25T10:35:14Z</time>
      </trkpt>
      <trkpt lat="43.39926" lon="5.66728">
        <ele>613</ele>
        <time>2014-01-25T10:35:26Z</time>
      </trkpt>
      <trkpt lat="43.39932" lon="5.66735">
        <ele>615</ele>
        <time>2014-01-25T10:35:36Z</time>
      </trkpt>
      <trkpt lat="43.39931" lon="5.66747">
        <ele>615</ele>
        <time>2014-01-25T10:35:45Z</time>
      </trkpt>
      <trkpt lat="43.39927" lon="5.66761">
        <ele>615</ele>
        <time>2014-01-25T10:35:55Z</time>
      </trkpt>
      <trkpt lat="43.39925" lon="5.66771">
        <ele>616</ele>
        <time>2014-01-25T10:36:05Z</time>
      </trkpt>
      <trkpt lat="43.39919" lon="5.66779">
        <ele>616</ele>
        <time>2014-01-25T10:36:15Z</time>
      </trkpt>
      <trkpt lat="43.39914" lon="5.66788">
        <ele>616</ele>
        <time>2014-01-25T10:36:25Z</time>
      </trkpt>
      <trkpt lat="43.39912" lon="5.66795">
        <ele>616</ele>
        <time>2014-01-25T10:36:34Z</time>
      </trkpt>
      <trkpt lat="43.3991" lon="5.66804">
        <ele>616</ele>
        <time>2014-01-25T10:36:43Z</time>
      </trkpt>
      <trkpt lat="43.39907" lon="5.66812">
        <ele>616</ele>
        <time>2014-01-25T10:36:52Z</time>
      </trkpt>
      <trkpt lat="43.39903" lon="5.6682">
        <ele>616</ele>
        <time>2014-01-25T10:37:01Z</time>
      </trkpt>
      <trkpt lat="43.39905" lon="5.66826">
        <ele>619</ele>
        <time>2014-01-25T10:37:10Z</time>
      </trkpt>
      <trkpt lat="43.39909" lon="5.66832">
        <ele>621</ele>
        <time>2014-01-25T10:37:20Z</time>
      </trkpt>
      <trkpt lat="43.39911" lon="5.6684">
        <ele>626</ele>
        <time>2014-01-25T10:37:30Z</time>
      </trkpt>
      <trkpt lat="43.3991" lon="5.66845">
        <ele>630</ele>
        <time>2014-01-25T10:37:40Z</time>
      </trkpt>
      <trkpt lat="43.39909" lon="5.66852">
        <ele>634</ele>
        <time>2014-01-25T10:37:51Z</time>
      </trkpt>
      <trkpt lat="43.39912" lon="5.66856">
        <ele>634</ele>
        <time>2014-01-25T10:38:02Z</time>
      </trkpt>
      <trkpt lat="43.39915" lon="5.66867">
        <ele>634</ele>
        <time>2014-01-25T10:38:13Z</time>
      </trkpt>
      <trkpt lat="43.39915" lon="5.66874">
        <ele>634</ele>
        <time>2014-01-25T10:38:22Z</time>
      </trkpt>
      <trkpt lat="43.3992" lon="5.66881">
        <ele>634</ele>
        <time>2014-01-25T10:38:33Z</time>
      </trkpt>
      <trkpt lat="43.39924" lon="5.66884">
        <ele>634</ele>
        <time>2014-01-25T10:38:44Z</time>
      </trkpt>
      <trkpt lat="43.39927" lon="5.66888">
        <ele>634</ele>
        <time>2014-01-25T10:38:53Z</time>
      </trkpt>
      <trkpt lat="43.39931" lon="5.66892">
        <ele>637</ele>
        <time>2014-01-25T10:39:03Z</time>
      </trkpt>
      <trkpt lat="43.39931" lon="5.66898">
        <ele>638</ele>
        <time>2014-01-25T10:39:15Z</time>
      </trkpt>
      <trkpt lat="43.39933" lon="5.66907">
        <ele>643</ele>
        <time>2014-01-25T10:39:26Z</time>
      </trkpt>
      <trkpt lat="43.39936" lon="5.66912">
        <ele>646</ele>
        <time>2014-01-25T10:39:35Z</time>
      </trkpt>
      <trkpt lat="43.39942" lon="5.66916">
        <ele>646</ele>
        <time>2014-01-25T10:39:45Z</time>
      </trkpt>
      <trkpt lat="43.39943" lon="5.66916">
        <ele>648</ele>
        <time>2014-01-25T10:40:01Z</time>
      </trkpt>
      <trkpt lat="43.39946" lon="5.6692">
        <ele>649</ele>
        <time>2014-01-25T10:40:11Z</time>
      </trkpt>
      <trkpt lat="43.39949" lon="5.66926">
        <ele>649</ele>
        <time>2014-01-25T10:40:21Z</time>
      </trkpt>
      <trkpt lat="43.39947" lon="5.66932">
        <ele>649</ele>
        <time>2014-01-25T10:40:30Z</time>
      </trkpt>
      <trkpt lat="43.39944" lon="5.66938">
        <ele>649</ele>
        <time>2014-01-25T10:40:40Z</time>
      </trkpt>
      <trkpt lat="43.39949" lon="5.66941">
        <ele>651</ele>
        <time>2014-01-25T10:40:51Z</time>
      </trkpt>
      <trkpt lat="43.39953" lon="5.6694">
        <ele>656</ele>
        <time>2014-01-25T10:41:01Z</time>
      </trkpt>
      <trkpt lat="43.39955" lon="5.66944">
        <ele>657</ele>
        <time>2014-01-25T10:41:11Z</time>
      </trkpt>
      <trkpt lat="43.39957" lon="5.66947">
        <ele>657</ele>
        <time>2014-01-25T10:41:25Z</time>
      </trkpt>
      <trkpt lat="43.39962" lon="5.66947">
        <ele>657</ele>
        <time>2014-01-25T10:41:38Z</time>
      </trkpt>
      <trkpt lat="43.39967" lon="5.66945">
        <ele>661</ele>
        <time>2014-01-25T10:41:48Z</time>
      </trkpt>
      <trkpt lat="43.39971" lon="5.66942">
        <ele>662</ele>
        <time>2014-01-25T10:42:00Z</time>
      </trkpt>
      <trkpt lat="43.39975" lon="5.66944">
        <ele>665</ele>
        <time>2014-01-25T10:42:14Z</time>
      </trkpt>
      <trkpt lat="43.39979" lon="5.6694">
        <ele>666</ele>
        <time>2014-01-25T10:42:25Z</time>
      </trkpt>
      <trkpt lat="43.39978" lon="5.66933">
        <ele>666</ele>
        <time>2014-01-25T10:42:35Z</time>
      </trkpt>
      <trkpt lat="43.3998" lon="5.66925">
        <ele>668</ele>
        <time>2014-01-25T10:42:45Z</time>
      </trkpt>
      <trkpt lat="43.39982" lon="5.66923">
        <ele>669</ele>
        <time>2014-01-25T10:42:55Z</time>
      </trkpt>
      <trkpt lat="43.39982" lon="5.66924">
        <ele>669</ele>
        <time>2014-01-25T10:43:06Z</time>
      </trkpt>
      <trkpt lat="43.39983" lon="5.66924">
        <ele>672</ele>
        <time>2014-01-25T10:44:15Z</time>
      </trkpt>
      <trkpt lat="43.39983" lon="5.6692">
        <ele>674</ele>
        <time>2014-01-25T10:44:25Z</time>
      </trkpt>
      <trkpt lat="43.39983" lon="5.66918">
        <ele>674</ele>
        <time>2014-01-25T10:44:41Z</time>
      </trkpt>
      <trkpt lat="43.39981" lon="5.66918">
        <ele>674</ele>
        <time>2014-01-25T10:45:10Z</time>
      </trkpt>
      <trkpt lat="43.39981" lon="5.66917">
        <ele>675</ele>
        <time>2014-01-25T10:45:19Z</time>
      </trkpt>
      <trkpt lat="43.39982" lon="5.66918">
        <ele>675</ele>
        <time>2014-01-25T10:45:49Z</time>
      </trkpt>
      <trkpt lat="43.39982" lon="5.66921">
        <ele>675</ele>
        <time>2014-01-25T10:46:12Z</time>
      </trkpt>
      <trkpt lat="43.39983" lon="5.66923">
        <ele>675</ele>
        <time>2014-01-25T10:46:34Z</time>
      </trkpt>
      <trkpt lat="43.39981" lon="5.66925">
        <ele>675</ele>
        <time>2014-01-25T10:46:43Z</time>
      </trkpt>
      <trkpt lat="43.39981" lon="5.66926">
        <ele>675</ele>
        <time>2014-01-25T10:46:58Z</time>
      </trkpt>
      <trkpt lat="43.39984" lon="5.66931">
        <ele>675</ele>
        <time>2014-01-25T10:47:10Z</time>
      </trkpt>
      <trkpt lat="43.39989" lon="5.66929">
        <ele>675</ele>
        <time>2014-01-25T10:47:20Z</time>
      </trkpt>
      <trkpt lat="43.39997" lon="5.66921">
        <ele>675</ele>
        <time>2014-01-25T10:47:30Z</time>
      </trkpt>
      <trkpt lat="43.40004" lon="5.66917">
        <ele>676</ele>
        <time>2014-01-25T10:47:39Z</time>
      </trkpt>
      <trkpt lat="43.4001" lon="5.66921">
        <ele>676</ele>
        <time>2014-01-25T10:47:50Z</time>
      </trkpt>
      <trkpt lat="43.40013" lon="5.66926">
        <ele>676</ele>
        <time>2014-01-25T10:48:00Z</time>
      </trkpt>
      <trkpt lat="43.4002" lon="5.66929">
        <ele>676</ele>
        <time>2014-01-25T10:48:10Z</time>
      </trkpt>
      <trkpt lat="43.40027" lon="5.66934">
        <ele>676</ele>
        <time>2014-01-25T10:48:20Z</time>
      </trkpt>
      <trkpt lat="43.40032" lon="5.66941">
        <ele>676</ele>
        <time>2014-01-25T10:48:29Z</time>
      </trkpt>
      <trkpt lat="43.40037" lon="5.6695">
        <ele>676</ele>
        <time>2014-01-25T10:48:39Z</time>
      </trkpt>
      <trkpt lat="43.40043" lon="5.66957">
        <ele>678</ele>
        <time>2014-01-25T10:48:50Z</time>
      </trkpt>
      <trkpt lat="43.40044" lon="5.66965">
        <ele>678</ele>
        <time>2014-01-25T10:49:00Z</time>
      </trkpt>
      <trkpt lat="43.40044" lon="5.66972">
        <ele>681</ele>
        <time>2014-01-25T10:49:11Z</time>
      </trkpt>
      <trkpt lat="43.40044" lon="5.66975">
        <ele>682</ele>
        <time>2014-01-25T10:49:21Z</time>
      </trkpt>
      <trkpt lat="43.40043" lon="5.66979">
        <ele>683</ele>
        <time>2014-01-25T10:49:31Z</time>
      </trkpt>
      <trkpt lat="43.40035" lon="5.66979">
        <ele>685</ele>
        <time>2014-01-25T10:49:41Z</time>
      </trkpt>
      <trkpt lat="43.40027" lon="5.66977">
        <ele>687</ele>
        <time>2014-01-25T10:49:51Z</time>
      </trkpt>
      <trkpt lat="43.4002" lon="5.66975">
        <ele>689</ele>
        <time>2014-01-25T10:50:04Z</time>
      </trkpt>
      <trkpt lat="43.40014" lon="5.66978">
        <ele>690</ele>
        <time>2014-01-25T10:50:14Z</time>
      </trkpt>
      <trkpt lat="43.40007" lon="5.66985">
        <ele>692</ele>
        <time>2014-01-25T10:50:24Z</time>
      </trkpt>
      <trkpt lat="43.40003" lon="5.66989">
        <ele>693</ele>
        <time>2014-01-25T10:50:34Z</time>
      </trkpt>
      <trkpt lat="43.40002" lon="5.6699">
        <ele>693</ele>
        <time>2014-01-25T10:50:49Z</time>
      </trkpt>
      <trkpt lat="43.40001" lon="5.67">
        <ele>693</ele>
        <time>2014-01-25T10:50:58Z</time>
      </trkpt>
      <trkpt lat="43.4001" lon="5.67001">
        <ele>695</ele>
        <time>2014-01-25T10:51:08Z</time>
      </trkpt>
      <trkpt lat="43.40019" lon="5.67002">
        <ele>696</ele>
        <time>2014-01-25T10:51:18Z</time>
      </trkpt>
      <trkpt lat="43.40025" lon="5.67012">
        <ele>696</ele>
        <time>2014-01-25T10:51:28Z</time>
      </trkpt>
      <trkpt lat="43.40029" lon="5.67023">
        <ele>696</ele>
        <time>2014-01-25T10:51:37Z</time>
      </trkpt>
      <trkpt lat="43.40031" lon="5.67033">
        <ele>697</ele>
        <time>2014-01-25T10:51:46Z</time>
      </trkpt>
      <trkpt lat="43.40031" lon="5.67045">
        <ele>697</ele>
        <time>2014-01-25T10:51:55Z</time>
      </trkpt>
      <trkpt lat="43.40024" lon="5.67051">
        <ele>698</ele>
        <time>2014-01-25T10:52:05Z</time>
      </trkpt>
      <trkpt lat="43.40015" lon="5.67052">
        <ele>699</ele>
        <time>2014-01-25T10:52:15Z</time>
      </trkpt>
      <trkpt lat="43.40005" lon="5.67053">
        <ele>701</ele>
        <time>2014-01-25T10:52:25Z</time>
      </trkpt>
      <trkpt lat="43.39999" lon="5.67052">
        <ele>702</ele>
        <time>2014-01-25T10:52:34Z</time>
      </trkpt>
      <trkpt lat="43.39993" lon="5.67053">
        <ele>702</ele>
        <time>2014-01-25T10:52:43Z</time>
      </trkpt>
      <trkpt lat="43.39991" lon="5.67055">
        <ele>702</ele>
        <time>2014-01-25T10:52:54Z</time>
      </trkpt>
      <trkpt lat="43.39986" lon="5.67055">
        <ele>703</ele>
        <time>2014-01-25T10:53:55Z</time>
      </trkpt>
      <trkpt lat="43.39987" lon="5.67057">
        <ele>703</ele>
        <time>2014-01-25T10:54:05Z</time>
      </trkpt>
      <trkpt lat="43.39986" lon="5.67056">
        <ele>704</ele>
        <time>2014-01-25T10:54:19Z</time>
      </trkpt>
      <trkpt lat="43.39983" lon="5.67059">
        <ele>705</ele>
        <time>2014-01-25T10:55:26Z</time>
      </trkpt>
      <trkpt lat="43.39984" lon="5.67057">
        <ele>705</ele>
        <time>2014-01-25T10:55:42Z</time>
      </trkpt>
      <trkpt lat="43.39984" lon="5.67055">
        <ele>705</ele>
        <time>2014-01-25T10:56:15Z</time>
      </trkpt>
      <trkpt lat="43.39985" lon="5.67055">
        <ele>705</ele>
        <time>2014-01-25T10:56:33Z</time>
      </trkpt>
      <trkpt lat="43.39986" lon="5.67055">
        <ele>705</ele>
        <time>2014-01-25T10:56:51Z</time>
      </trkpt>
      <trkpt lat="43.39987" lon="5.67053">
        <ele>705</ele>
        <time>2014-01-25T10:57:13Z</time>
      </trkpt>
      <trkpt lat="43.39992" lon="5.67043">
        <ele>706</ele>
        <time>2014-01-25T10:57:22Z</time>
      </trkpt>
      <trkpt lat="43.39995" lon="5.67043">
        <ele>706</ele>
        <time>2014-01-25T10:57:49Z</time>
      </trkpt>
      <trkpt lat="43.39996" lon="5.67043">
        <ele>706</ele>
        <time>2014-01-25T10:58:08Z</time>
      </trkpt>
      <trkpt lat="43.39994" lon="5.67043">
        <ele>706</ele>
        <time>2014-01-25T10:58:22Z</time>
      </trkpt>
      <trkpt lat="43.39993" lon="5.67043">
        <ele>706</ele>
        <time>2014-01-25T10:58:31Z</time>
      </trkpt>
      <trkpt lat="43.39993" lon="5.67043">
        <ele>706</ele>
        <time>2014-01-25T10:58:57Z</time>
      </trkpt>
      <trkpt lat="43.39993" lon="5.67041">
        <ele>706</ele>
        <time>2014-01-25T10:59:12Z</time>
      </trkpt>
      <trkpt lat="43.39992" lon="5.67043">
        <ele>707</ele>
        <time>2014-01-25T10:59:32Z</time>
      </trkpt>
      <trkpt lat="43.39992" lon="5.67045">
        <ele>707</ele>
        <time>2014-01-25T10:59:57Z</time>
      </trkpt>
      <trkpt lat="43.39991" lon="5.67042">
        <ele>707</ele>
        <time>2014-01-25T11:00:11Z</time>
      </trkpt>
      <trkpt lat="43.39993" lon="5.67044">
        <ele>707</ele>
        <time>2014-01-25T11:00:40Z</time>
      </trkpt>
      <trkpt lat="43.39994" lon="5.67045">
        <ele>707</ele>
        <time>2014-01-25T11:01:21Z</time>
      </trkpt>
      <trkpt lat="43.39995" lon="5.67044">
        <ele>707</ele>
        <time>2014-01-25T11:01:30Z</time>
      </trkpt>
      <trkpt lat="43.39994" lon="5.67045">
        <ele>707</ele>
        <time>2014-01-25T11:01:42Z</time>
      </trkpt>
      <trkpt lat="43.39992" lon="5.67045">
        <ele>707</ele>
        <time>2014-01-25T11:01:59Z</time>
      </trkpt>
      <trkpt lat="43.39991" lon="5.67044">
        <ele>707</ele>
        <time>2014-01-25T11:02:12Z</time>
      </trkpt>
      <trkpt lat="43.39991" lon="5.67043">
        <ele>708</ele>
        <time>2014-01-25T11:02:24Z</time>
      </trkpt>
      <trkpt lat="43.39993" lon="5.67042">
        <ele>708</ele>
        <time>2014-01-25T11:02:34Z</time>
      </trkpt>
      <trkpt lat="43.39991" lon="5.67044">
        <ele>708</ele>
        <time>2014-01-25T11:03:17Z</time>
      </trkpt>
      <trkpt lat="43.39992" lon="5.67048">
        <ele>708</ele>
        <time>2014-01-25T11:03:39Z</time>
      </trkpt>
      <trkpt lat="43.39995" lon="5.67052">
        <ele>708</ele>
        <time>2014-01-25T11:04:01Z</time>
      </trkpt>
      <trkpt lat="43.40005" lon="5.67053">
        <ele>708</ele>
        <time>2014-01-25T11:04:12Z</time>
      </trkpt>
      <trkpt lat="43.40015" lon="5.67049">
        <ele>708</ele>
        <time>2014-01-25T11:04:23Z</time>
      </trkpt>
      <trkpt lat="43.40021" lon="5.67053">
        <ele>708</ele>
        <time>2014-01-25T11:04:33Z</time>
      </trkpt>
      <trkpt lat="43.40027" lon="5.67061">
        <ele>707</ele>
        <time>2014-01-25T11:04:43Z</time>
      </trkpt>
      <trkpt lat="43.40031" lon="5.6707">
        <ele>703</ele>
        <time>2014-01-25T11:04:53Z</time>
      </trkpt>
      <trkpt lat="43.40033" lon="5.67078">
        <ele>702</ele>
        <time>2014-01-25T11:05:02Z</time>
      </trkpt>
      <trkpt lat="43.40035" lon="5.67089">
        <ele>701</ele>
        <time>2014-01-25T11:05:12Z</time>
      </trkpt>
      <trkpt lat="43.40038" lon="5.67103">
        <ele>699</ele>
        <time>2014-01-25T11:05:22Z</time>
      </trkpt>
      <trkpt lat="43.4004" lon="5.67116">
        <ele>697</ele>
        <time>2014-01-25T11:05:32Z</time>
      </trkpt>
      <trkpt lat="43.40043" lon="5.67131">
        <ele>696</ele>
        <time>2014-01-25T11:05:43Z</time>
      </trkpt>
      <trkpt lat="43.40046" lon="5.6714">
        <ele>695</ele>
        <time>2014-01-25T11:05:53Z</time>
      </trkpt>
      <trkpt lat="43.40047" lon="5.67147">
        <ele>693</ele>
        <time>2014-01-25T11:06:02Z</time>
      </trkpt>
      <trkpt lat="43.40048" lon="5.67155">
        <ele>690</ele>
        <time>2014-01-25T11:06:11Z</time>
      </trkpt>
      <trkpt lat="43.40051" lon="5.67166">
        <ele>689</ele>
        <time>2014-01-25T11:06:21Z</time>
      </trkpt>
      <trkpt lat="43.40052" lon="5.67173">
        <ele>688</ele>
        <time>2014-01-25T11:06:30Z</time>
      </trkpt>
      <trkpt lat="43.40052" lon="5.67186">
        <ele>687</ele>
        <time>2014-01-25T11:06:40Z</time>
      </trkpt>
      <trkpt lat="43.40053" lon="5.67201">
        <ele>685</ele>
        <time>2014-01-25T11:06:51Z</time>
      </trkpt>
      <trkpt lat="43.40053" lon="5.67211">
        <ele>684</ele>
        <time>2014-01-25T11:07:00Z</time>
      </trkpt>
      <trkpt lat="43.40055" lon="5.67222">
        <ele>683</ele>
        <time>2014-01-25T11:07:09Z</time>
      </trkpt>
      <trkpt lat="43.40057" lon="5.67236">
        <ele>682</ele>
        <time>2014-01-25T11:07:18Z</time>
      </trkpt>
      <trkpt lat="43.40054" lon="5.6725">
        <ele>681</ele>
        <time>2014-01-25T11:07:28Z</time>
      </trkpt>
      <trkpt lat="43.40055" lon="5.67264">
        <ele>679</ele>
        <time>2014-01-25T11:07:38Z</time>
      </trkpt>
      <trkpt lat="43.40057" lon="5.67275">
        <ele>678</ele>
        <time>2014-01-25T11:07:47Z</time>
      </trkpt>
      <trkpt lat="43.40059" lon="5.67285">
        <ele>678</ele>
        <time>2014-01-25T11:07:57Z</time>
      </trkpt>
      <trkpt lat="43.4006" lon="5.67293">
        <ele>678</ele>
        <time>2014-01-25T11:08:07Z</time>
      </trkpt>
      <trkpt lat="43.40061" lon="5.673">
        <ele>677</ele>
        <time>2014-01-25T11:08:18Z</time>
      </trkpt>
      <trkpt lat="43.40062" lon="5.67306">
        <ele>676</ele>
        <time>2014-01-25T11:08:27Z</time>
      </trkpt>
      <trkpt lat="43.40065" lon="5.67311">
        <ele>673</ele>
        <time>2014-01-25T11:08:37Z</time>
      </trkpt>
      <trkpt lat="43.40066" lon="5.67321">
        <ele>671</ele>
        <time>2014-01-25T11:08:46Z</time>
      </trkpt>
      <trkpt lat="43.40062" lon="5.67328">
        <ele>668</ele>
        <time>2014-01-25T11:08:55Z</time>
      </trkpt>
      <trkpt lat="43.40059" lon="5.67337">
        <ele>668</ele>
        <time>2014-01-25T11:09:05Z</time>
      </trkpt>
      <trkpt lat="43.40057" lon="5.67343">
        <ele>667</ele>
        <time>2014-01-25T11:09:17Z</time>
      </trkpt>
      <trkpt lat="43.40057" lon="5.67355">
        <ele>666</ele>
        <time>2014-01-25T11:09:26Z</time>
      </trkpt>
      <trkpt lat="43.40061" lon="5.67368">
        <ele>666</ele>
        <time>2014-01-25T11:09:35Z</time>
      </trkpt>
      <trkpt lat="43.4006" lon="5.67374">
        <ele>665</ele>
        <time>2014-01-25T11:09:44Z</time>
      </trkpt>
      <trkpt lat="43.40059" lon="5.67385">
        <ele>664</ele>
        <time>2014-01-25T11:09:53Z</time>
      </trkpt>
      <trkpt lat="43.40063" lon="5.67397">
        <ele>663</ele>
        <time>2014-01-25T11:10:02Z</time>
      </trkpt>
      <trkpt lat="43.40066" lon="5.67408">
        <ele>663</ele>
        <time>2014-01-25T11:10:11Z</time>
      </trkpt>
      <trkpt lat="43.40072" lon="5.6742">
        <ele>663</ele>
        <time>2014-01-25T11:10:21Z</time>
      </trkpt>
      <trkpt lat="43.40078" lon="5.67432">
        <ele>663</ele>
        <time>2014-01-25T11:10:31Z</time>
      </trkpt>
      <trkpt lat="43.40081" lon="5.67445">
        <ele>663</ele>
        <time>2014-01-25T11:10:41Z</time>
      </trkpt>
      <trkpt lat="43.40086" lon="5.67457">
        <ele>663</ele>
        <time>2014-01-25T11:10:51Z</time>
      </trkpt>
      <trkpt lat="43.40089" lon="5.67468">
        <ele>663</ele>
        <time>2014-01-25T11:11:02Z</time>
      </trkpt>
      <trkpt lat="43.40091" lon="5.67475">
        <ele>663</ele>
        <time>2014-01-25T11:11:11Z</time>
      </trkpt>
      <trkpt lat="43.40094" lon="5.67482">
        <ele>663</ele>
        <time>2014-01-25T11:11:21Z</time>
      </trkpt>
      <trkpt lat="43.40098" lon="5.67487">
        <ele>662</ele>
        <time>2014-01-25T11:11:33Z</time>
      </trkpt>
      <trkpt lat="43.40103" lon="5.6749">
        <ele>658</ele>
        <time>2014-01-25T11:11:43Z</time>
      </trkpt>
      <trkpt lat="43.40108" lon="5.675">
        <ele>656</ele>
        <time>2014-01-25T11:11:53Z</time>
      </trkpt>
      <trkpt lat="43.40111" lon="5.67513">
        <ele>653</ele>
        <time>2014-01-25T11:12:04Z</time>
      </trkpt>
      <trkpt lat="43.40115" lon="5.6752">
        <ele>652</ele>
        <time>2014-01-25T11:12:14Z</time>
      </trkpt>
      <trkpt lat="43.40119" lon="5.67524">
        <ele>650</ele>
        <time>2014-01-25T11:12:24Z</time>
      </trkpt>
      <trkpt lat="43.40125" lon="5.6753">
        <ele>647</ele>
        <time>2014-01-25T11:12:34Z</time>
      </trkpt>
      <trkpt lat="43.4013" lon="5.67537">
        <ele>645</ele>
        <time>2014-01-25T11:12:43Z</time>
      </trkpt>
      <trkpt lat="43.40135" lon="5.67543">
        <ele>641</ele>
        <time>2014-01-25T11:12:55Z</time>
      </trkpt>
      <trkpt lat="43.40144" lon="5.67551">
        <ele>639</ele>
        <time>2014-01-25T11:13:05Z</time>
      </trkpt>
      <trkpt lat="43.40155" lon="5.67565">
        <ele>638</ele>
        <time>2014-01-25T11:13:16Z</time>
      </trkpt>
      <trkpt lat="43.40161" lon="5.67578">
        <ele>634</ele>
        <time>2014-01-25T11:13:25Z</time>
      </trkpt>
      <trkpt lat="43.40165" lon="5.67594">
        <ele>633</ele>
        <time>2014-01-25T11:13:35Z</time>
      </trkpt>
      <trkpt lat="43.40169" lon="5.67608">
        <ele>631</ele>
        <time>2014-01-25T11:13:45Z</time>
      </trkpt>
      <trkpt lat="43.40175" lon="5.67621">
        <ele>630</ele>
        <time>2014-01-25T11:13:55Z</time>
      </trkpt>
      <trkpt lat="43.40178" lon="5.67637">
        <ele>630</ele>
        <time>2014-01-25T11:14:05Z</time>
      </trkpt>
      <trkpt lat="43.40181" lon="5.67651">
        <ele>629</ele>
        <time>2014-01-25T11:14:15Z</time>
      </trkpt>
      <trkpt lat="43.40191" lon="5.67661">
        <ele>628</ele>
        <time>2014-01-25T11:14:25Z</time>
      </trkpt>
      <trkpt lat="43.40202" lon="5.6766">
        <ele>627</ele>
        <time>2014-01-25T11:14:35Z</time>
      </trkpt>
      <trkpt lat="43.40205" lon="5.67665">
        <ele>625</ele>
        <time>2014-01-25T11:14:44Z</time>
      </trkpt>
      <trkpt lat="43.40203" lon="5.67686">
        <ele>625</ele>
        <time>2014-01-25T11:14:54Z</time>
      </trkpt>
      <trkpt lat="43.40204" lon="5.677">
        <ele>624</ele>
        <time>2014-01-25T11:15:03Z</time>
      </trkpt>
      <trkpt lat="43.40207" lon="5.67717">
        <ele>624</ele>
        <time>2014-01-25T11:15:12Z</time>
      </trkpt>
      <trkpt lat="43.40209" lon="5.67731">
        <ele>624</ele>
        <time>2014-01-25T11:15:21Z</time>
      </trkpt>
      <trkpt lat="43.40214" lon="5.67746">
        <ele>624</ele>
        <time>2014-01-25T11:15:31Z</time>
      </trkpt>
      <trkpt lat="43.40224" lon="5.67757">
        <ele>624</ele>
        <time>2014-01-25T11:15:40Z</time>
      </trkpt>
      <trkpt lat="43.40228" lon="5.67771">
        <ele>623</ele>
        <time>2014-01-25T11:15:49Z</time>
      </trkpt>
      <trkpt lat="43.40231" lon="5.67785">
        <ele>622</ele>
        <time>2014-01-25T11:15:58Z</time>
      </trkpt>
      <trkpt lat="43.40234" lon="5.67798">
        <ele>622</ele>
        <time>2014-01-25T11:16:08Z</time>
      </trkpt>
      <trkpt lat="43.4024" lon="5.67808">
        <ele>620</ele>
        <time>2014-01-25T11:16:18Z</time>
      </trkpt>
      <trkpt lat="43.40244" lon="5.67818">
        <ele>618</ele>
        <time>2014-01-25T11:16:28Z</time>
      </trkpt>
      <trkpt lat="43.40249" lon="5.67827">
        <ele>616</ele>
        <time>2014-01-25T11:16:38Z</time>
      </trkpt>
      <trkpt lat="43.40255" lon="5.67837">
        <ele>613</ele>
        <time>2014-01-25T11:16:48Z</time>
      </trkpt>
      <trkpt lat="43.4026" lon="5.67848">
        <ele>611</ele>
        <time>2014-01-25T11:16:58Z</time>
      </trkpt>
      <trkpt lat="43.40263" lon="5.67861">
        <ele>610</ele>
        <time>2014-01-25T11:17:07Z</time>
      </trkpt>
      <trkpt lat="43.40265" lon="5.67875">
        <ele>609</ele>
        <time>2014-01-25T11:17:17Z</time>
      </trkpt>
      <trkpt lat="43.40261" lon="5.67889">
        <ele>608</ele>
        <time>2014-01-25T11:17:26Z</time>
      </trkpt>
      <trkpt lat="43.40255" lon="5.679">
        <ele>608</ele>
        <time>2014-01-25T11:17:36Z</time>
      </trkpt>
      <trkpt lat="43.40249" lon="5.67912">
        <ele>608</ele>
        <time>2014-01-25T11:17:46Z</time>
      </trkpt>
      <trkpt lat="43.40246" lon="5.67927">
        <ele>608</ele>
        <time>2014-01-25T11:17:55Z</time>
      </trkpt>
      <trkpt lat="43.4024" lon="5.67937">
        <ele>606</ele>
        <time>2014-01-25T11:18:04Z</time>
      </trkpt>
      <trkpt lat="43.40242" lon="5.67949">
        <ele>605</ele>
        <time>2014-01-25T11:18:13Z</time>
      </trkpt>
      <trkpt lat="43.40242" lon="5.6796">
        <ele>605</ele>
        <time>2014-01-25T11:18:23Z</time>
      </trkpt>
      <trkpt lat="43.40243" lon="5.6797">
        <ele>603</ele>
        <time>2014-01-25T11:18:33Z</time>
      </trkpt>
      <trkpt lat="43.40243" lon="5.67981">
        <ele>602</ele>
        <time>2014-01-25T11:18:43Z</time>
      </trkpt>
      <trkpt lat="43.40247" lon="5.67992">
        <ele>602</ele>
        <time>2014-01-25T11:18:52Z</time>
      </trkpt>
      <trkpt lat="43.4025" lon="5.68003">
        <ele>602</ele>
        <time>2014-01-25T11:19:01Z</time>
      </trkpt>
      <trkpt lat="43.40252" lon="5.6801">
        <ele>600</ele>
        <time>2014-01-25T11:19:11Z</time>
      </trkpt>
      <trkpt lat="43.40258" lon="5.6802">
        <ele>599</ele>
        <time>2014-01-25T11:19:22Z</time>
      </trkpt>
      <trkpt lat="43.40263" lon="5.68029">
        <ele>597</ele>
        <time>2014-01-25T11:19:32Z</time>
      </trkpt>
      <trkpt lat="43.40267" lon="5.6804">
        <ele>596</ele>
        <time>2014-01-25T11:19:41Z</time>
      </trkpt>
      <trkpt lat="43.40271" lon="5.68047">
        <ele>596</ele>
        <time>2014-01-25T11:19:50Z</time>
      </trkpt>
      <trkpt lat="43.40274" lon="5.68052">
        <ele>596</ele>
        <time>2014-01-25T11:19:59Z</time>
      </trkpt>
      <trkpt lat="43.40277" lon="5.68058">
        <ele>596</ele>
        <time>2014-01-25T11:20:08Z</time>
      </trkpt>
      <trkpt lat="43.40279" lon="5.6807">
        <ele>596</ele>
        <time>2014-01-25T11:20:18Z</time>
      </trkpt>
      <trkpt lat="43.40284" lon="5.68078">
        <ele>596</ele>
        <time>2014-01-25T11:20:27Z</time>
      </trkpt>
      <trkpt lat="43.40289" lon="5.68087">
        <ele>596</ele>
        <time>2014-01-25T11:20:37Z</time>
      </trkpt>
      <trkpt lat="43.40292" lon="5.68093">
        <ele>596</ele>
        <time>2014-01-25T11:20:48Z</time>
      </trkpt>
      <trkpt lat="43.40293" lon="5.68099">
        <ele>596</ele>
        <time>2014-01-25T11:20:58Z</time>
      </trkpt>
      <trkpt lat="43.40295" lon="5.68108">
        <ele>596</ele>
        <time>2014-01-25T11:21:09Z</time>
      </trkpt>
      <trkpt lat="43.40299" lon="5.68115">
        <ele>595</ele>
        <time>2014-01-25T11:21:19Z</time>
      </trkpt>
      <trkpt lat="43.403" lon="5.68119">
        <ele>594</ele>
        <time>2014-01-25T11:21:29Z</time>
      </trkpt>
      <trkpt lat="43.40301" lon="5.68129">
        <ele>592</ele>
        <time>2014-01-25T11:21:39Z</time>
      </trkpt>
      <trkpt lat="43.40306" lon="5.68137">
        <ele>591</ele>
        <time>2014-01-25T11:21:49Z</time>
      </trkpt>
      <trkpt lat="43.40308" lon="5.68144">
        <ele>590</ele>
        <time>2014-01-25T11:22:08Z</time>
      </trkpt>
      <trkpt lat="43.4031" lon="5.68144">
        <ele>590</ele>
        <time>2014-01-25T11:22:17Z</time>
      </trkpt>
      <trkpt lat="43.4031" lon="5.68143">
        <ele>590</ele>
        <time>2014-01-25T11:22:34Z</time>
      </trkpt>
      <trkpt lat="43.4031" lon="5.68144">
        <ele>590</ele>
        <time>2014-01-25T11:23:09Z</time>
      </trkpt>
      <trkpt lat="43.40314" lon="5.68152">
        <ele>590</ele>
        <time>2014-01-25T11:23:19Z</time>
      </trkpt>
      <trkpt lat="43.40319" lon="5.68162">
        <ele>590</ele>
        <time>2014-01-25T11:23:28Z</time>
      </trkpt>
      <trkpt lat="43.40324" lon="5.68168">
        <ele>590</ele>
        <time>2014-01-25T11:23:37Z</time>
      </trkpt>
      <trkpt lat="43.40331" lon="5.68171">
        <ele>590</ele>
        <time>2014-01-25T11:23:48Z</time>
      </trkpt>
      <trkpt lat="43.40333" lon="5.68177">
        <ele>590</ele>
        <time>2014-01-25T11:23:58Z</time>
      </trkpt>
      <trkpt lat="43.40337" lon="5.68184">
        <ele>590</ele>
        <time>2014-01-25T11:24:07Z</time>
      </trkpt>
      <trkpt lat="43.40343" lon="5.68191">
        <ele>590</ele>
        <time>2014-01-25T11:24:17Z</time>
      </trkpt>
      <trkpt lat="43.40348" lon="5.68198">
        <ele>590</ele>
        <time>2014-01-25T11:24:26Z</time>
      </trkpt>
      <trkpt lat="43.40357" lon="5.68202">
        <ele>589</ele>
        <time>2014-01-25T11:24:35Z</time>
      </trkpt>
      <trkpt lat="43.40364" lon="5.6821">
        <ele>588</ele>
        <time>2014-01-25T11:24:46Z</time>
      </trkpt>
      <trkpt lat="43.4037" lon="5.68217">
        <ele>586</ele>
        <time>2014-01-25T11:24:56Z</time>
      </trkpt>
      <trkpt lat="43.40379" lon="5.68223">
        <ele>585</ele>
        <time>2014-01-25T11:25:06Z</time>
      </trkpt>
      <trkpt lat="43.40387" lon="5.68225">
        <ele>585</ele>
        <time>2014-01-25T11:25:16Z</time>
      </trkpt>
      <trkpt lat="43.40394" lon="5.68227">
        <ele>585</ele>
        <time>2014-01-25T11:25:26Z</time>
      </trkpt>
      <trkpt lat="43.404" lon="5.68232">
        <ele>584</ele>
        <time>2014-01-25T11:25:37Z</time>
      </trkpt>
      <trkpt lat="43.40405" lon="5.68235">
        <ele>582</ele>
        <time>2014-01-25T11:25:48Z</time>
      </trkpt>
      <trkpt lat="43.40413" lon="5.68235">
        <ele>581</ele>
        <time>2014-01-25T11:25:57Z</time>
      </trkpt>
      <trkpt lat="43.40422" lon="5.68235">
        <ele>580</ele>
        <time>2014-01-25T11:26:07Z</time>
      </trkpt>
      <trkpt lat="43.4043" lon="5.68236">
        <ele>580</ele>
        <time>2014-01-25T11:26:18Z</time>
      </trkpt>
      <trkpt lat="43.40434" lon="5.68243">
        <ele>579</ele>
        <time>2014-01-25T11:26:27Z</time>
      </trkpt>
      <trkpt lat="43.40443" lon="5.68245">
        <ele>577</ele>
        <time>2014-01-25T11:26:37Z</time>
      </trkpt>
      <trkpt lat="43.40452" lon="5.68245">
        <ele>575</ele>
        <time>2014-01-25T11:26:46Z</time>
      </trkpt>
      <trkpt lat="43.40459" lon="5.68251">
        <ele>575</ele>
        <time>2014-01-25T11:26:55Z</time>
      </trkpt>
      <trkpt lat="43.40467" lon="5.68256">
        <ele>575</ele>
        <time>2014-01-25T11:27:06Z</time>
      </trkpt>
      <trkpt lat="43.40469" lon="5.68256">
        <ele>575</ele>
        <time>2014-01-25T11:27:28Z</time>
      </trkpt>
      <trkpt lat="43.40472" lon="5.68262">
        <ele>575</ele>
        <time>2014-01-25T11:27:38Z</time>
      </trkpt>
      <trkpt lat="43.40479" lon="5.68268">
        <ele>575</ele>
        <time>2014-01-25T11:27:51Z</time>
      </trkpt>
      <trkpt lat="43.40485" lon="5.68271">
        <ele>575</ele>
        <time>2014-01-25T11:28:00Z</time>
      </trkpt>
      <trkpt lat="43.40494" lon="5.6827">
        <ele>575</ele>
        <time>2014-01-25T11:28:10Z</time>
      </trkpt>
      <trkpt lat="43.40499" lon="5.68272">
        <ele>575</ele>
        <time>2014-01-25T11:28:19Z</time>
      </trkpt>
      <trkpt lat="43.40505" lon="5.68272">
        <ele>574</ele>
        <time>2014-01-25T11:28:30Z</time>
      </trkpt>
      <trkpt lat="43.40511" lon="5.68271">
        <ele>574</ele>
        <time>2014-01-25T11:28:41Z</time>
      </trkpt>
      <trkpt lat="43.40515" lon="5.68273">
        <ele>574</ele>
        <time>2014-01-25T11:28:50Z</time>
      </trkpt>
      <trkpt lat="43.40519" lon="5.68274">
        <ele>574</ele>
        <time>2014-01-25T11:29:00Z</time>
      </trkpt>
      <trkpt lat="43.40523" lon="5.68277">
        <ele>574</ele>
        <time>2014-01-25T11:29:10Z</time>
      </trkpt>
      <trkpt lat="43.40525" lon="5.68274">
        <ele>574</ele>
        <time>2014-01-25T11:29:26Z</time>
      </trkpt>
      <trkpt lat="43.40527" lon="5.68274">
        <ele>574</ele>
        <time>2014-01-25T11:29:36Z</time>
      </trkpt>
      <trkpt lat="43.4053" lon="5.68275">
        <ele>574</ele>
        <time>2014-01-25T11:29:53Z</time>
      </trkpt>
      <trkpt lat="43.40533" lon="5.68275">
        <ele>574</ele>
        <time>2014-01-25T11:30:06Z</time>
      </trkpt>
      <trkpt lat="43.40536" lon="5.68277">
        <ele>574</ele>
        <time>2014-01-25T11:30:22Z</time>
      </trkpt>
      <trkpt lat="43.4054" lon="5.68277">
        <ele>574</ele>
        <time>2014-01-25T11:30:35Z</time>
      </trkpt>
      <trkpt lat="43.40546" lon="5.68284">
        <ele>573</ele>
        <time>2014-01-25T11:30:45Z</time>
      </trkpt>
      <trkpt lat="43.40546" lon="5.6829">
        <ele>571</ele>
        <time>2014-01-25T11:30:55Z</time>
      </trkpt>
      <trkpt lat="43.40552" lon="5.68296">
        <ele>570</ele>
        <time>2014-01-25T11:31:05Z</time>
      </trkpt>
      <trkpt lat="43.40561" lon="5.683">
        <ele>569</ele>
        <time>2014-01-25T11:31:15Z</time>
      </trkpt>
      <trkpt lat="43.40564" lon="5.68303">
        <ele>569</ele>
        <time>2014-01-25T11:31:24Z</time>
      </trkpt>
      <trkpt lat="43.40572" lon="5.68304">
        <ele>568</ele>
        <time>2014-01-25T11:31:34Z</time>
      </trkpt>
      <trkpt lat="43.40577" lon="5.68305">
        <ele>568</ele>
        <time>2014-01-25T11:31:44Z</time>
      </trkpt>
      <trkpt lat="43.40581" lon="5.68307">
        <ele>568</ele>
        <time>2014-01-25T11:31:53Z</time>
      </trkpt>
      <trkpt lat="43.40585" lon="5.68307">
        <ele>568</ele>
        <time>2014-01-25T11:32:06Z</time>
      </trkpt>
      <trkpt lat="43.40588" lon="5.68308">
        <ele>568</ele>
        <time>2014-01-25T11:32:16Z</time>
      </trkpt>
      <trkpt lat="43.40594" lon="5.68312">
        <ele>568</ele>
        <time>2014-01-25T11:32:26Z</time>
      </trkpt>
      <trkpt lat="43.40599" lon="5.68317">
        <ele>568</ele>
        <time>2014-01-25T11:32:36Z</time>
      </trkpt>
      <trkpt lat="43.40604" lon="5.68322">
        <ele>568</ele>
        <time>2014-01-25T11:32:46Z</time>
      </trkpt>
      <trkpt lat="43.40609" lon="5.68325">
        <ele>567</ele>
        <time>2014-01-25T11:32:55Z</time>
      </trkpt>
      <trkpt lat="43.40614" lon="5.68323">
        <ele>567</ele>
        <time>2014-01-25T11:33:05Z</time>
      </trkpt>
      <trkpt lat="43.4062" lon="5.68326">
        <ele>567</ele>
        <time>2014-01-25T11:33:15Z</time>
      </trkpt>
      <trkpt lat="43.40626" lon="5.6833">
        <ele>567</ele>
        <time>2014-01-25T11:33:24Z</time>
      </trkpt>
      <trkpt lat="43.40632" lon="5.68336">
        <ele>567</ele>
        <time>2014-01-25T11:33:34Z</time>
      </trkpt>
      <trkpt lat="43.40636" lon="5.68344">
        <ele>566</ele>
        <time>2014-01-25T11:33:44Z</time>
      </trkpt>
      <trkpt lat="43.40643" lon="5.68351">
        <ele>564</ele>
        <time>2014-01-25T11:33:54Z</time>
      </trkpt>
      <trkpt lat="43.40642" lon="5.68356">
        <ele>562</ele>
        <time>2014-01-25T11:34:04Z</time>
      </trkpt>
      <trkpt lat="43.40647" lon="5.68359">
        <ele>560</ele>
        <time>2014-01-25T11:34:13Z</time>
      </trkpt>
      <trkpt lat="43.40653" lon="5.68366">
        <ele>558</ele>
        <time>2014-01-25T11:34:24Z</time>
      </trkpt>
      <trkpt lat="43.40651" lon="5.68369">
        <ele>557</ele>
        <time>2014-01-25T11:34:33Z</time>
      </trkpt>
      <trkpt lat="43.40649" lon="5.68374">
        <ele>555</ele>
        <time>2014-01-25T11:34:42Z</time>
      </trkpt>
      <trkpt lat="43.40654" lon="5.68382">
        <ele>554</ele>
        <time>2014-01-25T11:34:51Z</time>
      </trkpt>
      <trkpt lat="43.40657" lon="5.68391">
        <ele>551</ele>
        <time>2014-01-25T11:35:01Z</time>
      </trkpt>
      <trkpt lat="43.40662" lon="5.68401">
        <ele>550</ele>
        <time>2014-01-25T11:35:11Z</time>
      </trkpt>
      <trkpt lat="43.40668" lon="5.6841">
        <ele>548</ele>
        <time>2014-01-25T11:35:21Z</time>
      </trkpt>
      <trkpt lat="43.40672" lon="5.68415">
        <ele>546</ele>
        <time>2014-01-25T11:35:30Z</time>
      </trkpt>
      <trkpt lat="43.40675" lon="5.68422">
        <ele>545</ele>
        <time>2014-01-25T11:35:40Z</time>
      </trkpt>
      <trkpt lat="43.40678" lon="5.68427">
        <ele>544</ele>
        <time>2014-01-25T11:35:51Z</time>
      </trkpt>
      <trkpt lat="43.4068" lon="5.68428">
        <ele>543</ele>
        <time>2014-01-25T11:36:01Z</time>
      </trkpt>
      <trkpt lat="43.40684" lon="5.68436">
        <ele>541</ele>
        <time>2014-01-25T11:36:11Z</time>
      </trkpt>
      <trkpt lat="43.40687" lon="5.68446">
        <ele>540</ele>
        <time>2014-01-25T11:36:20Z</time>
      </trkpt>
      <trkpt lat="43.40692" lon="5.68458">
        <ele>538</ele>
        <time>2014-01-25T11:36:30Z</time>
      </trkpt>
      <trkpt lat="43.40695" lon="5.68471">
        <ele>537</ele>
        <time>2014-01-25T11:36:40Z</time>
      </trkpt>
      <trkpt lat="43.40698" lon="5.68483">
        <ele>534</ele>
        <time>2014-01-25T11:36:51Z</time>
      </trkpt>
      <trkpt lat="43.40697" lon="5.68489">
        <ele>533</ele>
        <time>2014-01-25T11:37:00Z</time>
      </trkpt>
      <trkpt lat="43.40697" lon="5.68496">
        <ele>531</ele>
        <time>2014-01-25T11:37:14Z</time>
      </trkpt>
      <trkpt lat="43.407" lon="5.68499">
        <ele>530</ele>
        <time>2014-01-25T11:37:29Z</time>
      </trkpt>
      <trkpt lat="43.40701" lon="5.68502">
        <ele>530</ele>
        <time>2014-01-25T11:37:42Z</time>
      </trkpt>
      <trkpt lat="43.40703" lon="5.68502">
        <ele>530</ele>
        <time>2014-01-25T11:37:51Z</time>
      </trkpt>
      <trkpt lat="43.40701" lon="5.68499">
        <ele>530</ele>
        <time>2014-01-25T11:38:01Z</time>
      </trkpt>
      <trkpt lat="43.40701" lon="5.685">
        <ele>530</ele>
        <time>2014-01-25T11:38:14Z</time>
      </trkpt>
      <trkpt lat="43.40701" lon="5.68503">
        <ele>530</ele>
        <time>2014-01-25T11:38:26Z</time>
      </trkpt>
      <trkpt lat="43.40702" lon="5.68509">
        <ele>530</ele>
        <time>2014-01-25T11:38:38Z</time>
      </trkpt>
      <trkpt lat="43.40702" lon="5.68517">
        <ele>530</ele>
        <time>2014-01-25T11:38:55Z</time>
      </trkpt>
      <trkpt lat="43.40701" lon="5.6852">
        <ele>530</ele>
        <time>2014-01-25T11:39:29Z</time>
      </trkpt>
      <trkpt lat="43.40705" lon="5.68523">
        <ele>530</ele>
        <time>2014-01-25T11:39:39Z</time>
      </trkpt>
      <trkpt lat="43.40709" lon="5.68529">
        <ele>530</ele>
        <time>2014-01-25T11:39:48Z</time>
      </trkpt>
      <trkpt lat="43.40716" lon="5.68534">
        <ele>530</ele>
        <time>2014-01-25T11:39:58Z</time>
      </trkpt>
      <trkpt lat="43.40721" lon="5.68537">
        <ele>530</ele>
        <time>2014-01-25T11:40:07Z</time>
      </trkpt>
      <trkpt lat="43.40728" lon="5.68542">
        <ele>530</ele>
        <time>2014-01-25T11:40:17Z</time>
      </trkpt>
      <trkpt lat="43.40735" lon="5.68548">
        <ele>531</ele>
        <time>2014-01-25T11:40:27Z</time>
      </trkpt>
      <trkpt lat="43.40741" lon="5.68553">
        <ele>533</ele>
        <time>2014-01-25T11:40:36Z</time>
      </trkpt>
      <trkpt lat="43.40749" lon="5.68561">
        <ele>533</ele>
        <time>2014-01-25T11:40:46Z</time>
      </trkpt>
      <trkpt lat="43.40756" lon="5.68566">
        <ele>533</ele>
        <time>2014-01-25T11:40:55Z</time>
      </trkpt>
      <trkpt lat="43.40763" lon="5.68577">
        <ele>534</ele>
        <time>2014-01-25T11:41:05Z</time>
      </trkpt>
      <trkpt lat="43.4077" lon="5.68583">
        <ele>535</ele>
        <time>2014-01-25T11:41:14Z</time>
      </trkpt>
      <trkpt lat="43.40778" lon="5.68583">
        <ele>536</ele>
        <time>2014-01-25T11:41:24Z</time>
      </trkpt>
      <trkpt lat="43.40785" lon="5.68586">
        <ele>538</ele>
        <time>2014-01-25T11:41:34Z</time>
      </trkpt>
      <trkpt lat="43.40791" lon="5.68587">
        <ele>538</ele>
        <time>2014-01-25T11:41:43Z</time>
      </trkpt>
      <trkpt lat="43.40797" lon="5.6859">
        <ele>539</ele>
        <time>2014-01-25T11:41:52Z</time>
      </trkpt>
      <trkpt lat="43.40804" lon="5.68593">
        <ele>541</ele>
        <time>2014-01-25T11:42:02Z</time>
      </trkpt>
      <trkpt lat="43.4081" lon="5.68596">
        <ele>541</ele>
        <time>2014-01-25T11:42:12Z</time>
      </trkpt>
      <trkpt lat="43.40817" lon="5.686">
        <ele>543</ele>
        <time>2014-01-25T11:42:22Z</time>
      </trkpt>
      <trkpt lat="43.40823" lon="5.686">
        <ele>544</ele>
        <time>2014-01-25T11:42:31Z</time>
      </trkpt>
      <trkpt lat="43.4083" lon="5.68605">
        <ele>546</ele>
        <time>2014-01-25T11:42:41Z</time>
      </trkpt>
      <trkpt lat="43.40839" lon="5.68608">
        <ele>547</ele>
        <time>2014-01-25T11:42:51Z</time>
      </trkpt>
      <trkpt lat="43.40846" lon="5.6861">
        <ele>549</ele>
        <time>2014-01-25T11:43:01Z</time>
      </trkpt>
      <trkpt lat="43.40853" lon="5.68613">
        <ele>549</ele>
        <time>2014-01-25T11:43:10Z</time>
      </trkpt>
      <trkpt lat="43.40862" lon="5.68615">
        <ele>550</ele>
        <time>2014-01-25T11:43:21Z</time>
      </trkpt>
      <trkpt lat="43.4087" lon="5.68619">
        <ele>550</ele>
        <time>2014-01-25T11:43:31Z</time>
      </trkpt>
      <trkpt lat="43.40879" lon="5.68622">
        <ele>550</ele>
        <time>2014-01-25T11:43:40Z</time>
      </trkpt>
      <trkpt lat="43.40888" lon="5.68626">
        <ele>550</ele>
        <time>2014-01-25T11:43:49Z</time>
      </trkpt>
      <trkpt lat="43.40896" lon="5.68631">
        <ele>550</ele>
        <time>2014-01-25T11:43:59Z</time>
      </trkpt>
      <trkpt lat="43.40902" lon="5.68638">
        <ele>551</ele>
        <time>2014-01-25T11:44:09Z</time>
      </trkpt>
      <trkpt lat="43.4091" lon="5.68645">
        <ele>552</ele>
        <time>2014-01-25T11:44:19Z</time>
      </trkpt>
      <trkpt lat="43.40918" lon="5.68651">
        <ele>554</ele>
        <time>2014-01-25T11:44:29Z</time>
      </trkpt>
      <trkpt lat="43.40924" lon="5.68657">
        <ele>554</ele>
        <time>2014-01-25T11:44:38Z</time>
      </trkpt>
      <trkpt lat="43.4093" lon="5.68664">
        <ele>555</ele>
        <time>2014-01-25T11:44:48Z</time>
      </trkpt>
      <trkpt lat="43.40935" lon="5.68671">
        <ele>556</ele>
        <time>2014-01-25T11:44:58Z</time>
      </trkpt>
      <trkpt lat="43.40941" lon="5.68677">
        <ele>558</ele>
        <time>2014-01-25T11:45:08Z</time>
      </trkpt>
      <trkpt lat="43.40948" lon="5.68681">
        <ele>559</ele>
        <time>2014-01-25T11:45:18Z</time>
      </trkpt>
      <trkpt lat="43.40952" lon="5.68688">
        <ele>561</ele>
        <time>2014-01-25T11:45:27Z</time>
      </trkpt>
      <trkpt lat="43.40956" lon="5.68693">
        <ele>562</ele>
        <time>2014-01-25T11:45:36Z</time>
      </trkpt>
      <trkpt lat="43.4096" lon="5.68697">
        <ele>562</ele>
        <time>2014-01-25T11:45:45Z</time>
      </trkpt>
      <trkpt lat="43.40965" lon="5.68702">
        <ele>562</ele>
        <time>2014-01-25T11:45:54Z</time>
      </trkpt>
      <trkpt lat="43.4097" lon="5.68706">
        <ele>564</ele>
        <time>2014-01-25T11:46:03Z</time>
      </trkpt>
      <trkpt lat="43.40977" lon="5.68709">
        <ele>567</ele>
        <time>2014-01-25T11:46:14Z</time>
      </trkpt>
      <trkpt lat="43.40982" lon="5.68711">
        <ele>570</ele>
        <time>2014-01-25T11:46:23Z</time>
      </trkpt>
      <trkpt lat="43.40986" lon="5.68717">
        <ele>574</ele>
        <time>2014-01-25T11:46:40Z</time>
      </trkpt>
      <trkpt lat="43.40986" lon="5.68719">
        <ele>574</ele>
        <time>2014-01-25T11:47:06Z</time>
      </trkpt>
      <trkpt lat="43.40989" lon="5.68724">
        <ele>574</ele>
        <time>2014-01-25T11:47:17Z</time>
      </trkpt>
      <trkpt lat="43.40994" lon="5.68731">
        <ele>574</ele>
        <time>2014-01-25T11:47:27Z</time>
      </trkpt>
      <trkpt lat="43.40998" lon="5.68736">
        <ele>575</ele>
        <time>2014-01-25T11:47:37Z</time>
      </trkpt>
      <trkpt lat="43.41001" lon="5.68742">
        <ele>576</ele>
        <time>2014-01-25T11:47:46Z</time>
      </trkpt>
      <trkpt lat="43.41007" lon="5.68745">
        <ele>578</ele>
        <time>2014-01-25T11:47:56Z</time>
      </trkpt>
      <trkpt lat="43.41012" lon="5.68748">
        <ele>579</ele>
        <time>2014-01-25T11:48:05Z</time>
      </trkpt>
      <trkpt lat="43.41016" lon="5.68755">
        <ele>580</ele>
        <time>2014-01-25T11:48:15Z</time>
      </trkpt>
      <trkpt lat="43.4102" lon="5.6876">
        <ele>580</ele>
        <time>2014-01-25T11:48:24Z</time>
      </trkpt>
      <trkpt lat="43.41023" lon="5.68766">
        <ele>582</ele>
        <time>2014-01-25T11:48:33Z</time>
      </trkpt>
      <trkpt lat="43.41027" lon="5.68774">
        <ele>583</ele>
        <time>2014-01-25T11:48:43Z</time>
      </trkpt>
      <trkpt lat="43.41033" lon="5.6878">
        <ele>584</ele>
        <time>2014-01-25T11:48:53Z</time>
      </trkpt>
      <trkpt lat="43.4104" lon="5.68783">
        <ele>584</ele>
        <time>2014-01-25T11:49:03Z</time>
      </trkpt>
      <trkpt lat="43.41046" lon="5.68787">
        <ele>585</ele>
        <time>2014-01-25T11:49:13Z</time>
      </trkpt>
      <trkpt lat="43.41053" lon="5.6879">
        <ele>588</ele>
        <time>2014-01-25T11:49:23Z</time>
      </trkpt>
      <trkpt lat="43.4106" lon="5.68795">
        <ele>590</ele>
        <time>2014-01-25T11:49:34Z</time>
      </trkpt>
      <trkpt lat="43.41065" lon="5.68803">
        <ele>591</ele>
        <time>2014-01-25T11:49:44Z</time>
      </trkpt>
      <trkpt lat="43.4107" lon="5.6881">
        <ele>592</ele>
        <time>2014-01-25T11:49:55Z</time>
      </trkpt>
      <trkpt lat="43.41072" lon="5.68817">
        <ele>593</ele>
        <time>2014-01-25T11:50:05Z</time>
      </trkpt>
      <trkpt lat="43.41076" lon="5.68824">
        <ele>594</ele>
        <time>2014-01-25T11:50:14Z</time>
      </trkpt>
      <trkpt lat="43.41079" lon="5.68831">
        <ele>596</ele>
        <time>2014-01-25T11:50:23Z</time>
      </trkpt>
      <trkpt lat="43.41083" lon="5.68836">
        <ele>597</ele>
        <time>2014-01-25T11:50:33Z</time>
      </trkpt>
      <trkpt lat="43.4109" lon="5.68843">
        <ele>599</ele>
        <time>2014-01-25T11:50:43Z</time>
      </trkpt>
      <trkpt lat="43.41096" lon="5.68849">
        <ele>600</ele>
        <time>2014-01-25T11:50:54Z</time>
      </trkpt>
      <trkpt lat="43.41101" lon="5.68858">
        <ele>601</ele>
        <time>2014-01-25T11:51:04Z</time>
      </trkpt>
      <trkpt lat="43.41105" lon="5.68865">
        <ele>602</ele>
        <time>2014-01-25T11:51:13Z</time>
      </trkpt>
      <trkpt lat="43.41109" lon="5.68874">
        <ele>602</ele>
        <time>2014-01-25T11:51:24Z</time>
      </trkpt>
      <trkpt lat="43.41117" lon="5.68882">
        <ele>604</ele>
        <time>2014-01-25T11:51:34Z</time>
      </trkpt>
      <trkpt lat="43.41123" lon="5.68891">
        <ele>604</ele>
        <time>2014-01-25T11:51:44Z</time>
      </trkpt>
      <trkpt lat="43.41125" lon="5.68899">
        <ele>604</ele>
        <time>2014-01-25T11:51:53Z</time>
      </trkpt>
      <trkpt lat="43.41126" lon="5.68906">
        <ele>605</ele>
        <time>2014-01-25T11:52:03Z</time>
      </trkpt>
      <trkpt lat="43.41129" lon="5.68915">
        <ele>607</ele>
        <time>2014-01-25T11:52:13Z</time>
      </trkpt>
      <trkpt lat="43.41132" lon="5.68923">
        <ele>610</ele>
        <time>2014-01-25T11:52:23Z</time>
      </trkpt>
      <trkpt lat="43.41135" lon="5.6893">
        <ele>612</ele>
        <time>2014-01-25T11:52:32Z</time>
      </trkpt>
      <trkpt lat="43.41138" lon="5.68937">
        <ele>613</ele>
        <time>2014-01-25T11:52:41Z</time>
      </trkpt>
      <trkpt lat="43.41143" lon="5.68942">
        <ele>613</ele>
        <time>2014-01-25T11:52:50Z</time>
      </trkpt>
      <trkpt lat="43.41147" lon="5.68947">
        <ele>613</ele>
        <time>2014-01-25T11:52:59Z</time>
      </trkpt>
      <trkpt lat="43.41151" lon="5.68952">
        <ele>613</ele>
        <time>2014-01-25T11:53:09Z</time>
      </trkpt>
      <trkpt lat="43.41154" lon="5.68957">
        <ele>615</ele>
        <time>2014-01-25T11:53:19Z</time>
      </trkpt>
      <trkpt lat="43.41155" lon="5.68964">
        <ele>615</ele>
        <time>2014-01-25T11:53:37Z</time>
      </trkpt>
      <trkpt lat="43.41157" lon="5.68964">
        <ele>617</ele>
        <time>2014-01-25T11:54:03Z</time>
      </trkpt>
      <trkpt lat="43.41157" lon="5.68966">
        <ele>617</ele>
        <time>2014-01-25T11:54:22Z</time>
      </trkpt>
      <trkpt lat="43.41162" lon="5.6897">
        <ele>617</ele>
        <time>2014-01-25T11:54:31Z</time>
      </trkpt>
      <trkpt lat="43.41167" lon="5.68969">
        <ele>617</ele>
        <time>2014-01-25T11:54:40Z</time>
      </trkpt>
      <trkpt lat="43.41174" lon="5.68968">
        <ele>616</ele>
        <time>2014-01-25T11:54:50Z</time>
      </trkpt>
      <trkpt lat="43.41182" lon="5.68969">
        <ele>614</ele>
        <time>2014-01-25T11:55:00Z</time>
      </trkpt>
      <trkpt lat="43.41191" lon="5.68969">
        <ele>611</ele>
        <time>2014-01-25T11:55:10Z</time>
      </trkpt>
      <trkpt lat="43.41201" lon="5.68969">
        <ele>610</ele>
        <time>2014-01-25T11:55:20Z</time>
      </trkpt>
      <trkpt lat="43.41209" lon="5.68971">
        <ele>609</ele>
        <time>2014-01-25T11:55:30Z</time>
      </trkpt>
      <trkpt lat="43.41213" lon="5.68972">
        <ele>609</ele>
        <time>2014-01-25T11:55:39Z</time>
      </trkpt>
      <trkpt lat="43.41219" lon="5.68976">
        <ele>609</ele>
        <time>2014-01-25T11:55:48Z</time>
      </trkpt>
      <trkpt lat="43.41227" lon="5.68979">
        <ele>607</ele>
        <time>2014-01-25T11:55:57Z</time>
      </trkpt>
      <trkpt lat="43.41235" lon="5.68983">
        <ele>605</ele>
        <time>2014-01-25T11:56:07Z</time>
      </trkpt>
      <trkpt lat="43.41245" lon="5.68984">
        <ele>604</ele>
        <time>2014-01-25T11:56:17Z</time>
      </trkpt>
      <trkpt lat="43.41256" lon="5.68983">
        <ele>603</ele>
        <time>2014-01-25T11:56:27Z</time>
      </trkpt>
      <trkpt lat="43.41266" lon="5.68982">
        <ele>601</ele>
        <time>2014-01-25T11:56:37Z</time>
      </trkpt>
      <trkpt lat="43.41273" lon="5.68983">
        <ele>600</ele>
        <time>2014-01-25T11:56:46Z</time>
      </trkpt>
      <trkpt lat="43.4128" lon="5.68983">
        <ele>600</ele>
        <time>2014-01-25T11:56:56Z</time>
      </trkpt>
      <trkpt lat="43.41288" lon="5.68982">
        <ele>600</ele>
        <time>2014-01-25T11:57:07Z</time>
      </trkpt>
      <trkpt lat="43.41289" lon="5.68982">
        <ele>600</ele>
        <time>2014-01-25T11:57:16Z</time>
      </trkpt>
      <trkpt lat="43.41297" lon="5.68981">
        <ele>600</ele>
        <time>2014-01-25T11:57:26Z</time>
      </trkpt>
      <trkpt lat="43.41306" lon="5.68982">
        <ele>600</ele>
        <time>2014-01-25T11:57:36Z</time>
      </trkpt>
      <trkpt lat="43.41313" lon="5.68984">
        <ele>601</ele>
        <time>2014-01-25T11:57:46Z</time>
      </trkpt>
      <trkpt lat="43.41319" lon="5.68986">
        <ele>602</ele>
        <time>2014-01-25T11:57:55Z</time>
      </trkpt>
      <trkpt lat="43.41326" lon="5.68987">
        <ele>604</ele>
        <time>2014-01-25T11:58:05Z</time>
      </trkpt>
      <trkpt lat="43.41333" lon="5.68987">
        <ele>606</ele>
        <time>2014-01-25T11:58:15Z</time>
      </trkpt>
      <trkpt lat="43.41338" lon="5.68985">
        <ele>609</ele>
        <time>2014-01-25T11:58:25Z</time>
      </trkpt>
      <trkpt lat="43.41343" lon="5.68985">
        <ele>611</ele>
        <time>2014-01-25T11:58:34Z</time>
      </trkpt>
      <trkpt lat="43.41346" lon="5.68986">
        <ele>612</ele>
        <time>2014-01-25T11:58:43Z</time>
      </trkpt>
      <trkpt lat="43.41351" lon="5.6899">
        <ele>614</ele>
        <time>2014-01-25T11:58:52Z</time>
      </trkpt>
      <trkpt lat="43.41355" lon="5.68996">
        <ele>616</ele>
        <time>2014-01-25T11:59:03Z</time>
      </trkpt>
      <trkpt lat="43.41359" lon="5.68997">
        <ele>616</ele>
        <time>2014-01-25T11:59:13Z</time>
      </trkpt>
      <trkpt lat="43.41363" lon="5.68999">
        <ele>618</ele>
        <time>2014-01-25T11:59:22Z</time>
      </trkpt>
      <trkpt lat="43.41368" lon="5.68998">
        <ele>619</ele>
        <time>2014-01-25T11:59:33Z</time>
      </trkpt>
      <trkpt lat="43.41373" lon="5.68998">
        <ele>621</ele>
        <time>2014-01-25T11:59:42Z</time>
      </trkpt>
      <trkpt lat="43.41378" lon="5.69002">
        <ele>623</ele>
        <time>2014-01-25T11:59:54Z</time>
      </trkpt>
      <trkpt lat="43.41382" lon="5.69004">
        <ele>624</ele>
        <time>2014-01-25T12:00:03Z</time>
      </trkpt>
      <trkpt lat="43.41385" lon="5.69005">
        <ele>626</ele>
        <time>2014-01-25T12:00:12Z</time>
      </trkpt>
      <trkpt lat="43.41389" lon="5.69007">
        <ele>628</ele>
        <time>2014-01-25T12:00:22Z</time>
      </trkpt>
      <trkpt lat="43.41394" lon="5.69009">
        <ele>629</ele>
        <time>2014-01-25T12:00:32Z</time>
      </trkpt>
      <trkpt lat="43.41397" lon="5.69015">
        <ele>630</ele>
        <time>2014-01-25T12:00:42Z</time>
      </trkpt>
      <trkpt lat="43.414" lon="5.69023">
        <ele>631</ele>
        <time>2014-01-25T12:00:53Z</time>
      </trkpt>
      <trkpt lat="43.41403" lon="5.69033">
        <ele>632</ele>
        <time>2014-01-25T12:01:03Z</time>
      </trkpt>
      <trkpt lat="43.41405" lon="5.69044">
        <ele>633</ele>
        <time>2014-01-25T12:01:13Z</time>
      </trkpt>
      <trkpt lat="43.41406" lon="5.69054">
        <ele>634</ele>
        <time>2014-01-25T12:01:23Z</time>
      </trkpt>
      <trkpt lat="43.41409" lon="5.69064">
        <ele>636</ele>
        <time>2014-01-25T12:01:33Z</time>
      </trkpt>
      <trkpt lat="43.41412" lon="5.69073">
        <ele>638</ele>
        <time>2014-01-25T12:01:43Z</time>
      </trkpt>
      <trkpt lat="43.41415" lon="5.69079">
        <ele>640</ele>
        <time>2014-01-25T12:01:54Z</time>
      </trkpt>
      <trkpt lat="43.41417" lon="5.69081">
        <ele>641</ele>
        <time>2014-01-25T12:02:08Z</time>
      </trkpt>
      <trkpt lat="43.41415" lon="5.69078">
        <ele>641</ele>
        <time>2014-01-25T12:02:33Z</time>
      </trkpt>
      <trkpt lat="43.41416" lon="5.6908">
        <ele>642</ele>
        <time>2014-01-25T12:02:44Z</time>
      </trkpt>
      <trkpt lat="43.4142" lon="5.69089">
        <ele>642</ele>
        <time>2014-01-25T12:02:54Z</time>
      </trkpt>
      <trkpt lat="43.41425" lon="5.69093">
        <ele>642</ele>
        <time>2014-01-25T12:03:05Z</time>
      </trkpt>
      <trkpt lat="43.41427" lon="5.69096">
        <ele>642</ele>
        <time>2014-01-25T12:03:25Z</time>
      </trkpt>
      <trkpt lat="43.41429" lon="5.69099">
        <ele>642</ele>
        <time>2014-01-25T12:03:35Z</time>
      </trkpt>
      <trkpt lat="43.4143" lon="5.69101">
        <ele>643</ele>
        <time>2014-01-25T12:04:03Z</time>
      </trkpt>
      <trkpt lat="43.41432" lon="5.69113">
        <ele>643</ele>
        <time>2014-01-25T12:04:13Z</time>
      </trkpt>
      <trkpt lat="43.41437" lon="5.69122">
        <ele>643</ele>
        <time>2014-01-25T12:04:23Z</time>
      </trkpt>
      <trkpt lat="43.4144" lon="5.69128">
        <ele>641</ele>
        <time>2014-01-25T12:04:32Z</time>
      </trkpt>
      <trkpt lat="43.41447" lon="5.69129">
        <ele>638</ele>
        <time>2014-01-25T12:04:43Z</time>
      </trkpt>
      <trkpt lat="43.41449" lon="5.69128">
        <ele>635</ele>
        <time>2014-01-25T12:04:52Z</time>
      </trkpt>
      <trkpt lat="43.41452" lon="5.69127">
        <ele>634</ele>
        <time>2014-01-25T12:05:02Z</time>
      </trkpt>
      <trkpt lat="43.41456" lon="5.6912">
        <ele>630</ele>
        <time>2014-01-25T12:05:12Z</time>
      </trkpt>
      <trkpt lat="43.41462" lon="5.69112">
        <ele>627</ele>
        <time>2014-01-25T12:05:21Z</time>
      </trkpt>
      <trkpt lat="43.4147" lon="5.69105">
        <ele>624</ele>
        <time>2014-01-25T12:05:31Z</time>
      </trkpt>
      <trkpt lat="43.41475" lon="5.691">
        <ele>623</ele>
        <time>2014-01-25T12:05:41Z</time>
      </trkpt>
      <trkpt lat="43.41481" lon="5.69091">
        <ele>622</ele>
        <time>2014-01-25T12:05:51Z</time>
      </trkpt>
      <trkpt lat="43.41486" lon="5.69087">
        <ele>622</ele>
        <time>2014-01-25T12:06:02Z</time>
      </trkpt>
      <trkpt lat="43.41497" lon="5.69089">
        <ele>622</ele>
        <time>2014-01-25T12:06:11Z</time>
      </trkpt>
      <trkpt lat="43.41505" lon="5.69097">
        <ele>622</ele>
        <time>2014-01-25T12:06:21Z</time>
      </trkpt>
      <trkpt lat="43.41516" lon="5.691">
        <ele>622</ele>
        <time>2014-01-25T12:06:31Z</time>
      </trkpt>
      <trkpt lat="43.41522" lon="5.69104">
        <ele>622</ele>
        <time>2014-01-25T12:06:40Z</time>
      </trkpt>
      <trkpt lat="43.41531" lon="5.69107">
        <ele>622</ele>
        <time>2014-01-25T12:06:50Z</time>
      </trkpt>
      <trkpt lat="43.41537" lon="5.69112">
        <ele>622</ele>
        <time>2014-01-25T12:07:00Z</time>
      </trkpt>
      <trkpt lat="43.41545" lon="5.6912">
        <ele>622</ele>
        <time>2014-01-25T12:07:10Z</time>
      </trkpt>
      <trkpt lat="43.41551" lon="5.69131">
        <ele>622</ele>
        <time>2014-01-25T12:07:19Z</time>
      </trkpt>
      <trkpt lat="43.41559" lon="5.69136">
        <ele>622</ele>
        <time>2014-01-25T12:07:29Z</time>
      </trkpt>
      <trkpt lat="43.41564" lon="5.69147">
        <ele>622</ele>
        <time>2014-01-25T12:07:38Z</time>
      </trkpt>
      <trkpt lat="43.41571" lon="5.69161">
        <ele>622</ele>
        <time>2014-01-25T12:07:48Z</time>
      </trkpt>
      <trkpt lat="43.41578" lon="5.69177">
        <ele>620</ele>
        <time>2014-01-25T12:07:58Z</time>
      </trkpt>
      <trkpt lat="43.41585" lon="5.6919">
        <ele>620</ele>
        <time>2014-01-25T12:08:08Z</time>
      </trkpt>
      <trkpt lat="43.41593" lon="5.69203">
        <ele>620</ele>
        <time>2014-01-25T12:08:18Z</time>
      </trkpt>
      <trkpt lat="43.41596" lon="5.69219">
        <ele>620</ele>
        <time>2014-01-25T12:08:28Z</time>
      </trkpt>
      <trkpt lat="43.41603" lon="5.69235">
        <ele>620</ele>
        <time>2014-01-25T12:08:39Z</time>
      </trkpt>
      <trkpt lat="43.41607" lon="5.69248">
        <ele>620</ele>
        <time>2014-01-25T12:08:49Z</time>
      </trkpt>
      <trkpt lat="43.41611" lon="5.69259">
        <ele>620</ele>
        <time>2014-01-25T12:08:58Z</time>
      </trkpt>
      <trkpt lat="43.41616" lon="5.69269">
        <ele>620</ele>
        <time>2014-01-25T12:09:08Z</time>
      </trkpt>
      <trkpt lat="43.4162" lon="5.69281">
        <ele>620</ele>
        <time>2014-01-25T12:09:18Z</time>
      </trkpt>
      <trkpt lat="43.41624" lon="5.69294">
        <ele>619</ele>
        <time>2014-01-25T12:09:27Z</time>
      </trkpt>
      <trkpt lat="43.41631" lon="5.69303">
        <ele>619</ele>
        <time>2014-01-25T12:09:37Z</time>
      </trkpt>
      <trkpt lat="43.41636" lon="5.69316">
        <ele>619</ele>
        <time>2014-01-25T12:09:47Z</time>
      </trkpt>
      <trkpt lat="43.4164" lon="5.69325">
        <ele>619</ele>
        <time>2014-01-25T12:09:57Z</time>
      </trkpt>
      <trkpt lat="43.41641" lon="5.69327">
        <ele>619</ele>
        <time>2014-01-25T12:10:08Z</time>
      </trkpt>
      <trkpt lat="43.41642" lon="5.69329">
        <ele>619</ele>
        <time>2014-01-25T12:10:19Z</time>
      </trkpt>
      <trkpt lat="43.41647" lon="5.69339">
        <ele>619</ele>
        <time>2014-01-25T12:10:30Z</time>
      </trkpt>
      <trkpt lat="43.41651" lon="5.69336">
        <ele>619</ele>
        <time>2014-01-25T12:10:40Z</time>
      </trkpt>
      <trkpt lat="43.41653" lon="5.69328">
        <ele>619</ele>
        <time>2014-01-25T12:10:49Z</time>
      </trkpt>
      <trkpt lat="43.41658" lon="5.69335">
        <ele>618</ele>
        <time>2014-01-25T12:10:58Z</time>
      </trkpt>
      <trkpt lat="43.41662" lon="5.69339">
        <ele>614</ele>
        <time>2014-01-25T12:11:09Z</time>
      </trkpt>
      <trkpt lat="43.41667" lon="5.69343">
        <ele>610</ele>
        <time>2014-01-25T12:11:19Z</time>
      </trkpt>
      <trkpt lat="43.41673" lon="5.6935">
        <ele>607</ele>
        <time>2014-01-25T12:11:29Z</time>
      </trkpt>
      <trkpt lat="43.41679" lon="5.69361">
        <ele>606</ele>
        <time>2014-01-25T12:11:38Z</time>
      </trkpt>
      <trkpt lat="43.41687" lon="5.69373">
        <ele>604</ele>
        <time>2014-01-25T12:11:48Z</time>
      </trkpt>
      <trkpt lat="43.41694" lon="5.6938">
        <ele>602</ele>
        <time>2014-01-25T12:11:58Z</time>
      </trkpt>
      <trkpt lat="43.417" lon="5.69389">
        <ele>599</ele>
        <time>2014-01-25T12:12:08Z</time>
      </trkpt>
      <trkpt lat="43.41705" lon="5.69399">
        <ele>597</ele>
        <time>2014-01-25T12:12:18Z</time>
      </trkpt>
      <trkpt lat="43.41709" lon="5.6941">
        <ele>595</ele>
        <time>2014-01-25T12:12:27Z</time>
      </trkpt>
      <trkpt lat="43.41713" lon="5.69422">
        <ele>594</ele>
        <time>2014-01-25T12:12:37Z</time>
      </trkpt>
      <trkpt lat="43.41718" lon="5.69435">
        <ele>592</ele>
        <time>2014-01-25T12:12:46Z</time>
      </trkpt>
      <trkpt lat="43.41726" lon="5.69447">
        <ele>591</ele>
        <time>2014-01-25T12:12:55Z</time>
      </trkpt>
      <trkpt lat="43.4173" lon="5.69461">
        <ele>590</ele>
        <time>2014-01-25T12:13:04Z</time>
      </trkpt>
      <trkpt lat="43.41736" lon="5.69473">
        <ele>589</ele>
        <time>2014-01-25T12:13:13Z</time>
      </trkpt>
      <trkpt lat="43.4174" lon="5.69484">
        <ele>589</ele>
        <time>2014-01-25T12:13:22Z</time>
      </trkpt>
      <trkpt lat="43.41744" lon="5.69497">
        <ele>589</ele>
        <time>2014-01-25T12:13:32Z</time>
      </trkpt>
      <trkpt lat="43.4175" lon="5.69503">
        <ele>586</ele>
        <time>2014-01-25T12:13:41Z</time>
      </trkpt>
      <trkpt lat="43.41755" lon="5.69515">
        <ele>584</ele>
        <time>2014-01-25T12:13:50Z</time>
      </trkpt>
      <trkpt lat="43.41761" lon="5.69529">
        <ele>584</ele>
        <time>2014-01-25T12:14:00Z</time>
      </trkpt>
      <trkpt lat="43.41766" lon="5.69546">
        <ele>582</ele>
        <time>2014-01-25T12:14:09Z</time>
      </trkpt>
      <trkpt lat="43.41768" lon="5.69551">
        <ele>582</ele>
        <time>2014-01-25T12:14:20Z</time>
      </trkpt>
      <trkpt lat="43.41771" lon="5.69561">
        <ele>582</ele>
        <time>2014-01-25T12:14:29Z</time>
      </trkpt>
      <trkpt lat="43.41774" lon="5.69569">
        <ele>582</ele>
        <time>2014-01-25T12:14:38Z</time>
      </trkpt>
      <trkpt lat="43.41777" lon="5.69581">
        <ele>584</ele>
        <time>2014-01-25T12:14:48Z</time>
      </trkpt>
      <trkpt lat="43.41783" lon="5.69585">
        <ele>585</ele>
        <time>2014-01-25T12:14:59Z</time>
      </trkpt>
      <trkpt lat="43.41786" lon="5.69587">
        <ele>586</ele>
        <time>2014-01-25T12:15:12Z</time>
      </trkpt>
      <trkpt lat="43.41788" lon="5.69592">
        <ele>588</ele>
        <time>2014-01-25T12:15:24Z</time>
      </trkpt>
      <trkpt lat="43.41789" lon="5.69593">
        <ele>589</ele>
        <time>2014-01-25T12:15:35Z</time>
      </trkpt>
      <trkpt lat="43.41787" lon="5.69596">
        <ele>590</ele>
        <time>2014-01-25T12:15:47Z</time>
      </trkpt>
      <trkpt lat="43.41787" lon="5.69595">
        <ele>591</ele>
        <time>2014-01-25T12:16:06Z</time>
      </trkpt>
      <trkpt lat="43.41786" lon="5.69592">
        <ele>594</ele>
        <time>2014-01-25T12:16:22Z</time>
      </trkpt>
      <trkpt lat="43.41785" lon="5.69587">
        <ele>599</ele>
        <time>2014-01-25T12:16:32Z</time>
      </trkpt>
      <trkpt lat="43.41786" lon="5.69586">
        <ele>605</ele>
        <time>2014-01-25T12:16:52Z</time>
      </trkpt>
      <trkpt lat="43.41787" lon="5.6959">
        <ele>605</ele>
        <time>2014-01-25T12:17:05Z</time>
      </trkpt>
      <trkpt lat="43.41786" lon="5.69592">
        <ele>603</ele>
        <time>2014-01-25T12:17:23Z</time>
      </trkpt>
      <trkpt lat="43.41788" lon="5.69591">
        <ele>597</ele>
        <time>2014-01-25T12:17:33Z</time>
      </trkpt>
      <trkpt lat="43.41789" lon="5.69591">
        <ele>597</ele>
        <time>2014-01-25T12:17:43Z</time>
      </trkpt>
      <trkpt lat="43.41788" lon="5.69593">
        <ele>597</ele>
        <time>2014-01-25T12:18:01Z</time>
      </trkpt>
      <trkpt lat="43.41787" lon="5.69594">
        <ele>597</ele>
        <time>2014-01-25T12:18:20Z</time>
      </trkpt>
      <trkpt lat="43.41787" lon="5.69596">
        <ele>597</ele>
        <time>2014-01-25T12:18:35Z</time>
      </trkpt>
      <trkpt lat="43.41788" lon="5.69594">
        <ele>597</ele>
        <time>2014-01-25T12:19:35Z</time>
      </trkpt>
      <trkpt lat="43.41787" lon="5.69597">
        <ele>597</ele>
        <time>2014-01-25T12:19:46Z</time>
      </trkpt>
      <trkpt lat="43.41786" lon="5.69598">
        <ele>597</ele>
        <time>2014-01-25T12:20:14Z</time>
      </trkpt>
      <trkpt lat="43.41786" lon="5.69596">
        <ele>597</ele>
        <time>2014-01-25T12:20:24Z</time>
      </trkpt>
      <trkpt lat="43.41787" lon="5.69596">
        <ele>597</ele>
        <time>2014-01-25T12:20:51Z</time>
      </trkpt>
      <trkpt lat="43.41791" lon="5.69606">
        <ele>597</ele>
        <time>2014-01-25T12:21:00Z</time>
      </trkpt>
      <trkpt lat="43.41794" lon="5.69616">
        <ele>597</ele>
        <time>2014-01-25T12:21:10Z</time>
      </trkpt>
      <trkpt lat="43.41799" lon="5.69623">
        <ele>597</ele>
        <time>2014-01-25T12:21:20Z</time>
      </trkpt>
      <trkpt lat="43.41804" lon="5.69626">
        <ele>598</ele>
        <time>2014-01-25T12:21:29Z</time>
      </trkpt>
      <trkpt lat="43.41808" lon="5.69627">
        <ele>599</ele>
        <time>2014-01-25T12:21:38Z</time>
      </trkpt>
      <trkpt lat="43.41812" lon="5.69628">
        <ele>600</ele>
        <time>2014-01-25T12:21:47Z</time>
      </trkpt>
      <trkpt lat="43.41815" lon="5.69632">
        <ele>600</ele>
        <time>2014-01-25T12:21:56Z</time>
      </trkpt>
      <trkpt lat="43.41819" lon="5.69639">
        <ele>601</ele>
        <time>2014-01-25T12:22:13Z</time>
      </trkpt>
      <trkpt lat="43.41821" lon="5.69645">
        <ele>601</ele>
        <time>2014-01-25T12:22:22Z</time>
      </trkpt>
      <trkpt lat="43.41821" lon="5.69647">
        <ele>601</ele>
        <time>2014-01-25T12:22:32Z</time>
      </trkpt>
      <trkpt lat="43.41822" lon="5.69661">
        <ele>601</ele>
        <time>2014-01-25T12:22:41Z</time>
      </trkpt>
      <trkpt lat="43.41826" lon="5.69673">
        <ele>602</ele>
        <time>2014-01-25T12:22:50Z</time>
      </trkpt>
      <trkpt lat="43.41831" lon="5.69685">
        <ele>603</ele>
        <time>2014-01-25T12:23:00Z</time>
      </trkpt>
      <trkpt lat="43.41835" lon="5.69696">
        <ele>603</ele>
        <time>2014-01-25T12:23:09Z</time>
      </trkpt>
      <trkpt lat="43.41842" lon="5.69708">
        <ele>603</ele>
        <time>2014-01-25T12:23:18Z</time>
      </trkpt>
      <trkpt lat="43.41846" lon="5.69715">
        <ele>605</ele>
        <time>2014-01-25T12:23:27Z</time>
      </trkpt>
      <trkpt lat="43.41848" lon="5.69728">
        <ele>606</ele>
        <time>2014-01-25T12:23:36Z</time>
      </trkpt>
      <trkpt lat="43.41853" lon="5.6974">
        <ele>608</ele>
        <time>2014-01-25T12:23:45Z</time>
      </trkpt>
      <trkpt lat="43.41855" lon="5.69749">
        <ele>610</ele>
        <time>2014-01-25T12:23:55Z</time>
      </trkpt>
      <trkpt lat="43.41856" lon="5.69759">
        <ele>610</ele>
        <time>2014-01-25T12:24:05Z</time>
      </trkpt>
      <trkpt lat="43.41853" lon="5.6977">
        <ele>610</ele>
        <time>2014-01-25T12:24:15Z</time>
      </trkpt>
      <trkpt lat="43.41854" lon="5.69782">
        <ele>610</ele>
        <time>2014-01-25T12:24:24Z</time>
      </trkpt>
      <trkpt lat="43.41855" lon="5.69792">
        <ele>610</ele>
        <time>2014-01-25T12:24:33Z</time>
      </trkpt>
      <trkpt lat="43.41857" lon="5.69799">
        <ele>610</ele>
        <time>2014-01-25T12:24:42Z</time>
      </trkpt>
      <trkpt lat="43.41853" lon="5.69806">
        <ele>610</ele>
        <time>2014-01-25T12:24:53Z</time>
      </trkpt>
      <trkpt lat="43.41854" lon="5.69817">
        <ele>610</ele>
        <time>2014-01-25T12:25:03Z</time>
      </trkpt>
      <trkpt lat="43.41853" lon="5.69822">
        <ele>607</ele>
        <time>2014-01-25T12:25:14Z</time>
      </trkpt>
      <trkpt lat="43.41853" lon="5.69834">
        <ele>605</ele>
        <time>2014-01-25T12:25:24Z</time>
      </trkpt>
      <trkpt lat="43.41854" lon="5.69844">
        <ele>604</ele>
        <time>2014-01-25T12:25:33Z</time>
      </trkpt>
      <trkpt lat="43.41853" lon="5.69856">
        <ele>604</ele>
        <time>2014-01-25T12:25:43Z</time>
      </trkpt>
      <trkpt lat="43.41854" lon="5.69866">
        <ele>602</ele>
        <time>2014-01-25T12:25:52Z</time>
      </trkpt>
      <trkpt lat="43.41852" lon="5.69874">
        <ele>601</ele>
        <time>2014-01-25T12:26:02Z</time>
      </trkpt>
      <trkpt lat="43.41853" lon="5.69881">
        <ele>599</ele>
        <time>2014-01-25T12:26:14Z</time>
      </trkpt>
      <trkpt lat="43.41851" lon="5.69886">
        <ele>596</ele>
        <time>2014-01-25T12:26:25Z</time>
      </trkpt>
      <trkpt lat="43.41851" lon="5.69896">
        <ele>593</ele>
        <time>2014-01-25T12:26:35Z</time>
      </trkpt>
      <trkpt lat="43.41851" lon="5.69906">
        <ele>592</ele>
        <time>2014-01-25T12:26:45Z</time>
      </trkpt>
      <trkpt lat="43.41854" lon="5.69916">
        <ele>591</ele>
        <time>2014-01-25T12:26:54Z</time>
      </trkpt>
      <trkpt lat="43.41856" lon="5.6993">
        <ele>590</ele>
        <time>2014-01-25T12:27:03Z</time>
      </trkpt>
      <trkpt lat="43.41858" lon="5.69942">
        <ele>589</ele>
        <time>2014-01-25T12:27:12Z</time>
      </trkpt>
      <trkpt lat="43.41851" lon="5.69953">
        <ele>587</ele>
        <time>2014-01-25T12:27:22Z</time>
      </trkpt>
      <trkpt lat="43.41852" lon="5.69963">
        <ele>587</ele>
        <time>2014-01-25T12:27:31Z</time>
      </trkpt>
      <trkpt lat="43.41855" lon="5.69973">
        <ele>587</ele>
        <time>2014-01-25T12:27:40Z</time>
      </trkpt>
      <trkpt lat="43.4185" lon="5.6998">
        <ele>588</ele>
        <time>2014-01-25T12:27:50Z</time>
      </trkpt>
      <trkpt lat="43.4185" lon="5.69991">
        <ele>589</ele>
        <time>2014-01-25T12:27:59Z</time>
      </trkpt>
      <trkpt lat="43.4185" lon="5.70002">
        <ele>590</ele>
        <time>2014-01-25T12:28:08Z</time>
      </trkpt>
      <trkpt lat="43.41846" lon="5.70016">
        <ele>590</ele>
        <time>2014-01-25T12:28:18Z</time>
      </trkpt>
      <trkpt lat="43.41845" lon="5.70029">
        <ele>590</ele>
        <time>2014-01-25T12:28:28Z</time>
      </trkpt>
      <trkpt lat="43.41844" lon="5.7004">
        <ele>590</ele>
        <time>2014-01-25T12:28:38Z</time>
      </trkpt>
      <trkpt lat="43.41845" lon="5.70053">
        <ele>591</ele>
        <time>2014-01-25T12:28:48Z</time>
      </trkpt>
      <trkpt lat="43.41844" lon="5.70065">
        <ele>592</ele>
        <time>2014-01-25T12:28:58Z</time>
      </trkpt>
      <trkpt lat="43.41843" lon="5.70075">
        <ele>592</ele>
        <time>2014-01-25T12:29:08Z</time>
      </trkpt>
      <trkpt lat="43.41839" lon="5.70085">
        <ele>592</ele>
        <time>2014-01-25T12:29:18Z</time>
      </trkpt>
      <trkpt lat="43.41836" lon="5.70092">
        <ele>596</ele>
        <time>2014-01-25T12:29:27Z</time>
      </trkpt>
      <trkpt lat="43.41835" lon="5.70101">
        <ele>598</ele>
        <time>2014-01-25T12:29:38Z</time>
      </trkpt>
      <trkpt lat="43.41834" lon="5.70105">
        <ele>598</ele>
        <time>2014-01-25T12:29:47Z</time>
      </trkpt>
      <trkpt lat="43.41834" lon="5.7011">
        <ele>600</ele>
        <time>2014-01-25T12:29:57Z</time>
      </trkpt>
      <trkpt lat="43.41834" lon="5.70115">
        <ele>601</ele>
        <time>2014-01-25T12:30:06Z</time>
      </trkpt>
      <trkpt lat="43.41836" lon="5.7012">
        <ele>602</ele>
        <time>2014-01-25T12:30:16Z</time>
      </trkpt>
      <trkpt lat="43.41838" lon="5.70123">
        <ele>604</ele>
        <time>2014-01-25T12:30:25Z</time>
      </trkpt>
      <trkpt lat="43.41837" lon="5.70131">
        <ele>605</ele>
        <time>2014-01-25T12:30:35Z</time>
      </trkpt>
      <trkpt lat="43.41835" lon="5.70139">
        <ele>605</ele>
        <time>2014-01-25T12:30:45Z</time>
      </trkpt>
      <trkpt lat="43.41835" lon="5.7015">
        <ele>605</ele>
        <time>2014-01-25T12:30:54Z</time>
      </trkpt>
      <trkpt lat="43.41835" lon="5.7016">
        <ele>605</ele>
        <time>2014-01-25T12:31:03Z</time>
      </trkpt>
      <trkpt lat="43.41836" lon="5.7017">
        <ele>605</ele>
        <time>2014-01-25T12:31:13Z</time>
      </trkpt>
      <trkpt lat="43.41839" lon="5.70184">
        <ele>605</ele>
        <time>2014-01-25T12:31:25Z</time>
      </trkpt>
      <trkpt lat="43.41839" lon="5.70193">
        <ele>605</ele>
        <time>2014-01-25T12:31:35Z</time>
      </trkpt>
      <trkpt lat="43.41833" lon="5.70198">
        <ele>604</ele>
        <time>2014-01-25T12:31:46Z</time>
      </trkpt>
      <trkpt lat="43.41825" lon="5.70201">
        <ele>603</ele>
        <time>2014-01-25T12:31:56Z</time>
      </trkpt>
      <trkpt lat="43.41819" lon="5.70199">
        <ele>603</ele>
        <time>2014-01-25T12:32:11Z</time>
      </trkpt>
      <trkpt lat="43.4182" lon="5.70201">
        <ele>603</ele>
        <time>2014-01-25T12:32:20Z</time>
      </trkpt>
      <trkpt lat="43.41818" lon="5.70212">
        <ele>603</ele>
        <time>2014-01-25T12:32:30Z</time>
      </trkpt>
      <trkpt lat="43.41816" lon="5.70223">
        <ele>604</ele>
        <time>2014-01-25T12:32:40Z</time>
      </trkpt>
      <trkpt lat="43.41814" lon="5.70231">
        <ele>604</ele>
        <time>2014-01-25T12:32:50Z</time>
      </trkpt>
      <trkpt lat="43.41808" lon="5.70237">
        <ele>604</ele>
        <time>2014-01-25T12:33:00Z</time>
      </trkpt>
      <trkpt lat="43.41801" lon="5.70245">
        <ele>609</ele>
        <time>2014-01-25T12:33:09Z</time>
      </trkpt>
      <trkpt lat="43.41796" lon="5.70249">
        <ele>613</ele>
        <time>2014-01-25T12:33:18Z</time>
      </trkpt>
      <trkpt lat="43.4179" lon="5.70257">
        <ele>615</ele>
        <time>2014-01-25T12:33:28Z</time>
      </trkpt>
      <trkpt lat="43.41787" lon="5.70264">
        <ele>615</ele>
        <time>2014-01-25T12:33:37Z</time>
      </trkpt>
      <trkpt lat="43.41787" lon="5.70271">
        <ele>615</ele>
        <time>2014-01-25T12:33:47Z</time>
      </trkpt>
      <trkpt lat="43.41785" lon="5.70278">
        <ele>615</ele>
        <time>2014-01-25T12:33:58Z</time>
      </trkpt>
      <trkpt lat="43.41781" lon="5.70283">
        <ele>615</ele>
        <time>2014-01-25T12:34:08Z</time>
      </trkpt>
      <trkpt lat="43.41779" lon="5.7029">
        <ele>617</ele>
        <time>2014-01-25T12:34:19Z</time>
      </trkpt>
      <trkpt lat="43.41778" lon="5.70293">
        <ele>618</ele>
        <time>2014-01-25T12:34:28Z</time>
      </trkpt>
      <trkpt lat="43.41775" lon="5.70298">
        <ele>619</ele>
        <time>2014-01-25T12:34:38Z</time>
      </trkpt>
      <trkpt lat="43.41772" lon="5.70304">
        <ele>620</ele>
        <time>2014-01-25T12:34:50Z</time>
      </trkpt>
      <trkpt lat="43.41769" lon="5.70308">
        <ele>621</ele>
        <time>2014-01-25T12:35:02Z</time>
      </trkpt>
      <trkpt lat="43.41765" lon="5.70311">
        <ele>624</ele>
        <time>2014-01-25T12:35:12Z</time>
      </trkpt>
      <trkpt lat="43.41761" lon="5.70316">
        <ele>625</ele>
        <time>2014-01-25T12:35:21Z</time>
      </trkpt>
      <trkpt lat="43.41756" lon="5.70319">
        <ele>625</ele>
        <time>2014-01-25T12:35:31Z</time>
      </trkpt>
      <trkpt lat="43.41751" lon="5.70324">
        <ele>627</ele>
        <time>2014-01-25T12:35:42Z</time>
      </trkpt>
      <trkpt lat="43.41747" lon="5.7033">
        <ele>629</ele>
        <time>2014-01-25T12:35:53Z</time>
      </trkpt>
      <trkpt lat="43.41745" lon="5.70337">
        <ele>629</ele>
        <time>2014-01-25T12:36:02Z</time>
      </trkpt>
      <trkpt lat="43.41743" lon="5.70345">
        <ele>629</ele>
        <time>2014-01-25T12:36:11Z</time>
      </trkpt>
      <trkpt lat="43.4174" lon="5.7035">
        <ele>630</ele>
        <time>2014-01-25T12:36:21Z</time>
      </trkpt>
      <trkpt lat="43.41738" lon="5.70355">
        <ele>634</ele>
        <time>2014-01-25T12:36:30Z</time>
      </trkpt>
      <trkpt lat="43.41738" lon="5.70364">
        <ele>635</ele>
        <time>2014-01-25T12:36:39Z</time>
      </trkpt>
      <trkpt lat="43.41737" lon="5.70378">
        <ele>635</ele>
        <time>2014-01-25T12:36:48Z</time>
      </trkpt>
      <trkpt lat="43.41735" lon="5.70387">
        <ele>635</ele>
        <time>2014-01-25T12:36:57Z</time>
      </trkpt>
      <trkpt lat="43.41734" lon="5.70394">
        <ele>637</ele>
        <time>2014-01-25T12:37:06Z</time>
      </trkpt>
      <trkpt lat="43.4174" lon="5.70403">
        <ele>640</ele>
        <time>2014-01-25T12:37:15Z</time>
      </trkpt>
      <trkpt lat="43.41743" lon="5.70404">
        <ele>642</ele>
        <time>2014-01-25T12:37:24Z</time>
      </trkpt>
      <trkpt lat="43.41746" lon="5.70399">
        <ele>642</ele>
        <time>2014-01-25T12:37:33Z</time>
      </trkpt>
      <trkpt lat="43.41751" lon="5.70392">
        <ele>642</ele>
        <time>2014-01-25T12:37:42Z</time>
      </trkpt>
      <trkpt lat="43.41755" lon="5.70383">
        <ele>642</ele>
        <time>2014-01-25T12:37:51Z</time>
      </trkpt>
      <trkpt lat="43.41756" lon="5.70383">
        <ele>644</ele>
        <time>2014-01-25T12:38:00Z</time>
      </trkpt>
      <trkpt lat="43.41757" lon="5.70381">
        <ele>645</ele>
        <time>2014-01-25T12:38:14Z</time>
      </trkpt>
      <trkpt lat="43.41762" lon="5.70384">
        <ele>645</ele>
        <time>2014-01-25T12:38:24Z</time>
      </trkpt>
      <trkpt lat="43.41768" lon="5.70387">
        <ele>647</ele>
        <time>2014-01-25T12:38:33Z</time>
      </trkpt>
      <trkpt lat="43.41773" lon="5.70392">
        <ele>649</ele>
        <time>2014-01-25T12:38:51Z</time>
      </trkpt>
      <trkpt lat="43.41774" lon="5.70392">
        <ele>650</ele>
        <time>2014-01-25T12:39:06Z</time>
      </trkpt>
      <trkpt lat="43.41779" lon="5.70394">
        <ele>650</ele>
        <time>2014-01-25T12:39:16Z</time>
      </trkpt>
      <trkpt lat="43.41786" lon="5.70399">
        <ele>652</ele>
        <time>2014-01-25T12:39:28Z</time>
      </trkpt>
      <trkpt lat="43.41787" lon="5.704">
        <ele>653</ele>
        <time>2014-01-25T12:39:42Z</time>
      </trkpt>
      <trkpt lat="43.41786" lon="5.70399">
        <ele>653</ele>
        <time>2014-01-25T12:39:53Z</time>
      </trkpt>
      <trkpt lat="43.41788" lon="5.70398">
        <ele>653</ele>
        <time>2014-01-25T12:40:08Z</time>
      </trkpt>
      <trkpt lat="43.41787" lon="5.70399">
        <ele>653</ele>
        <time>2014-01-25T12:40:20Z</time>
      </trkpt>
      <trkpt lat="43.41783" lon="5.70392">
        <ele>653</ele>
        <time>2014-01-25T12:40:29Z</time>
      </trkpt>
      <trkpt lat="43.41789" lon="5.70395">
        <ele>653</ele>
        <time>2014-01-25T12:40:41Z</time>
      </trkpt>
      <trkpt lat="43.41789" lon="5.70396">
        <ele>653</ele>
        <time>2014-01-25T12:40:51Z</time>
      </trkpt>
      <trkpt lat="43.41789" lon="5.70399">
        <ele>646</ele>
        <time>2014-01-25T12:41:01Z</time>
      </trkpt>
      <trkpt lat="43.41784" lon="5.70392">
        <ele>651</ele>
        <time>2014-01-25T12:41:12Z</time>
      </trkpt>
      <trkpt lat="43.41784" lon="5.70394">
        <ele>656</ele>
        <time>2014-01-25T12:41:24Z</time>
      </trkpt>
      <trkpt lat="43.41787" lon="5.70394">
        <ele>655</ele>
        <time>2014-01-25T12:41:35Z</time>
      </trkpt>
      <trkpt lat="43.41789" lon="5.70394">
        <ele>655</ele>
        <time>2014-01-25T12:41:46Z</time>
      </trkpt>
      <trkpt lat="43.41786" lon="5.70394">
        <ele>655</ele>
        <time>2014-01-25T12:41:55Z</time>
      </trkpt>
      <trkpt lat="43.41783" lon="5.70394">
        <ele>657</ele>
        <time>2014-01-25T12:42:08Z</time>
      </trkpt>
      <trkpt lat="43.41785" lon="5.70393">
        <ele>657</ele>
        <time>2014-01-25T12:42:22Z</time>
      </trkpt>
      <trkpt lat="43.41786" lon="5.70394">
        <ele>656</ele>
        <time>2014-01-25T12:42:31Z</time>
      </trkpt>
      <trkpt lat="43.41785" lon="5.70394">
        <ele>653</ele>
        <time>2014-01-25T12:42:46Z</time>
      </trkpt>
      <trkpt lat="43.41783" lon="5.70395">
        <ele>658</ele>
        <time>2014-01-25T12:42:58Z</time>
      </trkpt>
      <trkpt lat="43.41783" lon="5.70399">
        <ele>658</ele>
        <time>2014-01-25T12:43:14Z</time>
      </trkpt>
      <trkpt lat="43.41784" lon="5.704">
        <ele>658</ele>
        <time>2014-01-25T12:43:28Z</time>
      </trkpt>
      <trkpt lat="43.4178" lon="5.7039">
        <ele>658</ele>
        <time>2014-01-25T12:43:38Z</time>
      </trkpt>
      <trkpt lat="43.41779" lon="5.70388">
        <ele>655</ele>
        <time>2014-01-25T12:43:48Z</time>
      </trkpt>
      <trkpt lat="43.41773" lon="5.70384">
        <ele>653</ele>
        <time>2014-01-25T12:44:00Z</time>
      </trkpt>
      <trkpt lat="43.4177" lon="5.7038">
        <ele>652</ele>
        <time>2014-01-25T12:44:11Z</time>
      </trkpt>
      <trkpt lat="43.41766" lon="5.70379">
        <ele>651</ele>
        <time>2014-01-25T12:44:21Z</time>
      </trkpt>
      <trkpt lat="43.4176" lon="5.70382">
        <ele>648</ele>
        <time>2014-01-25T12:44:30Z</time>
      </trkpt>
      <trkpt lat="43.41758" lon="5.70386">
        <ele>644</ele>
        <time>2014-01-25T12:44:45Z</time>
      </trkpt>
      <trkpt lat="43.41748" lon="5.70397">
        <ele>642</ele>
        <time>2014-01-25T12:44:55Z</time>
      </trkpt>
      <trkpt lat="43.41741" lon="5.70409">
        <ele>640</ele>
        <time>2014-01-25T12:45:05Z</time>
      </trkpt>
      <trkpt lat="43.41739" lon="5.70421">
        <ele>640</ele>
        <time>2014-01-25T12:45:14Z</time>
      </trkpt>
      <trkpt lat="43.41738" lon="5.70435">
        <ele>640</ele>
        <time>2014-01-25T12:45:23Z</time>
      </trkpt>
      <trkpt lat="43.4174" lon="5.70448">
        <ele>640</ele>
        <time>2014-01-25T12:45:33Z</time>
      </trkpt>
      <trkpt lat="43.41737" lon="5.7046">
        <ele>638</ele>
        <time>2014-01-25T12:45:42Z</time>
      </trkpt>
      <trkpt lat="43.41741" lon="5.70467">
        <ele>636</ele>
        <time>2014-01-25T12:45:53Z</time>
      </trkpt>
      <trkpt lat="43.41742" lon="5.70467">
        <ele>636</ele>
        <time>2014-01-25T12:46:06Z</time>
      </trkpt>
      <trkpt lat="43.41742" lon="5.70469">
        <ele>636</ele>
        <time>2014-01-25T12:46:25Z</time>
      </trkpt>
      <trkpt lat="43.41745" lon="5.70471">
        <ele>636</ele>
        <time>2014-01-25T12:46:35Z</time>
      </trkpt>
      <trkpt lat="43.41747" lon="5.70476">
        <ele>636</ele>
        <time>2014-01-25T12:46:45Z</time>
      </trkpt>
      <trkpt lat="43.41752" lon="5.70481">
        <ele>635</ele>
        <time>2014-01-25T12:46:55Z</time>
      </trkpt>
      <trkpt lat="43.41757" lon="5.70486">
        <ele>633</ele>
        <time>2014-01-25T12:47:05Z</time>
      </trkpt>
      <trkpt lat="43.41761" lon="5.70494">
        <ele>630</ele>
        <time>2014-01-25T12:47:15Z</time>
      </trkpt>
      <trkpt lat="43.41767" lon="5.70503">
        <ele>626</ele>
        <time>2014-01-25T12:47:26Z</time>
      </trkpt>
      <trkpt lat="43.41773" lon="5.70511">
        <ele>626</ele>
        <time>2014-01-25T12:47:35Z</time>
      </trkpt>
      <trkpt lat="43.41782" lon="5.70512">
        <ele>626</ele>
        <time>2014-01-25T12:47:44Z</time>
      </trkpt>
      <trkpt lat="43.4179" lon="5.70509">
        <ele>626</ele>
        <time>2014-01-25T12:47:54Z</time>
      </trkpt>
      <trkpt lat="43.41796" lon="5.70506">
        <ele>626</ele>
        <time>2014-01-25T12:48:03Z</time>
      </trkpt>
      <trkpt lat="43.41796" lon="5.70509">
        <ele>626</ele>
        <time>2014-01-25T12:48:13Z</time>
      </trkpt>
      <trkpt lat="43.41794" lon="5.70507">
        <ele>626</ele>
        <time>2014-01-25T12:48:22Z</time>
      </trkpt>
      <trkpt lat="43.41795" lon="5.70504">
        <ele>626</ele>
        <time>2014-01-25T12:48:31Z</time>
      </trkpt>
      <trkpt lat="43.41798" lon="5.70504">
        <ele>627</ele>
        <time>2014-01-25T12:48:40Z</time>
      </trkpt>
      <trkpt lat="43.41807" lon="5.70499">
        <ele>627</ele>
        <time>2014-01-25T12:48:49Z</time>
      </trkpt>
      <trkpt lat="43.41814" lon="5.70493">
        <ele>627</ele>
        <time>2014-01-25T12:48:59Z</time>
      </trkpt>
      <trkpt lat="43.41822" lon="5.70484">
        <ele>624</ele>
        <time>2014-01-25T12:49:08Z</time>
      </trkpt>
      <trkpt lat="43.41828" lon="5.70474">
        <ele>624</ele>
        <time>2014-01-25T12:49:18Z</time>
      </trkpt>
      <trkpt lat="43.41835" lon="5.70465">
        <ele>622</ele>
        <time>2014-01-25T12:49:28Z</time>
      </trkpt>
      <trkpt lat="43.4184" lon="5.70457">
        <ele>617</ele>
        <time>2014-01-25T12:49:38Z</time>
      </trkpt>
      <trkpt lat="43.41845" lon="5.70447">
        <ele>613</ele>
        <time>2014-01-25T12:49:47Z</time>
      </trkpt>
      <trkpt lat="43.41847" lon="5.70431">
        <ele>614</ele>
        <time>2014-01-25T12:49:57Z</time>
      </trkpt>
      <trkpt lat="43.41848" lon="5.7043">
        <ele>615</ele>
        <time>2014-01-25T12:50:06Z</time>
      </trkpt>
      <trkpt lat="43.41849" lon="5.70428">
        <ele>617</ele>
        <time>2014-01-25T12:50:21Z</time>
      </trkpt>
      <trkpt lat="43.4185" lon="5.70427">
        <ele>620</ele>
        <time>2014-01-25T12:50:42Z</time>
      </trkpt>
      <trkpt lat="43.41849" lon="5.70426">
        <ele>620</ele>
        <time>2014-01-25T12:50:54Z</time>
      </trkpt>
      <trkpt lat="43.41848" lon="5.70414">
        <ele>620</ele>
        <time>2014-01-25T12:51:03Z</time>
      </trkpt>
      <trkpt lat="43.4185" lon="5.70401">
        <ele>620</ele>
        <time>2014-01-25T12:51:13Z</time>
      </trkpt>
      <trkpt lat="43.41853" lon="5.70387">
        <ele>614</ele>
        <time>2014-01-25T12:51:24Z</time>
      </trkpt>
      <trkpt lat="43.41856" lon="5.70374">
        <ele>608</ele>
        <time>2014-01-25T12:51:34Z</time>
      </trkpt>
      <trkpt lat="43.41862" lon="5.70364">
        <ele>602</ele>
        <time>2014-01-25T12:51:43Z</time>
      </trkpt>
      <trkpt lat="43.41866" lon="5.70353">
        <ele>597</ele>
        <time>2014-01-25T12:51:53Z</time>
      </trkpt>
      <trkpt lat="43.4187" lon="5.70342">
        <ele>594</ele>
        <time>2014-01-25T12:52:02Z</time>
      </trkpt>
      <trkpt lat="43.41876" lon="5.70332">
        <ele>592</ele>
        <time>2014-01-25T12:52:12Z</time>
      </trkpt>
      <trkpt lat="43.41879" lon="5.70318">
        <ele>588</ele>
        <time>2014-01-25T12:52:21Z</time>
      </trkpt>
      <trkpt lat="43.41878" lon="5.70305">
        <ele>583</ele>
        <time>2014-01-25T12:52:32Z</time>
      </trkpt>
      <trkpt lat="43.41881" lon="5.7029">
        <ele>580</ele>
        <time>2014-01-25T12:52:41Z</time>
      </trkpt>
      <trkpt lat="43.41881" lon="5.70272">
        <ele>580</ele>
        <time>2014-01-25T12:52:50Z</time>
      </trkpt>
      <trkpt lat="43.41883" lon="5.70257">
        <ele>576</ele>
        <time>2014-01-25T12:53:00Z</time>
      </trkpt>
      <trkpt lat="43.41887" lon="5.7024">
        <ele>572</ele>
        <time>2014-01-25T12:53:10Z</time>
      </trkpt>
      <trkpt lat="43.41892" lon="5.70227">
        <ele>566</ele>
        <time>2014-01-25T12:53:20Z</time>
      </trkpt>
      <trkpt lat="43.41893" lon="5.70207">
        <ele>565</ele>
        <time>2014-01-25T12:53:31Z</time>
      </trkpt>
      <trkpt lat="43.41892" lon="5.70191">
        <ele>565</ele>
        <time>2014-01-25T12:53:40Z</time>
      </trkpt>
      <trkpt lat="43.41893" lon="5.70179">
        <ele>565</ele>
        <time>2014-01-25T12:53:49Z</time>
      </trkpt>
      <trkpt lat="43.41896" lon="5.70168">
        <ele>565</ele>
        <time>2014-01-25T12:53:59Z</time>
      </trkpt>
      <trkpt lat="43.41898" lon="5.70153">
        <ele>565</ele>
        <time>2014-01-25T12:54:08Z</time>
      </trkpt>
      <trkpt lat="43.41899" lon="5.70135">
        <ele>561</ele>
        <time>2014-01-25T12:54:18Z</time>
      </trkpt>
      <trkpt lat="43.41898" lon="5.7013">
        <ele>562</ele>
        <time>2014-01-25T12:54:27Z</time>
      </trkpt>
      <trkpt lat="43.41904" lon="5.70113">
        <ele>562</ele>
        <time>2014-01-25T12:54:37Z</time>
      </trkpt>
      <trkpt lat="43.41906" lon="5.70097">
        <ele>564</ele>
        <time>2014-01-25T12:54:48Z</time>
      </trkpt>
      <trkpt lat="43.4191" lon="5.70087">
        <ele>565</ele>
        <time>2014-01-25T12:54:59Z</time>
      </trkpt>
      <trkpt lat="43.41914" lon="5.70074">
        <ele>565</ele>
        <time>2014-01-25T12:55:09Z</time>
      </trkpt>
      <trkpt lat="43.41918" lon="5.70059">
        <ele>565</ele>
        <time>2014-01-25T12:55:19Z</time>
      </trkpt>
      <trkpt lat="43.41922" lon="5.70048">
        <ele>565</ele>
        <time>2014-01-25T12:55:28Z</time>
      </trkpt>
      <trkpt lat="43.41925" lon="5.70035">
        <ele>565</ele>
        <time>2014-01-25T12:55:38Z</time>
      </trkpt>
      <trkpt lat="43.4193" lon="5.70023">
        <ele>565</ele>
        <time>2014-01-25T12:55:48Z</time>
      </trkpt>
      <trkpt lat="43.41933" lon="5.70012">
        <ele>563</ele>
        <time>2014-01-25T12:55:57Z</time>
      </trkpt>
      <trkpt lat="43.41936" lon="5.7">
        <ele>560</ele>
        <time>2014-01-25T12:56:07Z</time>
      </trkpt>
      <trkpt lat="43.41941" lon="5.69988">
        <ele>559</ele>
        <time>2014-01-25T12:56:17Z</time>
      </trkpt>
      <trkpt lat="43.41943" lon="5.69974">
        <ele>559</ele>
        <time>2014-01-25T12:56:26Z</time>
      </trkpt>
      <trkpt lat="43.41947" lon="5.69958">
        <ele>559</ele>
        <time>2014-01-25T12:56:36Z</time>
      </trkpt>
      <trkpt lat="43.41953" lon="5.69944">
        <ele>559</ele>
        <time>2014-01-25T12:56:46Z</time>
      </trkpt>
      <trkpt lat="43.41957" lon="5.6993">
        <ele>559</ele>
        <time>2014-01-25T12:56:56Z</time>
      </trkpt>
      <trkpt lat="43.4196" lon="5.69919">
        <ele>559</ele>
        <time>2014-01-25T12:57:05Z</time>
      </trkpt>
      <trkpt lat="43.41965" lon="5.69906">
        <ele>559</ele>
        <time>2014-01-25T12:57:15Z</time>
      </trkpt>
      <trkpt lat="43.41967" lon="5.69898">
        <ele>559</ele>
        <time>2014-01-25T12:57:25Z</time>
      </trkpt>
      <trkpt lat="43.41971" lon="5.69886">
        <ele>559</ele>
        <time>2014-01-25T12:57:34Z</time>
      </trkpt>
      <trkpt lat="43.41975" lon="5.69873">
        <ele>558</ele>
        <time>2014-01-25T12:57:43Z</time>
      </trkpt>
      <trkpt lat="43.41977" lon="5.69859">
        <ele>556</ele>
        <time>2014-01-25T12:57:52Z</time>
      </trkpt>
      <trkpt lat="43.41976" lon="5.69857">
        <ele>556</ele>
        <time>2014-01-25T12:58:03Z</time>
      </trkpt>
      <trkpt lat="43.41966" lon="5.69855">
        <ele>557</ele>
        <time>2014-01-25T12:58:13Z</time>
      </trkpt>
      <trkpt lat="43.41957" lon="5.6985">
        <ele>557</ele>
        <time>2014-01-25T12:58:22Z</time>
      </trkpt>
      <trkpt lat="43.41952" lon="5.6984">
        <ele>557</ele>
        <time>2014-01-25T12:58:32Z</time>
      </trkpt>
      <trkpt lat="43.41954" lon="5.6983">
        <ele>557</ele>
        <time>2014-01-25T12:58:41Z</time>
      </trkpt>
      <trkpt lat="43.41954" lon="5.69814">
        <ele>556</ele>
        <time>2014-01-25T12:58:50Z</time>
      </trkpt>
      <trkpt lat="43.41957" lon="5.69798">
        <ele>561</ele>
        <time>2014-01-25T12:58:59Z</time>
      </trkpt>
      <trkpt lat="43.41963" lon="5.69785">
        <ele>561</ele>
        <time>2014-01-25T12:59:08Z</time>
      </trkpt>
      <trkpt lat="43.4197" lon="5.6977">
        <ele>561</ele>
        <time>2014-01-25T12:59:19Z</time>
      </trkpt>
      <trkpt lat="43.41976" lon="5.69759">
        <ele>561</ele>
        <time>2014-01-25T12:59:29Z</time>
      </trkpt>
      <trkpt lat="43.41984" lon="5.69748">
        <ele>561</ele>
        <time>2014-01-25T12:59:39Z</time>
      </trkpt>
      <trkpt lat="43.41991" lon="5.69737">
        <ele>562</ele>
        <time>2014-01-25T12:59:48Z</time>
      </trkpt>
      <trkpt lat="43.41991" lon="5.69723">
        <ele>562</ele>
        <time>2014-01-25T12:59:57Z</time>
      </trkpt>
      <trkpt lat="43.41985" lon="5.6971">
        <ele>562</ele>
        <time>2014-01-25T13:00:07Z</time>
      </trkpt>
      <trkpt lat="43.41973" lon="5.697">
        <ele>561</ele>
        <time>2014-01-25T13:00:18Z</time>
      </trkpt>
      <trkpt lat="43.41964" lon="5.69691">
        <ele>561</ele>
        <time>2014-01-25T13:00:28Z</time>
      </trkpt>
      <trkpt lat="43.41953" lon="5.69686">
        <ele>560</ele>
        <time>2014-01-25T13:00:38Z</time>
      </trkpt>
      <trkpt lat="43.41942" lon="5.69682">
        <ele>558</ele>
        <time>2014-01-25T13:00:48Z</time>
      </trkpt>
      <trkpt lat="43.41933" lon="5.69678">
        <ele>557</ele>
        <time>2014-01-25T13:00:57Z</time>
      </trkpt>
      <trkpt lat="43.41931" lon="5.69672">
        <ele>557</ele>
        <time>2014-01-25T13:01:06Z</time>
      </trkpt>
      <trkpt lat="43.41928" lon="5.69662">
        <ele>556</ele>
        <time>2014-01-25T13:01:15Z</time>
      </trkpt>
      <trkpt lat="43.41924" lon="5.6965">
        <ele>549</ele>
        <time>2014-01-25T13:01:25Z</time>
      </trkpt>
      <trkpt lat="43.4192" lon="5.69637">
        <ele>548</ele>
        <time>2014-01-25T13:01:34Z</time>
      </trkpt>
      <trkpt lat="43.41918" lon="5.69624">
        <ele>542</ele>
        <time>2014-01-25T13:01:44Z</time>
      </trkpt>
      <trkpt lat="43.41917" lon="5.69607">
        <ele>542</ele>
        <time>2014-01-25T13:01:53Z</time>
      </trkpt>
      <trkpt lat="43.41914" lon="5.69592">
        <ele>545</ele>
        <time>2014-01-25T13:02:02Z</time>
      </trkpt>
      <trkpt lat="43.41912" lon="5.69578">
        <ele>545</ele>
        <time>2014-01-25T13:02:11Z</time>
      </trkpt>
      <trkpt lat="43.41911" lon="5.69565">
        <ele>547</ele>
        <time>2014-01-25T13:02:20Z</time>
      </trkpt>
      <trkpt lat="43.41907" lon="5.69551">
        <ele>549</ele>
        <time>2014-01-25T13:02:29Z</time>
      </trkpt>
      <trkpt lat="43.41905" lon="5.69537">
        <ele>550</ele>
        <time>2014-01-25T13:02:39Z</time>
      </trkpt>
      <trkpt lat="43.41901" lon="5.69526">
        <ele>551</ele>
        <time>2014-01-25T13:02:48Z</time>
      </trkpt>
      <trkpt lat="43.419" lon="5.6952">
        <ele>555</ele>
        <time>2014-01-25T13:02:57Z</time>
      </trkpt>
      <trkpt lat="43.41896" lon="5.69519">
        <ele>558</ele>
        <time>2014-01-25T13:03:08Z</time>
      </trkpt>
      <trkpt lat="43.41888" lon="5.69517">
        <ele>558</ele>
        <time>2014-01-25T13:03:17Z</time>
      </trkpt>
      <trkpt lat="43.4188" lon="5.69514">
        <ele>558</ele>
        <time>2014-01-25T13:03:27Z</time>
      </trkpt>
      <trkpt lat="43.41874" lon="5.69515">
        <ele>558</ele>
        <time>2014-01-25T13:03:36Z</time>
      </trkpt>
      <trkpt lat="43.41863" lon="5.6951">
        <ele>558</ele>
        <time>2014-01-25T13:03:46Z</time>
      </trkpt>
      <trkpt lat="43.41855" lon="5.69501">
        <ele>551</ele>
        <time>2014-01-25T13:03:56Z</time>
      </trkpt>
      <trkpt lat="43.41845" lon="5.69491">
        <ele>545</ele>
        <time>2014-01-25T13:04:06Z</time>
      </trkpt>
      <trkpt lat="43.41836" lon="5.69483">
        <ele>545</ele>
        <time>2014-01-25T13:04:15Z</time>
      </trkpt>
      <trkpt lat="43.41827" lon="5.69474">
        <ele>545</ele>
        <time>2014-01-25T13:04:24Z</time>
      </trkpt>
      <trkpt lat="43.41823" lon="5.69462">
        <ele>545</ele>
        <time>2014-01-25T13:04:33Z</time>
      </trkpt>
      <trkpt lat="43.41818" lon="5.69452">
        <ele>545</ele>
        <time>2014-01-25T13:04:42Z</time>
      </trkpt>
      <trkpt lat="43.41813" lon="5.69441">
        <ele>545</ele>
        <time>2014-01-25T13:04:52Z</time>
      </trkpt>
      <trkpt lat="43.41808" lon="5.69428">
        <ele>545</ele>
        <time>2014-01-25T13:05:01Z</time>
      </trkpt>
      <trkpt lat="43.41809" lon="5.6941">
        <ele>545</ele>
        <time>2014-01-25T13:05:10Z</time>
      </trkpt>
      <trkpt lat="43.41809" lon="5.69397">
        <ele>541</ele>
        <time>2014-01-25T13:05:19Z</time>
      </trkpt>
      <trkpt lat="43.41806" lon="5.69384">
        <ele>539</ele>
        <time>2014-01-25T13:05:28Z</time>
      </trkpt>
      <trkpt lat="43.41803" lon="5.69365">
        <ele>537</ele>
        <time>2014-01-25T13:05:37Z</time>
      </trkpt>
      <trkpt lat="43.41801" lon="5.6935">
        <ele>537</ele>
        <time>2014-01-25T13:05:46Z</time>
      </trkpt>
      <trkpt lat="43.41805" lon="5.69335">
        <ele>537</ele>
        <time>2014-01-25T13:05:56Z</time>
      </trkpt>
      <trkpt lat="43.41809" lon="5.69318">
        <ele>537</ele>
        <time>2014-01-25T13:06:05Z</time>
      </trkpt>
      <trkpt lat="43.41804" lon="5.69311">
        <ele>540</ele>
        <time>2014-01-25T13:06:15Z</time>
      </trkpt>
      <trkpt lat="43.41805" lon="5.69298">
        <ele>540</ele>
        <time>2014-01-25T13:06:25Z</time>
      </trkpt>
      <trkpt lat="43.41807" lon="5.69285">
        <ele>540</ele>
        <time>2014-01-25T13:06:34Z</time>
      </trkpt>
      <trkpt lat="43.41808" lon="5.69271">
        <ele>540</ele>
        <time>2014-01-25T13:06:44Z</time>
      </trkpt>
      <trkpt lat="43.41806" lon="5.69258">
        <ele>537</ele>
        <time>2014-01-25T13:06:53Z</time>
      </trkpt>
      <trkpt lat="43.41807" lon="5.69246">
        <ele>532</ele>
        <time>2014-01-25T13:07:02Z</time>
      </trkpt>
      <trkpt lat="43.41813" lon="5.69232">
        <ele>528</ele>
        <time>2014-01-25T13:07:11Z</time>
      </trkpt>
      <trkpt lat="43.41817" lon="5.69209">
        <ele>527</ele>
        <time>2014-01-25T13:07:20Z</time>
      </trkpt>
      <trkpt lat="43.4182" lon="5.69197">
        <ele>529</ele>
        <time>2014-01-25T13:07:29Z</time>
      </trkpt>
      <trkpt lat="43.4182" lon="5.69191">
        <ele>536</ele>
        <time>2014-01-25T13:07:42Z</time>
      </trkpt>
      <trkpt lat="43.41819" lon="5.69187">
        <ele>543</ele>
        <time>2014-01-25T13:07:55Z</time>
      </trkpt>
      <trkpt lat="43.41825" lon="5.69181">
        <ele>545</ele>
        <time>2014-01-25T13:08:05Z</time>
      </trkpt>
      <trkpt lat="43.41832" lon="5.69169">
        <ele>545</ele>
        <time>2014-01-25T13:08:14Z</time>
      </trkpt>
      <trkpt lat="43.41834" lon="5.69157">
        <ele>541</ele>
        <time>2014-01-25T13:08:24Z</time>
      </trkpt>
      <trkpt lat="43.41834" lon="5.69145">
        <ele>538</ele>
        <time>2014-01-25T13:08:33Z</time>
      </trkpt>
      <trkpt lat="43.41834" lon="5.6913">
        <ele>536</ele>
        <time>2014-01-25T13:08:42Z</time>
      </trkpt>
      <trkpt lat="43.41836" lon="5.69113">
        <ele>531</ele>
        <time>2014-01-25T13:08:53Z</time>
      </trkpt>
      <trkpt lat="43.41833" lon="5.69103">
        <ele>529</ele>
        <time>2014-01-25T13:09:02Z</time>
      </trkpt>
      <trkpt lat="43.4183" lon="5.69101">
        <ele>531</ele>
        <time>2014-01-25T13:09:12Z</time>
      </trkpt>
      <trkpt lat="43.41828" lon="5.69099">
        <ele>536</ele>
        <time>2014-01-25T13:09:25Z</time>
      </trkpt>
      <trkpt lat="43.41829" lon="5.69088">
        <ele>538</ele>
        <time>2014-01-25T13:09:34Z</time>
      </trkpt>
      <trkpt lat="43.41825" lon="5.69073">
        <ele>538</ele>
        <time>2014-01-25T13:09:44Z</time>
      </trkpt>
      <trkpt lat="43.41823" lon="5.69067">
        <ele>538</ele>
        <time>2014-01-25T13:09:54Z</time>
      </trkpt>
      <trkpt lat="43.41819" lon="5.69054">
        <ele>538</ele>
        <time>2014-01-25T13:10:03Z</time>
      </trkpt>
      <trkpt lat="43.41817" lon="5.69041">
        <ele>538</ele>
        <time>2014-01-25T13:10:12Z</time>
      </trkpt>
      <trkpt lat="43.41814" lon="5.69025">
        <ele>538</ele>
        <time>2014-01-25T13:10:23Z</time>
      </trkpt>
      <trkpt lat="43.4181" lon="5.69009">
        <ele>536</ele>
        <time>2014-01-25T13:10:32Z</time>
      </trkpt>
      <trkpt lat="43.41808" lon="5.68995">
        <ele>536</ele>
        <time>2014-01-25T13:10:41Z</time>
      </trkpt>
      <trkpt lat="43.41806" lon="5.68981">
        <ele>536</ele>
        <time>2014-01-25T13:10:51Z</time>
      </trkpt>
      <trkpt lat="43.41805" lon="5.68966">
        <ele>535</ele>
        <time>2014-01-25T13:11:01Z</time>
      </trkpt>
      <trkpt lat="43.41801" lon="5.68952">
        <ele>534</ele>
        <time>2014-01-25T13:11:10Z</time>
      </trkpt>
      <trkpt lat="43.41798" lon="5.68942">
        <ele>533</ele>
        <time>2014-01-25T13:11:20Z</time>
      </trkpt>
      <trkpt lat="43.41795" lon="5.68939">
        <ele>533</ele>
        <time>2014-01-25T13:11:30Z</time>
      </trkpt>
      <trkpt lat="43.41788" lon="5.68927">
        <ele>533</ele>
        <time>2014-01-25T13:11:39Z</time>
      </trkpt>
      <trkpt lat="43.41784" lon="5.68915">
        <ele>533</ele>
        <time>2014-01-25T13:11:48Z</time>
      </trkpt>
      <trkpt lat="43.41785" lon="5.689">
        <ele>533</ele>
        <time>2014-01-25T13:11:57Z</time>
      </trkpt>
      <trkpt lat="43.41787" lon="5.68883">
        <ele>530</ele>
        <time>2014-01-25T13:12:08Z</time>
      </trkpt>
      <trkpt lat="43.41785" lon="5.68866">
        <ele>530</ele>
        <time>2014-01-25T13:12:17Z</time>
      </trkpt>
      <trkpt lat="43.41782" lon="5.68852">
        <ele>530</ele>
        <time>2014-01-25T13:12:26Z</time>
      </trkpt>
      <trkpt lat="43.41773" lon="5.6884">
        <ele>529</ele>
        <time>2014-01-25T13:12:35Z</time>
      </trkpt>
      <trkpt lat="43.41761" lon="5.68832">
        <ele>529</ele>
        <time>2014-01-25T13:12:45Z</time>
      </trkpt>
      <trkpt lat="43.41749" lon="5.6883">
        <ele>529</ele>
        <time>2014-01-25T13:12:55Z</time>
      </trkpt>
      <trkpt lat="43.41737" lon="5.68828">
        <ele>529</ele>
        <time>2014-01-25T13:13:05Z</time>
      </trkpt>
      <trkpt lat="43.41726" lon="5.68825">
        <ele>529</ele>
        <time>2014-01-25T13:13:15Z</time>
      </trkpt>
      <trkpt lat="43.41714" lon="5.68818">
        <ele>529</ele>
        <time>2014-01-25T13:13:25Z</time>
      </trkpt>
      <trkpt lat="43.41702" lon="5.68816">
        <ele>528</ele>
        <time>2014-01-25T13:13:34Z</time>
      </trkpt>
      <trkpt lat="43.41691" lon="5.68815">
        <ele>528</ele>
        <time>2014-01-25T13:13:43Z</time>
      </trkpt>
      <trkpt lat="43.4168" lon="5.68815">
        <ele>528</ele>
        <time>2014-01-25T13:13:52Z</time>
      </trkpt>
      <trkpt lat="43.41671" lon="5.68816">
        <ele>528</ele>
        <time>2014-01-25T13:14:01Z</time>
      </trkpt>
      <trkpt lat="43.4166" lon="5.68813">
        <ele>527</ele>
        <time>2014-01-25T13:14:10Z</time>
      </trkpt>
      <trkpt lat="43.41654" lon="5.68808">
        <ele>525</ele>
        <time>2014-01-25T13:14:19Z</time>
      </trkpt>
      <trkpt lat="43.41649" lon="5.68795">
        <ele>524</ele>
        <time>2014-01-25T13:14:28Z</time>
      </trkpt>
      <trkpt lat="43.41645" lon="5.68785">
        <ele>523</ele>
        <time>2014-01-25T13:14:38Z</time>
      </trkpt>
      <trkpt lat="43.4165" lon="5.68777">
        <ele>523</ele>
        <time>2014-01-25T13:14:47Z</time>
      </trkpt>
      <trkpt lat="43.41655" lon="5.68767">
        <ele>518</ele>
        <time>2014-01-25T13:14:56Z</time>
      </trkpt>
      <trkpt lat="43.41655" lon="5.68765">
        <ele>517</ele>
        <time>2014-01-25T13:15:20Z</time>
      </trkpt>
      <trkpt lat="43.4166" lon="5.68753">
        <ele>515</ele>
        <time>2014-01-25T13:15:31Z</time>
      </trkpt>
      <trkpt lat="43.4166" lon="5.6874">
        <ele>514</ele>
        <time>2014-01-25T13:15:40Z</time>
      </trkpt>
      <trkpt lat="43.41671" lon="5.68739">
        <ele>512</ele>
        <time>2014-01-25T13:15:50Z</time>
      </trkpt>
      <trkpt lat="43.41683" lon="5.68737">
        <ele>512</ele>
        <time>2014-01-25T13:15:59Z</time>
      </trkpt>
      <trkpt lat="43.41694" lon="5.68733">
        <ele>512</ele>
        <time>2014-01-25T13:16:09Z</time>
      </trkpt>
      <trkpt lat="43.41704" lon="5.6873">
        <ele>511</ele>
        <time>2014-01-25T13:16:20Z</time>
      </trkpt>
      <trkpt lat="43.41714" lon="5.68728">
        <ele>511</ele>
        <time>2014-01-25T13:16:29Z</time>
      </trkpt>
      <trkpt lat="43.41724" lon="5.68728">
        <ele>511</ele>
        <time>2014-01-25T13:16:39Z</time>
      </trkpt>
      <trkpt lat="43.41735" lon="5.68727">
        <ele>511</ele>
        <time>2014-01-25T13:16:49Z</time>
      </trkpt>
      <trkpt lat="43.41748" lon="5.68723">
        <ele>511</ele>
        <time>2014-01-25T13:17:00Z</time>
      </trkpt>
      <trkpt lat="43.41758" lon="5.68718">
        <ele>508</ele>
        <time>2014-01-25T13:17:10Z</time>
      </trkpt>
      <trkpt lat="43.41769" lon="5.6871">
        <ele>506</ele>
        <time>2014-01-25T13:17:21Z</time>
      </trkpt>
      <trkpt lat="43.41779" lon="5.68701">
        <ele>504</ele>
        <time>2014-01-25T13:17:31Z</time>
      </trkpt>
      <trkpt lat="43.41789" lon="5.68695">
        <ele>503</ele>
        <time>2014-01-25T13:17:40Z</time>
      </trkpt>
      <trkpt lat="43.418" lon="5.6869">
        <ele>498</ele>
        <time>2014-01-25T13:17:50Z</time>
      </trkpt>
      <trkpt lat="43.41809" lon="5.68679">
        <ele>496</ele>
        <time>2014-01-25T13:18:00Z</time>
      </trkpt>
      <trkpt lat="43.41816" lon="5.68664">
        <ele>494</ele>
        <time>2014-01-25T13:18:09Z</time>
      </trkpt>
      <trkpt lat="43.41819" lon="5.68646">
        <ele>494</ele>
        <time>2014-01-25T13:18:19Z</time>
      </trkpt>
      <trkpt lat="43.41825" lon="5.6863">
        <ele>493</ele>
        <time>2014-01-25T13:18:29Z</time>
      </trkpt>
      <trkpt lat="43.41828" lon="5.68613">
        <ele>493</ele>
        <time>2014-01-25T13:18:38Z</time>
      </trkpt>
      <trkpt lat="43.41825" lon="5.68592">
        <ele>493</ele>
        <time>2014-01-25T13:18:47Z</time>
      </trkpt>
      <trkpt lat="43.41826" lon="5.68575">
        <ele>493</ele>
        <time>2014-01-25T13:18:56Z</time>
      </trkpt>
      <trkpt lat="43.41826" lon="5.68564">
        <ele>493</ele>
        <time>2014-01-25T13:19:05Z</time>
      </trkpt>
      <trkpt lat="43.41832" lon="5.68549">
        <ele>489</ele>
        <time>2014-01-25T13:19:16Z</time>
      </trkpt>
      <trkpt lat="43.41838" lon="5.68537">
        <ele>486</ele>
        <time>2014-01-25T13:19:25Z</time>
      </trkpt>
      <trkpt lat="43.41846" lon="5.68527">
        <ele>483</ele>
        <time>2014-01-25T13:19:35Z</time>
      </trkpt>
      <trkpt lat="43.41853" lon="5.68515">
        <ele>480</ele>
        <time>2014-01-25T13:19:45Z</time>
      </trkpt>
      <trkpt lat="43.41861" lon="5.68505">
        <ele>476</ele>
        <time>2014-01-25T13:19:55Z</time>
      </trkpt>
      <trkpt lat="43.41869" lon="5.68494">
        <ele>473</ele>
        <time>2014-01-25T13:20:05Z</time>
      </trkpt>
      <trkpt lat="43.41876" lon="5.68482">
        <ele>471</ele>
        <time>2014-01-25T13:20:15Z</time>
      </trkpt>
      <trkpt lat="43.41884" lon="5.68472">
        <ele>467</ele>
        <time>2014-01-25T13:20:25Z</time>
      </trkpt>
      <trkpt lat="43.41892" lon="5.68462">
        <ele>465</ele>
        <time>2014-01-25T13:20:35Z</time>
      </trkpt>
      <trkpt lat="43.419" lon="5.6845">
        <ele>465</ele>
        <time>2014-01-25T13:20:44Z</time>
      </trkpt>
      <trkpt lat="43.41904" lon="5.6844">
        <ele>465</ele>
        <time>2014-01-25T13:20:56Z</time>
      </trkpt>
      <trkpt lat="43.41909" lon="5.68432">
        <ele>465</ele>
        <time>2014-01-25T13:21:06Z</time>
      </trkpt>
      <trkpt lat="43.41912" lon="5.6842">
        <ele>465</ele>
        <time>2014-01-25T13:21:16Z</time>
      </trkpt>
      <trkpt lat="43.41912" lon="5.68406">
        <ele>465</ele>
        <time>2014-01-25T13:21:26Z</time>
      </trkpt>
      <trkpt lat="43.4191" lon="5.68393">
        <ele>465</ele>
        <time>2014-01-25T13:21:35Z</time>
      </trkpt>
      <trkpt lat="43.41904" lon="5.68379">
        <ele>465</ele>
        <time>2014-01-25T13:21:44Z</time>
      </trkpt>
      <trkpt lat="43.41898" lon="5.68365">
        <ele>465</ele>
        <time>2014-01-25T13:21:54Z</time>
      </trkpt>
      <trkpt lat="43.41892" lon="5.68352">
        <ele>464</ele>
        <time>2014-01-25T13:22:04Z</time>
      </trkpt>
      <trkpt lat="43.41888" lon="5.68342">
        <ele>462</ele>
        <time>2014-01-25T13:22:13Z</time>
      </trkpt>
      <trkpt lat="43.41891" lon="5.68332">
        <ele>458</ele>
        <time>2014-01-25T13:22:23Z</time>
      </trkpt>
      <trkpt lat="43.41893" lon="5.6832">
        <ele>456</ele>
        <time>2014-01-25T13:22:32Z</time>
      </trkpt>
      <trkpt lat="43.41893" lon="5.68295">
        <ele>454</ele>
        <time>2014-01-25T13:22:41Z</time>
      </trkpt>
      <trkpt lat="43.41893" lon="5.68281">
        <ele>452</ele>
        <time>2014-01-25T13:22:50Z</time>
      </trkpt>
      <trkpt lat="43.41893" lon="5.68267">
        <ele>449</ele>
        <time>2014-01-25T13:22:59Z</time>
      </trkpt>
      <trkpt lat="43.41896" lon="5.68252">
        <ele>448</ele>
        <time>2014-01-25T13:23:08Z</time>
      </trkpt>
      <trkpt lat="43.41899" lon="5.68238">
        <ele>447</ele>
        <time>2014-01-25T13:23:17Z</time>
      </trkpt>
      <trkpt lat="43.41898" lon="5.68227">
        <ele>449</ele>
        <time>2014-01-25T13:23:27Z</time>
      </trkpt>
      <trkpt lat="43.41896" lon="5.6821">
        <ele>451</ele>
        <time>2014-01-25T13:23:36Z</time>
      </trkpt>
      <trkpt lat="43.41893" lon="5.68193">
        <ele>453</ele>
        <time>2014-01-25T13:23:45Z</time>
      </trkpt>
      <trkpt lat="43.41889" lon="5.68177">
        <ele>453</ele>
        <time>2014-01-25T13:23:55Z</time>
      </trkpt>
      <trkpt lat="43.41888" lon="5.68159">
        <ele>453</ele>
        <time>2014-01-25T13:24:05Z</time>
      </trkpt>
      <trkpt lat="43.4189" lon="5.68143">
        <ele>453</ele>
        <time>2014-01-25T13:24:15Z</time>
      </trkpt>
      <trkpt lat="43.41892" lon="5.68129">
        <ele>453</ele>
        <time>2014-01-25T13:24:24Z</time>
      </trkpt>
      <trkpt lat="43.41892" lon="5.68113">
        <ele>453</ele>
        <time>2014-01-25T13:24:34Z</time>
      </trkpt>
      <trkpt lat="43.41893" lon="5.68097">
        <ele>454</ele>
        <time>2014-01-25T13:24:44Z</time>
      </trkpt>
      <trkpt lat="43.41889" lon="5.68084">
        <ele>454</ele>
        <time>2014-01-25T13:24:54Z</time>
      </trkpt>
      <trkpt lat="43.41888" lon="5.68068">
        <ele>454</ele>
        <time>2014-01-25T13:25:04Z</time>
      </trkpt>
      <trkpt lat="43.41888" lon="5.68053">
        <ele>454</ele>
        <time>2014-01-25T13:25:13Z</time>
      </trkpt>
      <trkpt lat="43.41889" lon="5.68037">
        <ele>454</ele>
        <time>2014-01-25T13:25:22Z</time>
      </trkpt>
      <trkpt lat="43.41889" lon="5.68019">
        <ele>455</ele>
        <time>2014-01-25T13:25:31Z</time>
      </trkpt>
      <trkpt lat="43.41891" lon="5.68004">
        <ele>455</ele>
        <time>2014-01-25T13:25:40Z</time>
      </trkpt>
      <trkpt lat="43.41895" lon="5.67989">
        <ele>455</ele>
        <time>2014-01-25T13:25:51Z</time>
      </trkpt>
      <trkpt lat="43.419" lon="5.67978">
        <ele>455</ele>
        <time>2014-01-25T13:26:00Z</time>
      </trkpt>
      <trkpt lat="43.41904" lon="5.67963">
        <ele>455</ele>
        <time>2014-01-25T13:26:10Z</time>
      </trkpt>
      <trkpt lat="43.41909" lon="5.67947">
        <ele>454</ele>
        <time>2014-01-25T13:26:21Z</time>
      </trkpt>
      <trkpt lat="43.41911" lon="5.67933">
        <ele>454</ele>
        <time>2014-01-25T13:26:30Z</time>
      </trkpt>
      <trkpt lat="43.41914" lon="5.67917">
        <ele>454</ele>
        <time>2014-01-25T13:26:41Z</time>
      </trkpt>
      <trkpt lat="43.41917" lon="5.67902">
        <ele>454</ele>
        <time>2014-01-25T13:26:51Z</time>
      </trkpt>
      <trkpt lat="43.41919" lon="5.67889">
        <ele>454</ele>
        <time>2014-01-25T13:27:00Z</time>
      </trkpt>
      <trkpt lat="43.41922" lon="5.67876">
        <ele>454</ele>
        <time>2014-01-25T13:27:09Z</time>
      </trkpt>
      <trkpt lat="43.41926" lon="5.67861">
        <ele>454</ele>
        <time>2014-01-25T13:27:19Z</time>
      </trkpt>
      <trkpt lat="43.4193" lon="5.67849">
        <ele>454</ele>
        <time>2014-01-25T13:27:28Z</time>
      </trkpt>
      <trkpt lat="43.41937" lon="5.67838">
        <ele>450</ele>
        <time>2014-01-25T13:27:38Z</time>
      </trkpt>
      <trkpt lat="43.41943" lon="5.67823">
        <ele>449</ele>
        <time>2014-01-25T13:27:48Z</time>
      </trkpt>
      <trkpt lat="43.41948" lon="5.67805">
        <ele>448</ele>
        <time>2014-01-25T13:27:59Z</time>
      </trkpt>
      <trkpt lat="43.41957" lon="5.67791">
        <ele>448</ele>
        <time>2014-01-25T13:28:10Z</time>
      </trkpt>
      <trkpt lat="43.41966" lon="5.67779">
        <ele>447</ele>
        <time>2014-01-25T13:28:20Z</time>
      </trkpt>
      <trkpt lat="43.41973" lon="5.67765">
        <ele>444</ele>
        <time>2014-01-25T13:28:31Z</time>
      </trkpt>
      <trkpt lat="43.41974" lon="5.67761">
        <ele>444</ele>
        <time>2014-01-25T13:29:09Z</time>
      </trkpt>
      <trkpt lat="43.41975" lon="5.67762">
        <ele>445</ele>
        <time>2014-01-25T13:30:19Z</time>
      </trkpt>
      <trkpt lat="43.41975" lon="5.67761">
        <ele>446</ele>
        <time>2014-01-25T13:30:30Z</time>
      </trkpt>
      <trkpt lat="43.41978" lon="5.67749">
        <ele>446</ele>
        <time>2014-01-25T13:30:40Z</time>
      </trkpt>
      <trkpt lat="43.41984" lon="5.67739">
        <ele>446</ele>
        <time>2014-01-25T13:30:50Z</time>
      </trkpt>
      <trkpt lat="43.41985" lon="5.67733">
        <ele>445</ele>
        <time>2014-01-25T13:31:11Z</time>
      </trkpt>
      <trkpt lat="43.4199" lon="5.67729">
        <ele>445</ele>
        <time>2014-01-25T13:31:21Z</time>
      </trkpt>
      <trkpt lat="43.41993" lon="5.67728">
        <ele>445</ele>
        <time>2014-01-25T13:31:33Z</time>
      </trkpt>
      <trkpt lat="43.42001" lon="5.67726">
        <ele>444</ele>
        <time>2014-01-25T13:31:43Z</time>
      </trkpt>
      <trkpt lat="43.4201" lon="5.67721">
        <ele>442</ele>
        <time>2014-01-25T13:31:53Z</time>
      </trkpt>
      <trkpt lat="43.42019" lon="5.67715">
        <ele>440</ele>
        <time>2014-01-25T13:32:02Z</time>
      </trkpt>
      <trkpt lat="43.42028" lon="5.67709">
        <ele>438</ele>
        <time>2014-01-25T13:32:12Z</time>
      </trkpt>
      <trkpt lat="43.42035" lon="5.67706">
        <ele>436</ele>
        <time>2014-01-25T13:32:21Z</time>
      </trkpt>
      <trkpt lat="43.42045" lon="5.677">
        <ele>435</ele>
        <time>2014-01-25T13:32:31Z</time>
      </trkpt>
      <trkpt lat="43.42053" lon="5.67694">
        <ele>433</ele>
        <time>2014-01-25T13:32:40Z</time>
      </trkpt>
      <trkpt lat="43.42062" lon="5.67683">
        <ele>429</ele>
        <time>2014-01-25T13:32:51Z</time>
      </trkpt>
      <trkpt lat="43.42069" lon="5.67671">
        <ele>429</ele>
        <time>2014-01-25T13:33:01Z</time>
      </trkpt>
      <trkpt lat="43.42075" lon="5.67659">
        <ele>429</ele>
        <time>2014-01-25T13:33:11Z</time>
      </trkpt>
      <trkpt lat="43.42081" lon="5.67646">
        <ele>427</ele>
        <time>2014-01-25T13:33:20Z</time>
      </trkpt>
      <trkpt lat="43.42087" lon="5.6763">
        <ele>425</ele>
        <time>2014-01-25T13:33:30Z</time>
      </trkpt>
      <trkpt lat="43.42093" lon="5.67617">
        <ele>422</ele>
        <time>2014-01-25T13:33:40Z</time>
      </trkpt>
      <trkpt lat="43.42099" lon="5.67605">
        <ele>417</ele>
        <time>2014-01-25T13:33:50Z</time>
      </trkpt>
      <trkpt lat="43.42099" lon="5.67587">
        <ele>415</ele>
        <time>2014-01-25T13:34:00Z</time>
      </trkpt>
      <trkpt lat="43.42099" lon="5.67568">
        <ele>412</ele>
        <time>2014-01-25T13:34:10Z</time>
      </trkpt>
      <trkpt lat="43.42101" lon="5.67553">
        <ele>412</ele>
        <time>2014-01-25T13:34:20Z</time>
      </trkpt>
      <trkpt lat="43.42103" lon="5.67538">
        <ele>412</ele>
        <time>2014-01-25T13:34:30Z</time>
      </trkpt>
      <trkpt lat="43.42109" lon="5.67522">
        <ele>410</ele>
        <time>2014-01-25T13:34:40Z</time>
      </trkpt>
      <trkpt lat="43.42117" lon="5.67508">
        <ele>408</ele>
        <time>2014-01-25T13:34:50Z</time>
      </trkpt>
      <trkpt lat="43.42126" lon="5.67495">
        <ele>408</ele>
        <time>2014-01-25T13:35:00Z</time>
      </trkpt>
      <trkpt lat="43.42135" lon="5.67482">
        <ele>408</ele>
        <time>2014-01-25T13:35:11Z</time>
      </trkpt>
      <trkpt lat="43.42144" lon="5.67472">
        <ele>408</ele>
        <time>2014-01-25T13:35:21Z</time>
      </trkpt>
      <trkpt lat="43.42153" lon="5.6746">
        <ele>408</ele>
        <time>2014-01-25T13:35:31Z</time>
      </trkpt>
      <trkpt lat="43.42162" lon="5.67448">
        <ele>408</ele>
        <time>2014-01-25T13:35:41Z</time>
      </trkpt>
      <trkpt lat="43.42171" lon="5.67437">
        <ele>408</ele>
        <time>2014-01-25T13:35:51Z</time>
      </trkpt>
      <trkpt lat="43.4218" lon="5.67426">
        <ele>408</ele>
        <time>2014-01-25T13:36:01Z</time>
      </trkpt>
      <trkpt lat="43.42188" lon="5.67415">
        <ele>408</ele>
        <time>2014-01-25T13:36:10Z</time>
      </trkpt>
      <trkpt lat="43.42198" lon="5.67403">
        <ele>408</ele>
        <time>2014-01-25T13:36:20Z</time>
      </trkpt>
      <trkpt lat="43.4221" lon="5.6739">
        <ele>408</ele>
        <time>2014-01-25T13:36:31Z</time>
      </trkpt>
      <trkpt lat="43.42219" lon="5.67384">
        <ele>408</ele>
        <time>2014-01-25T13:36:40Z</time>
      </trkpt>
      <trkpt lat="43.4223" lon="5.67371">
        <ele>408</ele>
        <time>2014-01-25T13:36:50Z</time>
      </trkpt>
      <trkpt lat="43.42237" lon="5.67355">
        <ele>408</ele>
        <time>2014-01-25T13:37:00Z</time>
      </trkpt>
      <trkpt lat="43.42242" lon="5.67342">
        <ele>407</ele>
        <time>2014-01-25T13:37:10Z</time>
      </trkpt>
      <trkpt lat="43.42248" lon="5.67325">
        <ele>407</ele>
        <time>2014-01-25T13:37:20Z</time>
      </trkpt>
      <trkpt lat="43.42253" lon="5.67313">
        <ele>407</ele>
        <time>2014-01-25T13:37:29Z</time>
      </trkpt>
      <trkpt lat="43.42258" lon="5.67298">
        <ele>407</ele>
        <time>2014-01-25T13:37:39Z</time>
      </trkpt>
      <trkpt lat="43.42264" lon="5.67284">
        <ele>407</ele>
        <time>2014-01-25T13:37:48Z</time>
      </trkpt>
      <trkpt lat="43.42271" lon="5.67271">
        <ele>406</ele>
        <time>2014-01-25T13:37:57Z</time>
      </trkpt>
      <trkpt lat="43.42278" lon="5.67259">
        <ele>405</ele>
        <time>2014-01-25T13:38:06Z</time>
      </trkpt>
      <trkpt lat="43.42288" lon="5.67246">
        <ele>405</ele>
        <time>2014-01-25T13:38:16Z</time>
      </trkpt>
      <trkpt lat="43.42297" lon="5.67235">
        <ele>405</ele>
        <time>2014-01-25T13:38:25Z</time>
      </trkpt>
      <trkpt lat="43.42308" lon="5.67224">
        <ele>405</ele>
        <time>2014-01-25T13:38:35Z</time>
      </trkpt>
      <trkpt lat="43.42318" lon="5.67214">
        <ele>405</ele>
        <time>2014-01-25T13:38:45Z</time>
      </trkpt>
      <trkpt lat="43.4233" lon="5.67207">
        <ele>405</ele>
        <time>2014-01-25T13:38:55Z</time>
      </trkpt>
      <trkpt lat="43.42343" lon="5.67204">
        <ele>405</ele>
        <time>2014-01-25T13:39:05Z</time>
      </trkpt>
      <trkpt lat="43.42355" lon="5.67207">
        <ele>404</ele>
        <time>2014-01-25T13:39:15Z</time>
      </trkpt>
      <trkpt lat="43.42364" lon="5.67206">
        <ele>403</ele>
        <time>2014-01-25T13:39:25Z</time>
      </trkpt>
      <trkpt lat="43.42363" lon="5.67191">
        <ele>398</ele>
        <time>2014-01-25T13:39:36Z</time>
      </trkpt>
      <trkpt lat="43.4236" lon="5.67182">
        <ele>397</ele>
        <time>2014-01-25T13:39:45Z</time>
      </trkpt>
      <trkpt lat="43.42355" lon="5.67166">
        <ele>396</ele>
        <time>2014-01-25T13:39:55Z</time>
      </trkpt>
      <trkpt lat="43.42352" lon="5.6715">
        <ele>396</ele>
        <time>2014-01-25T13:40:05Z</time>
      </trkpt>
      <trkpt lat="43.42348" lon="5.67135">
        <ele>396</ele>
        <time>2014-01-25T13:40:16Z</time>
      </trkpt>
      <trkpt lat="43.4234" lon="5.67121">
        <ele>395</ele>
        <time>2014-01-25T13:40:26Z</time>
      </trkpt>
      <trkpt lat="43.42335" lon="5.67108">
        <ele>392</ele>
        <time>2014-01-25T13:40:35Z</time>
      </trkpt>
      <trkpt lat="43.4233" lon="5.67092">
        <ele>389</ele>
        <time>2014-01-25T13:40:45Z</time>
      </trkpt>
      <trkpt lat="43.4233" lon="5.67083">
        <ele>389</ele>
        <time>2014-01-25T13:40:54Z</time>
      </trkpt>
      <trkpt lat="43.42334" lon="5.6707">
        <ele>389</ele>
        <time>2014-01-25T13:41:04Z</time>
      </trkpt>
      <trkpt lat="43.42337" lon="5.67056">
        <ele>389</ele>
        <time>2014-01-25T13:41:13Z</time>
      </trkpt>
      <trkpt lat="43.42343" lon="5.67044">
        <ele>387</ele>
        <time>2014-01-25T13:41:22Z</time>
      </trkpt>
      <trkpt lat="43.4235" lon="5.67032">
        <ele>384</ele>
        <time>2014-01-25T13:41:31Z</time>
      </trkpt>
      <trkpt lat="43.42353" lon="5.67022">
        <ele>384</ele>
        <time>2014-01-25T13:41:40Z</time>
      </trkpt>
      <trkpt lat="43.42352" lon="5.67019">
        <ele>384</ele>
        <time>2014-01-25T13:41:50Z</time>
      </trkpt>
      <trkpt lat="43.42359" lon="5.6701">
        <ele>385</ele>
        <time>2014-01-25T13:42:01Z</time>
      </trkpt>
      <trkpt lat="43.42363" lon="5.66996">
        <ele>385</ele>
        <time>2014-01-25T13:42:10Z</time>
      </trkpt>
      <trkpt lat="43.42367" lon="5.6698">
        <ele>385</ele>
        <time>2014-01-25T13:42:21Z</time>
      </trkpt>
      <trkpt lat="43.42366" lon="5.66965">
        <ele>385</ele>
        <time>2014-01-25T13:42:31Z</time>
      </trkpt>
      <trkpt lat="43.42365" lon="5.6696">
        <ele>385</ele>
        <time>2014-01-25T13:42:41Z</time>
      </trkpt>
      <trkpt lat="43.42359" lon="5.66958">
        <ele>385</ele>
        <time>2014-01-25T13:42:50Z</time>
      </trkpt>
      <trkpt lat="43.42352" lon="5.66961">
        <ele>385</ele>
        <time>2014-01-25T13:43:00Z</time>
      </trkpt>
      <trkpt lat="43.42345" lon="5.66966">
        <ele>385</ele>
        <time>2014-01-25T13:43:10Z</time>
      </trkpt>
      <trkpt lat="43.42336" lon="5.66975">
        <ele>385</ele>
        <time>2014-01-25T13:43:20Z</time>
      </trkpt>
      <trkpt lat="43.42328" lon="5.66981">
        <ele>385</ele>
        <time>2014-01-25T13:43:30Z</time>
      </trkpt>
      <trkpt lat="43.42321" lon="5.66988">
        <ele>383</ele>
        <time>2014-01-25T13:43:40Z</time>
      </trkpt>
      <trkpt lat="43.42313" lon="5.66994">
        <ele>383</ele>
        <time>2014-01-25T13:43:50Z</time>
      </trkpt>
      <trkpt lat="43.42305" lon="5.67001">
        <ele>381</ele>
        <time>2014-01-25T13:44:00Z</time>
      </trkpt>
      <trkpt lat="43.42296" lon="5.67012">
        <ele>381</ele>
        <time>2014-01-25T13:44:10Z</time>
      </trkpt>
      <trkpt lat="43.42287" lon="5.67021">
        <ele>381</ele>
        <time>2014-01-25T13:44:20Z</time>
      </trkpt>
      <trkpt lat="43.42279" lon="5.67028">
        <ele>381</ele>
        <time>2014-01-25T13:44:31Z</time>
      </trkpt>
      <trkpt lat="43.42268" lon="5.67038">
        <ele>380</ele>
        <time>2014-01-25T13:44:41Z</time>
      </trkpt>
      <trkpt lat="43.42259" lon="5.67041">
        <ele>380</ele>
        <time>2014-01-25T13:44:50Z</time>
      </trkpt>
      <trkpt lat="43.42246" lon="5.67045">
        <ele>379</ele>
        <time>2014-01-25T13:44:59Z</time>
      </trkpt>
      <trkpt lat="43.42231" lon="5.67041">
        <ele>378</ele>
        <time>2014-01-25T13:45:10Z</time>
      </trkpt>
      <trkpt lat="43.42223" lon="5.67029">
        <ele>377</ele>
        <time>2014-01-25T13:45:20Z</time>
      </trkpt>
      <trkpt lat="43.42218" lon="5.67017">
        <ele>377</ele>
        <time>2014-01-25T13:45:30Z</time>
      </trkpt>
      <trkpt lat="43.42219" lon="5.67003">
        <ele>377</ele>
        <time>2014-01-25T13:45:39Z</time>
      </trkpt>
      <trkpt lat="43.42219" lon="5.66986">
        <ele>377</ele>
        <time>2014-01-25T13:45:49Z</time>
      </trkpt>
      <trkpt lat="43.42218" lon="5.6697">
        <ele>377</ele>
        <time>2014-01-25T13:45:58Z</time>
      </trkpt>
      <trkpt lat="43.42215" lon="5.66956">
        <ele>377</ele>
        <time>2014-01-25T13:46:07Z</time>
      </trkpt>
      <trkpt lat="43.42211" lon="5.66941">
        <ele>377</ele>
        <time>2014-01-25T13:46:17Z</time>
      </trkpt>
      <trkpt lat="43.42202" lon="5.66937">
        <ele>377</ele>
        <time>2014-01-25T13:46:26Z</time>
      </trkpt>
      <trkpt lat="43.42192" lon="5.66937">
        <ele>377</ele>
        <time>2014-01-25T13:46:36Z</time>
      </trkpt>
      <trkpt lat="43.42183" lon="5.6694">
        <ele>377</ele>
        <time>2014-01-25T13:46:45Z</time>
      </trkpt>
      <trkpt lat="43.42171" lon="5.66945">
        <ele>377</ele>
        <time>2014-01-25T13:46:55Z</time>
      </trkpt>
      <trkpt lat="43.42158" lon="5.66947">
        <ele>376</ele>
        <time>2014-01-25T13:47:05Z</time>
      </trkpt>
      <trkpt lat="43.42147" lon="5.66951">
        <ele>375</ele>
        <time>2014-01-25T13:47:15Z</time>
      </trkpt>
      <trkpt lat="43.42136" lon="5.66951">
        <ele>373</ele>
        <time>2014-01-25T13:47:25Z</time>
      </trkpt>
      <trkpt lat="43.42124" lon="5.66955">
        <ele>373</ele>
        <time>2014-01-25T13:47:35Z</time>
      </trkpt>
      <trkpt lat="43.42112" lon="5.66959">
        <ele>373</ele>
        <time>2014-01-25T13:47:45Z</time>
      </trkpt>
      <trkpt lat="43.421" lon="5.66964">
        <ele>373</ele>
        <time>2014-01-25T13:47:55Z</time>
      </trkpt>
      <trkpt lat="43.42087" lon="5.66968">
        <ele>373</ele>
        <time>2014-01-25T13:48:05Z</time>
      </trkpt>
      <trkpt lat="43.42075" lon="5.66971">
        <ele>371</ele>
        <time>2014-01-25T13:48:15Z</time>
      </trkpt>
      <trkpt lat="43.42062" lon="5.66974">
        <ele>368</ele>
        <time>2014-01-25T13:48:25Z</time>
      </trkpt>
      <trkpt lat="43.4205" lon="5.66974">
        <ele>366</ele>
        <time>2014-01-25T13:48:35Z</time>
      </trkpt>
      <trkpt lat="43.42038" lon="5.66975">
        <ele>364</ele>
        <time>2014-01-25T13:48:45Z</time>
      </trkpt>
      <trkpt lat="43.4203" lon="5.66978">
        <ele>364</ele>
        <time>2014-01-25T13:48:55Z</time>
      </trkpt>
      <trkpt lat="43.42017" lon="5.66981">
        <ele>363</ele>
        <time>2014-01-25T13:49:06Z</time>
      </trkpt>
      <trkpt lat="43.42007" lon="5.66985">
        <ele>362</ele>
        <time>2014-01-25T13:49:15Z</time>
      </trkpt>
      <trkpt lat="43.41994" lon="5.6699">
        <ele>362</ele>
        <time>2014-01-25T13:49:25Z</time>
      </trkpt>
      <trkpt lat="43.4198" lon="5.6699">
        <ele>362</ele>
        <time>2014-01-25T13:49:36Z</time>
      </trkpt>
      <trkpt lat="43.4197" lon="5.66989">
        <ele>362</ele>
        <time>2014-01-25T13:49:46Z</time>
      </trkpt>
      <trkpt lat="43.4196" lon="5.66989">
        <ele>362</ele>
        <time>2014-01-25T13:49:55Z</time>
      </trkpt>
      <trkpt lat="43.41949" lon="5.66991">
        <ele>362</ele>
        <time>2014-01-25T13:50:05Z</time>
      </trkpt>
      <trkpt lat="43.41936" lon="5.66997">
        <ele>362</ele>
        <time>2014-01-25T13:50:15Z</time>
      </trkpt>
      <trkpt lat="43.41927" lon="5.67008">
        <ele>362</ele>
        <time>2014-01-25T13:50:25Z</time>
      </trkpt>
      <trkpt lat="43.41925" lon="5.67022">
        <ele>362</ele>
        <time>2014-01-25T13:50:34Z</time>
      </trkpt>
      <trkpt lat="43.41926" lon="5.67037">
        <ele>362</ele>
        <time>2014-01-25T13:50:44Z</time>
      </trkpt>
      <trkpt lat="43.41928" lon="5.67051">
        <ele>362</ele>
        <time>2014-01-25T13:50:53Z</time>
      </trkpt>
      <trkpt lat="43.41924" lon="5.67064">
        <ele>360</ele>
        <time>2014-01-25T13:51:03Z</time>
      </trkpt>
      <trkpt lat="43.41924" lon="5.67069">
        <ele>360</ele>
        <time>2014-01-25T13:51:12Z</time>
      </trkpt>
      <trkpt lat="43.41917" lon="5.67079">
        <ele>359</ele>
        <time>2014-01-25T13:51:21Z</time>
      </trkpt>
      <trkpt lat="43.41905" lon="5.67081">
        <ele>359</ele>
        <time>2014-01-25T13:51:31Z</time>
      </trkpt>
      <trkpt lat="43.41897" lon="5.67075">
        <ele>359</ele>
        <time>2014-01-25T13:51:42Z</time>
      </trkpt>
      <trkpt lat="43.41888" lon="5.67076">
        <ele>359</ele>
        <time>2014-01-25T13:51:51Z</time>
      </trkpt>
      <trkpt lat="43.41879" lon="5.67083">
        <ele>359</ele>
        <time>2014-01-25T13:52:00Z</time>
      </trkpt>
      <trkpt lat="43.41867" lon="5.6708">
        <ele>359</ele>
        <time>2014-01-25T13:52:11Z</time>
      </trkpt>
      <trkpt lat="43.41861" lon="5.67074">
        <ele>359</ele>
        <time>2014-01-25T13:52:20Z</time>
      </trkpt>
      <trkpt lat="43.41853" lon="5.67069">
        <ele>359</ele>
        <time>2014-01-25T13:52:29Z</time>
      </trkpt>
      <trkpt lat="43.41846" lon="5.67062">
        <ele>359</ele>
        <time>2014-01-25T13:52:47Z</time>
      </trkpt>
      <trkpt lat="43.41837" lon="5.67057">
        <ele>359</ele>
        <time>2014-01-25T13:52:57Z</time>
      </trkpt>
      <trkpt lat="43.4183" lon="5.67056">
        <ele>359</ele>
        <time>2014-01-25T13:53:06Z</time>
      </trkpt>
      <trkpt lat="43.41826" lon="5.67054">
        <ele>360</ele>
        <time>2014-01-25T13:53:18Z</time>
      </trkpt>
      <trkpt lat="43.41823" lon="5.67046">
        <ele>360</ele>
        <time>2014-01-25T13:53:27Z</time>
      </trkpt>
      <trkpt lat="43.41819" lon="5.67038">
        <ele>361</ele>
        <time>2014-01-25T13:53:37Z</time>
      </trkpt>
      <trkpt lat="43.41816" lon="5.6704">
        <ele>362</ele>
        <time>2014-01-25T13:53:47Z</time>
      </trkpt>
      <trkpt lat="43.4181" lon="5.67043">
        <ele>362</ele>
        <time>2014-01-25T13:53:56Z</time>
      </trkpt>
      <trkpt lat="43.41804" lon="5.67046">
        <ele>363</ele>
        <time>2014-01-25T13:54:08Z</time>
      </trkpt>
      <trkpt lat="43.41797" lon="5.67041">
        <ele>363</ele>
        <time>2014-01-25T13:54:18Z</time>
      </trkpt>
      <trkpt lat="43.41791" lon="5.67035">
        <ele>365</ele>
        <time>2014-01-25T13:54:28Z</time>
      </trkpt>
      <trkpt lat="43.41784" lon="5.67029">
        <ele>366</ele>
        <time>2014-01-25T13:54:38Z</time>
      </trkpt>
      <trkpt lat="43.41777" lon="5.67023">
        <ele>367</ele>
        <time>2014-01-25T13:54:48Z</time>
      </trkpt>
      <trkpt lat="43.41769" lon="5.6702">
        <ele>369</ele>
        <time>2014-01-25T13:54:58Z</time>
      </trkpt>
      <trkpt lat="43.41761" lon="5.67015">
        <ele>370</ele>
        <time>2014-01-25T13:55:08Z</time>
      </trkpt>
      <trkpt lat="43.41755" lon="5.67011">
        <ele>371</ele>
        <time>2014-01-25T13:55:17Z</time>
      </trkpt>
      <trkpt lat="43.41746" lon="5.67009">
        <ele>372</ele>
        <time>2014-01-25T13:55:27Z</time>
      </trkpt>
      <trkpt lat="43.41738" lon="5.67007">
        <ele>374</ele>
        <time>2014-01-25T13:55:37Z</time>
      </trkpt>
      <trkpt lat="43.41731" lon="5.67005">
        <ele>376</ele>
        <time>2014-01-25T13:55:46Z</time>
      </trkpt>
      <trkpt lat="43.41724" lon="5.67001">
        <ele>377</ele>
        <time>2014-01-25T13:55:56Z</time>
      </trkpt>
      <trkpt lat="43.41716" lon="5.66998">
        <ele>379</ele>
        <time>2014-01-25T13:56:06Z</time>
      </trkpt>
      <trkpt lat="43.41708" lon="5.66996">
        <ele>382</ele>
        <time>2014-01-25T13:56:16Z</time>
      </trkpt>
      <trkpt lat="43.41699" lon="5.66994">
        <ele>386</ele>
        <time>2014-01-25T13:56:26Z</time>
      </trkpt>
      <trkpt lat="43.41691" lon="5.66992">
        <ele>387</ele>
        <time>2014-01-25T13:56:35Z</time>
      </trkpt>
      <trkpt lat="43.41684" lon="5.6699">
        <ele>388</ele>
        <time>2014-01-25T13:56:45Z</time>
      </trkpt>
      <trkpt lat="43.41676" lon="5.66986">
        <ele>389</ele>
        <time>2014-01-25T13:56:55Z</time>
      </trkpt>
      <trkpt lat="43.41668" lon="5.66987">
        <ele>391</ele>
        <time>2014-01-25T13:57:07Z</time>
      </trkpt>
      <trkpt lat="43.41663" lon="5.66986">
        <ele>391</ele>
        <time>2014-01-25T13:57:19Z</time>
      </trkpt>
      <trkpt lat="43.41668" lon="5.66993">
        <ele>390</ele>
        <time>2014-01-25T13:57:31Z</time>
      </trkpt>
      <trkpt lat="43.41665" lon="5.6699">
        <ele>390</ele>
        <time>2014-01-25T13:57:41Z</time>
      </trkpt>
      <trkpt lat="43.41654" lon="5.66991">
        <ele>390</ele>
        <time>2014-01-25T13:57:51Z</time>
      </trkpt>
      <trkpt lat="43.41644" lon="5.66991">
        <ele>393</ele>
        <time>2014-01-25T13:58:01Z</time>
      </trkpt>
      <trkpt lat="43.41636" lon="5.66987">
        <ele>393</ele>
        <time>2014-01-25T13:58:11Z</time>
      </trkpt>
      <trkpt lat="43.41632" lon="5.66981">
        <ele>393</ele>
        <time>2014-01-25T13:58:21Z</time>
      </trkpt>
      <trkpt lat="43.41631" lon="5.66978">
        <ele>393</ele>
        <time>2014-01-25T13:58:32Z</time>
      </trkpt>
      <trkpt lat="43.41627" lon="5.66974">
        <ele>393</ele>
        <time>2014-01-25T13:58:41Z</time>
      </trkpt>
      <trkpt lat="43.41622" lon="5.66972">
        <ele>393</ele>
        <time>2014-01-25T13:58:51Z</time>
      </trkpt>
      <trkpt lat="43.41613" lon="5.66968">
        <ele>393</ele>
        <time>2014-01-25T13:59:01Z</time>
      </trkpt>
      <trkpt lat="43.41604" lon="5.66965">
        <ele>395</ele>
        <time>2014-01-25T13:59:11Z</time>
      </trkpt>
      <trkpt lat="43.41594" lon="5.6696">
        <ele>397</ele>
        <time>2014-01-25T13:59:21Z</time>
      </trkpt>
      <trkpt lat="43.41584" lon="5.66954">
        <ele>399</ele>
        <time>2014-01-25T13:59:31Z</time>
      </trkpt>
      <trkpt lat="43.41576" lon="5.66946">
        <ele>399</ele>
        <time>2014-01-25T13:59:41Z</time>
      </trkpt>
      <trkpt lat="43.41567" lon="5.66937">
        <ele>400</ele>
        <time>2014-01-25T13:59:51Z</time>
      </trkpt>
      <trkpt lat="43.41557" lon="5.66929">
        <ele>401</ele>
        <time>2014-01-25T14:00:01Z</time>
      </trkpt>
      <trkpt lat="43.41547" lon="5.66924">
        <ele>402</ele>
        <time>2014-01-25T14:00:10Z</time>
      </trkpt>
      <trkpt lat="43.41536" lon="5.66917">
        <ele>405</ele>
        <time>2014-01-25T14:00:20Z</time>
      </trkpt>
      <trkpt lat="43.41527" lon="5.66908">
        <ele>407</ele>
        <time>2014-01-25T14:00:30Z</time>
      </trkpt>
      <trkpt lat="43.41519" lon="5.66897">
        <ele>408</ele>
        <time>2014-01-25T14:00:40Z</time>
      </trkpt>
      <trkpt lat="43.41511" lon="5.66886">
        <ele>409</ele>
        <time>2014-01-25T14:00:50Z</time>
      </trkpt>
      <trkpt lat="43.41502" lon="5.66876">
        <ele>410</ele>
        <time>2014-01-25T14:01:00Z</time>
      </trkpt>
      <trkpt lat="43.41496" lon="5.66865">
        <ele>411</ele>
        <time>2014-01-25T14:01:10Z</time>
      </trkpt>
      <trkpt lat="43.41491" lon="5.66854">
        <ele>411</ele>
        <time>2014-01-25T14:01:20Z</time>
      </trkpt>
      <trkpt lat="43.41487" lon="5.66849">
        <ele>411</ele>
        <time>2014-01-25T14:01:30Z</time>
      </trkpt>
      <trkpt lat="43.41487" lon="5.66852">
        <ele>411</ele>
        <time>2014-01-25T14:01:40Z</time>
      </trkpt>
      <trkpt lat="43.41494" lon="5.66865">
        <ele>411</ele>
        <time>2014-01-25T14:01:50Z</time>
      </trkpt>
      <trkpt lat="43.41496" lon="5.66871">
        <ele>411</ele>
        <time>2014-01-25T14:02:02Z</time>
      </trkpt>
      <trkpt lat="43.41496" lon="5.66872">
        <ele>411</ele>
        <time>2014-01-25T14:02:24Z</time>
      </trkpt>
      <trkpt lat="43.41492" lon="5.66861">
        <ele>412</ele>
        <time>2014-01-25T14:02:33Z</time>
      </trkpt>
      <trkpt lat="43.41491" lon="5.66859">
        <ele>413</ele>
        <time>2014-01-25T14:02:44Z</time>
      </trkpt>
      <trkpt lat="43.4149" lon="5.66851">
        <ele>413</ele>
        <time>2014-01-25T14:02:55Z</time>
      </trkpt>
      <trkpt lat="43.41484" lon="5.66838">
        <ele>413</ele>
        <time>2014-01-25T14:03:09Z</time>
      </trkpt>
      <trkpt lat="43.41478" lon="5.66826">
        <ele>413</ele>
        <time>2014-01-25T14:03:18Z</time>
      </trkpt>
      <trkpt lat="43.41475" lon="5.66815">
        <ele>413</ele>
        <time>2014-01-25T14:03:28Z</time>
      </trkpt>
      <trkpt lat="43.41471" lon="5.66802">
        <ele>413</ele>
        <time>2014-01-25T14:03:39Z</time>
      </trkpt>
      <trkpt lat="43.41465" lon="5.6679">
        <ele>413</ele>
        <time>2014-01-25T14:03:48Z</time>
      </trkpt>
      <trkpt lat="43.41455" lon="5.66779">
        <ele>413</ele>
        <time>2014-01-25T14:03:59Z</time>
      </trkpt>
      <trkpt lat="43.41441" lon="5.66774">
        <ele>413</ele>
        <time>2014-01-25T14:04:09Z</time>
      </trkpt>
      <trkpt lat="43.4143" lon="5.66769">
        <ele>413</ele>
        <time>2014-01-25T14:04:18Z</time>
      </trkpt>
      <trkpt lat="43.41419" lon="5.66763">
        <ele>413</ele>
        <time>2014-01-25T14:04:28Z</time>
      </trkpt>
      <trkpt lat="43.41408" lon="5.66758">
        <ele>413</ele>
        <time>2014-01-25T14:04:38Z</time>
      </trkpt>
      <trkpt lat="43.41397" lon="5.66753">
        <ele>413</ele>
        <time>2014-01-25T14:04:48Z</time>
      </trkpt>
      <trkpt lat="43.41386" lon="5.66748">
        <ele>413</ele>
        <time>2014-01-25T14:04:58Z</time>
      </trkpt>
      <trkpt lat="43.41376" lon="5.66743">
        <ele>413</ele>
        <time>2014-01-25T14:05:07Z</time>
      </trkpt>
      <trkpt lat="43.41365" lon="5.66736">
        <ele>413</ele>
        <time>2014-01-25T14:05:17Z</time>
      </trkpt>
      <trkpt lat="43.41355" lon="5.6673">
        <ele>413</ele>
        <time>2014-01-25T14:05:27Z</time>
      </trkpt>
      <trkpt lat="43.41345" lon="5.66724">
        <ele>413</ele>
        <time>2014-01-25T14:05:37Z</time>
      </trkpt>
      <trkpt lat="43.41339" lon="5.66722">
        <ele>413</ele>
        <time>2014-01-25T14:05:47Z</time>
      </trkpt>
      <trkpt lat="43.41333" lon="5.66709">
        <ele>412</ele>
        <time>2014-01-25T14:05:58Z</time>
      </trkpt>
      <trkpt lat="43.41327" lon="5.66697">
        <ele>409</ele>
        <time>2014-01-25T14:06:08Z</time>
      </trkpt>
      <trkpt lat="43.41318" lon="5.66689">
        <ele>407</ele>
        <time>2014-01-25T14:06:17Z</time>
      </trkpt>
      <trkpt lat="43.41308" lon="5.66682">
        <ele>406</ele>
        <time>2014-01-25T14:06:26Z</time>
      </trkpt>
      <trkpt lat="43.41298" lon="5.66675">
        <ele>404</ele>
        <time>2014-01-25T14:06:36Z</time>
      </trkpt>
      <trkpt lat="43.41288" lon="5.66668">
        <ele>403</ele>
        <time>2014-01-25T14:06:46Z</time>
      </trkpt>
      <trkpt lat="43.41278" lon="5.66661">
        <ele>403</ele>
        <time>2014-01-25T14:06:55Z</time>
      </trkpt>
      <trkpt lat="43.41269" lon="5.66652">
        <ele>402</ele>
        <time>2014-01-25T14:07:06Z</time>
      </trkpt>
      <trkpt lat="43.41267" lon="5.6665">
        <ele>402</ele>
        <time>2014-01-25T14:07:20Z</time>
      </trkpt>
      <trkpt lat="43.41241" lon="5.66632">
        <ele>402</ele>
        <time>2014-01-25T14:08:09Z</time>
      </trkpt>
      <trkpt lat="43.4123" lon="5.66624">
        <ele>402</ele>
        <time>2014-01-25T14:08:19Z</time>
      </trkpt>
      <trkpt lat="43.41219" lon="5.66617">
        <ele>402</ele>
        <time>2014-01-25T14:08:29Z</time>
      </trkpt>
      <trkpt lat="43.41209" lon="5.66607">
        <ele>402</ele>
        <time>2014-01-25T14:08:39Z</time>
      </trkpt>
      <trkpt lat="43.41201" lon="5.66599">
        <ele>402</ele>
        <time>2014-01-25T14:08:50Z</time>
      </trkpt>
      <trkpt lat="43.412" lon="5.66601">
        <ele>402</ele>
        <time>2014-01-25T14:09:00Z</time>
      </trkpt>
      <trkpt lat="43.41198" lon="5.66603">
        <ele>402</ele>
        <time>2014-01-25T14:09:22Z</time>
      </trkpt>
      <trkpt lat="43.41197" lon="5.66601">
        <ele>402</ele>
        <time>2014-01-25T14:09:56Z</time>
      </trkpt>
      <trkpt lat="43.41197" lon="5.666">
        <ele>402</ele>
        <time>2014-01-25T14:10:19Z</time>
      </trkpt>
      <trkpt lat="43.41196" lon="5.66598">
        <ele>402</ele>
        <time>2014-01-25T14:10:32Z</time>
      </trkpt>
      <trkpt lat="43.41195" lon="5.66598">
        <ele>402</ele>
        <time>2014-01-25T14:10:47Z</time>
      </trkpt>
      <trkpt lat="43.41196" lon="5.66597">
        <ele>402</ele>
        <time>2014-01-25T14:10:50Z</time>
      </trkpt>
    </trkseg>
  </trk>
</gpx>